<?xml version="1.0" encoding="UTF-8" standalone="no" ?>
<gpx xmlns="http://www.topografix.com/GPX/1/1" xmlns:xsi="http://www.w3.org/2001/XMLSchema-instance" xsi:schemaLocation="http://www.topografix.com/GPX/1/1 http://www.topografix.com/GPX/1/1/gpx.xsd" version="1.1" creator="VisuGPX - https://www.visugpx.com">
  <metadata>
    <name>Lormont, bouliac</name>
  </metadata>
  <trk>
    <name><![CDATA[Lormont, bouliac]]></name>
    <trkseg>
      <trkpt lat="44.83759" lon="-0.5575">
        <ele>3.3489379882812</ele>
        <time>2022-06-05T07:53:13Z</time>
      </trkpt>
      <trkpt lat="44.83753" lon="-0.5574">
        <ele>3.3004068587231</ele>
        <time>2022-06-05T07:53:18Z</time>
      </trkpt>
      <trkpt lat="44.83747" lon="-0.55729">
        <ele>3.3579525614666</ele>
        <time>2022-06-05T07:53:27Z</time>
      </trkpt>
      <trkpt lat="44.8374" lon="-0.55718">
        <ele>3.913929773462</ele>
        <time>2022-06-05T07:53:35Z</time>
      </trkpt>
      <trkpt lat="44.83734" lon="-0.55706">
        <ele>3.9380281675294</ele>
        <time>2022-06-05T07:53:43Z</time>
      </trkpt>
      <trkpt lat="44.83728" lon="-0.55696">
        <ele>3.5</ele>
        <time>2022-06-05T07:53:52Z</time>
      </trkpt>
      <trkpt lat="44.83721" lon="-0.55687">
        <ele>2.6000022888184</ele>
        <time>2022-06-05T07:54:00Z</time>
      </trkpt>
      <trkpt lat="44.83715" lon="-0.55677">
        <ele>2.6000022888184</ele>
        <time>2022-06-05T07:54:06Z</time>
      </trkpt>
      <trkpt lat="44.83708" lon="-0.55668">
        <ele>2.6000022888184</ele>
        <time>2022-06-05T07:54:12Z</time>
      </trkpt>
      <trkpt lat="44.83702" lon="-0.55657">
        <ele>2.9368576179286</ele>
        <time>2022-06-05T07:54:19Z</time>
      </trkpt>
      <trkpt lat="44.83695" lon="-0.55645">
        <ele>2.6000022888184</ele>
        <time>2022-06-05T07:54:28Z</time>
      </trkpt>
      <trkpt lat="44.83689" lon="-0.55635">
        <ele>2.6000022888184</ele>
        <time>2022-06-05T07:54:34Z</time>
      </trkpt>
      <trkpt lat="44.83682" lon="-0.55626">
        <ele>2.6000022888184</ele>
        <time>2022-06-05T07:54:41Z</time>
      </trkpt>
      <trkpt lat="44.83674" lon="-0.55617">
        <ele>2.6000022888184</ele>
        <time>2022-06-05T07:54:50Z</time>
      </trkpt>
      <trkpt lat="44.83667" lon="-0.55607">
        <ele>2.6000022888184</ele>
        <time>2022-06-05T07:54:58Z</time>
      </trkpt>
      <trkpt lat="44.8366" lon="-0.55597">
        <ele>2.6000022888184</ele>
        <time>2022-06-05T07:55:05Z</time>
      </trkpt>
      <trkpt lat="44.83654" lon="-0.55588">
        <ele>2.6000022888184</ele>
        <time>2022-06-05T07:55:12Z</time>
      </trkpt>
      <trkpt lat="44.83647" lon="-0.55578">
        <ele>2.6000022888184</ele>
        <time>2022-06-05T07:55:20Z</time>
      </trkpt>
      <trkpt lat="44.83641" lon="-0.55567">
        <ele>2.6000022888184</ele>
        <time>2022-06-05T07:55:27Z</time>
      </trkpt>
      <trkpt lat="44.83635" lon="-0.55556">
        <ele>2.6000022888184</ele>
        <time>2022-06-05T07:55:35Z</time>
      </trkpt>
      <trkpt lat="44.83628" lon="-0.55545">
        <ele>2.6000022888184</ele>
        <time>2022-06-05T07:55:43Z</time>
      </trkpt>
      <trkpt lat="44.83622" lon="-0.55534">
        <ele>2.6000022888184</ele>
        <time>2022-06-05T07:55:50Z</time>
      </trkpt>
      <trkpt lat="44.83615" lon="-0.55524">
        <ele>2.6000022888184</ele>
        <time>2022-06-05T07:55:58Z</time>
      </trkpt>
      <trkpt lat="44.83608" lon="-0.55514">
        <ele>2.6000022888184</ele>
        <time>2022-06-05T07:56:05Z</time>
      </trkpt>
      <trkpt lat="44.83602" lon="-0.55502">
        <ele>2.6000022888184</ele>
        <time>2022-06-05T07:56:13Z</time>
      </trkpt>
      <trkpt lat="44.83596" lon="-0.55491">
        <ele>2.6000022888184</ele>
        <time>2022-06-05T07:56:21Z</time>
      </trkpt>
      <trkpt lat="44.8359" lon="-0.55481">
        <ele>2.6000022888184</ele>
        <time>2022-06-05T07:56:30Z</time>
      </trkpt>
      <trkpt lat="44.83583" lon="-0.55471">
        <ele>2.6000022888184</ele>
        <time>2022-06-05T07:56:37Z</time>
      </trkpt>
      <trkpt lat="44.83577" lon="-0.55459">
        <ele>2.6000022888184</ele>
        <time>2022-06-05T07:56:45Z</time>
      </trkpt>
      <trkpt lat="44.8357" lon="-0.5545">
        <ele>2.6000022888184</ele>
        <time>2022-06-05T07:56:57Z</time>
      </trkpt>
      <trkpt lat="44.83564" lon="-0.55439">
        <ele>2.6000022888184</ele>
        <time>2022-06-05T07:57:07Z</time>
      </trkpt>
      <trkpt lat="44.83557" lon="-0.55428">
        <ele>2.6000022888184</ele>
        <time>2022-06-05T07:57:14Z</time>
      </trkpt>
      <trkpt lat="44.83551" lon="-0.55417">
        <ele>2.6000022888184</ele>
        <time>2022-06-05T07:57:20Z</time>
      </trkpt>
      <trkpt lat="44.83545" lon="-0.55407">
        <ele>2.5747278504935</ele>
        <time>2022-06-05T07:57:26Z</time>
      </trkpt>
      <trkpt lat="44.83538" lon="-0.55395">
        <ele>2.6636942085564</ele>
        <time>2022-06-05T07:57:32Z</time>
      </trkpt>
      <trkpt lat="44.8353" lon="-0.55385">
        <ele>2.5768241193002</ele>
        <time>2022-06-05T07:57:40Z</time>
      </trkpt>
      <trkpt lat="44.83524" lon="-0.55376">
        <ele>2.4674884813222</ele>
        <time>2022-06-05T07:57:46Z</time>
      </trkpt>
      <trkpt lat="44.83518" lon="-0.55365">
        <ele>2.4253777309121</ele>
        <time>2022-06-05T07:57:54Z</time>
      </trkpt>
      <trkpt lat="44.8351" lon="-0.55354">
        <ele>4.2135009765625</ele>
        <time>2022-06-05T07:58:02Z</time>
      </trkpt>
      <trkpt lat="44.83505" lon="-0.55343">
        <ele>2.5143424717227</ele>
        <time>2022-06-05T07:58:09Z</time>
      </trkpt>
      <trkpt lat="44.83499" lon="-0.55333">
        <ele>2.8194605118543</ele>
        <time>2022-06-05T07:58:17Z</time>
      </trkpt>
      <trkpt lat="44.83493" lon="-0.55323">
        <ele>2.8659666157842</ele>
        <time>2022-06-05T07:58:25Z</time>
      </trkpt>
      <trkpt lat="44.83486" lon="-0.55314">
        <ele>2.6171889500439</ele>
        <time>2022-06-05T07:58:33Z</time>
      </trkpt>
      <trkpt lat="44.83479" lon="-0.55302">
        <ele>2.5908271576941</ele>
        <time>2022-06-05T07:58:41Z</time>
      </trkpt>
      <trkpt lat="44.83473" lon="-0.55291">
        <ele>2.8133215587084</ele>
        <time>2022-06-05T07:58:51Z</time>
      </trkpt>
      <trkpt lat="44.83466" lon="-0.55282">
        <ele>2.4392581490949</ele>
        <time>2022-06-05T07:58:59Z</time>
      </trkpt>
      <trkpt lat="44.83464" lon="-0.55268">
        <ele>2.9084289341274</ele>
        <time>2022-06-05T07:59:08Z</time>
      </trkpt>
      <trkpt lat="44.83459" lon="-0.55256">
        <ele>2.6556063191325</ele>
        <time>2022-06-05T07:59:15Z</time>
      </trkpt>
      <trkpt lat="44.83454" lon="-0.55242">
        <ele>2.6841868496146</ele>
        <time>2022-06-05T07:59:21Z</time>
      </trkpt>
      <trkpt lat="44.83449" lon="-0.55229">
        <ele>2.6518352764414</ele>
        <time>2022-06-05T07:59:30Z</time>
      </trkpt>
      <trkpt lat="44.83445" lon="-0.55216">
        <ele>2.6659890744707</ele>
        <time>2022-06-05T07:59:39Z</time>
      </trkpt>
      <trkpt lat="44.83443" lon="-0.552">
        <ele>2.59292543847</ele>
        <time>2022-06-05T07:59:48Z</time>
      </trkpt>
      <trkpt lat="44.83438" lon="-0.55188">
        <ele>2.7481108206689</ele>
        <time>2022-06-05T07:59:54Z</time>
      </trkpt>
      <trkpt lat="44.83434" lon="-0.55174">
        <ele>2.9111942131981</ele>
        <time>2022-06-05T08:00:00Z</time>
      </trkpt>
      <trkpt lat="44.83429" lon="-0.55162">
        <ele>2.742551535977</ele>
        <time>2022-06-05T08:00:06Z</time>
      </trkpt>
      <trkpt lat="44.8342" lon="-0.55157">
        <ele>2.5708806442017</ele>
        <time>2022-06-05T08:00:13Z</time>
      </trkpt>
      <trkpt lat="44.83411" lon="-0.55152">
        <ele>3.1936808430331</ele>
        <time>2022-06-05T08:00:19Z</time>
      </trkpt>
      <trkpt lat="44.83405" lon="-0.55142">
        <ele>2.8490881570229</ele>
        <time>2022-06-05T08:00:27Z</time>
      </trkpt>
      <trkpt lat="44.83401" lon="-0.5513">
        <ele>5.4000015258789</ele>
        <time>2022-06-05T08:00:34Z</time>
      </trkpt>
      <trkpt lat="44.83395" lon="-0.55118">
        <ele>3.3689412369354</ele>
        <time>2022-06-05T08:00:40Z</time>
      </trkpt>
      <trkpt lat="44.83392" lon="-0.55106">
        <ele>5.4000015258789</ele>
        <time>2022-06-05T08:00:47Z</time>
      </trkpt>
      <trkpt lat="44.83388" lon="-0.55093">
        <ele>3.5873477193761</ele>
        <time>2022-06-05T08:00:55Z</time>
      </trkpt>
      <trkpt lat="44.83385" lon="-0.5508">
        <ele>5.4000015258789</ele>
        <time>2022-06-05T08:01:02Z</time>
      </trkpt>
      <trkpt lat="44.83379" lon="-0.55069">
        <ele>5.4000015258789</ele>
        <time>2022-06-05T08:01:13Z</time>
      </trkpt>
      <trkpt lat="44.83373" lon="-0.55058">
        <ele>2.8000030517578</ele>
        <time>2022-06-05T08:01:24Z</time>
      </trkpt>
      <trkpt lat="44.83367" lon="-0.55047">
        <ele>5.4000015258789</ele>
        <time>2022-06-05T08:01:31Z</time>
      </trkpt>
      <trkpt lat="44.83359" lon="-0.55037">
        <ele>5.4000015258789</ele>
        <time>2022-06-05T08:01:39Z</time>
      </trkpt>
      <trkpt lat="44.83351" lon="-0.55026">
        <ele>2.8000030517578</ele>
        <time>2022-06-05T08:01:45Z</time>
      </trkpt>
      <trkpt lat="44.83344" lon="-0.55016">
        <ele>5.5248664165015</ele>
        <time>2022-06-05T08:01:50Z</time>
      </trkpt>
      <trkpt lat="44.83338" lon="-0.55003">
        <ele>5.4116285430813</ele>
        <time>2022-06-05T08:01:57Z</time>
      </trkpt>
      <trkpt lat="44.83333" lon="-0.54992">
        <ele>2.4000015258789</ele>
        <time>2022-06-05T08:02:03Z</time>
      </trkpt>
      <trkpt lat="44.83328" lon="-0.5498">
        <ele>4.5391411577294</ele>
        <time>2022-06-05T08:02:12Z</time>
      </trkpt>
      <trkpt lat="44.83324" lon="-0.54966">
        <ele>3.5987871069608</ele>
        <time>2022-06-05T08:02:20Z</time>
      </trkpt>
      <trkpt lat="44.8332" lon="-0.54953">
        <ele>7.5602416992188</ele>
        <time>2022-06-05T08:02:28Z</time>
      </trkpt>
      <trkpt lat="44.83315" lon="-0.54942">
        <ele>4.5492505769971</ele>
        <time>2022-06-05T08:02:35Z</time>
      </trkpt>
      <trkpt lat="44.83309" lon="-0.5493">
        <ele>4.8808490870248</ele>
        <time>2022-06-05T08:02:43Z</time>
      </trkpt>
      <trkpt lat="44.83304" lon="-0.54918">
        <ele>4.5492505769971</ele>
        <time>2022-06-05T08:02:51Z</time>
      </trkpt>
      <trkpt lat="44.83299" lon="-0.54905">
        <ele>4.4077198074285</ele>
        <time>2022-06-05T08:02:58Z</time>
      </trkpt>
      <trkpt lat="44.83293" lon="-0.54895">
        <ele>4.4946648372535</ele>
        <time>2022-06-05T08:03:06Z</time>
      </trkpt>
      <trkpt lat="44.83287" lon="-0.54884">
        <ele>2.9000015258789</ele>
        <time>2022-06-05T08:03:13Z</time>
      </trkpt>
      <trkpt lat="44.83281" lon="-0.54874">
        <ele>2.8000030517578</ele>
        <time>2022-06-05T08:03:19Z</time>
      </trkpt>
      <trkpt lat="44.83275" lon="-0.54861">
        <ele>2.8000030517578</ele>
        <time>2022-06-05T08:03:27Z</time>
      </trkpt>
      <trkpt lat="44.8327" lon="-0.54849">
        <ele>2.8000030517578</ele>
        <time>2022-06-05T08:03:35Z</time>
      </trkpt>
      <trkpt lat="44.83264" lon="-0.54839">
        <ele>2.8000030517578</ele>
        <time>2022-06-05T08:03:42Z</time>
      </trkpt>
      <trkpt lat="44.83258" lon="-0.54827">
        <ele>2.8000030517578</ele>
        <time>2022-06-05T08:03:50Z</time>
      </trkpt>
      <trkpt lat="44.83252" lon="-0.54817">
        <ele>2.8000030517578</ele>
        <time>2022-06-05T08:03:57Z</time>
      </trkpt>
      <trkpt lat="44.83245" lon="-0.54806">
        <ele>2.8000030517578</ele>
        <time>2022-06-05T08:04:06Z</time>
      </trkpt>
      <trkpt lat="44.83239" lon="-0.54795">
        <ele>2.9000015258789</ele>
        <time>2022-06-05T08:04:13Z</time>
      </trkpt>
      <trkpt lat="44.83235" lon="-0.54782">
        <ele>2.9000015258789</ele>
        <time>2022-06-05T08:04:20Z</time>
      </trkpt>
      <trkpt lat="44.8323" lon="-0.54771">
        <ele>2.8000030517578</ele>
        <time>2022-06-05T08:04:28Z</time>
      </trkpt>
      <trkpt lat="44.83222" lon="-0.54761">
        <ele>2.9000015258789</ele>
        <time>2022-06-05T08:04:35Z</time>
      </trkpt>
      <trkpt lat="44.83216" lon="-0.5475">
        <ele>2.8000030517578</ele>
        <time>2022-06-05T08:04:43Z</time>
      </trkpt>
      <trkpt lat="44.8321" lon="-0.54739">
        <ele>2.9000015258789</ele>
        <time>2022-06-05T08:04:50Z</time>
      </trkpt>
      <trkpt lat="44.83205" lon="-0.54728">
        <ele>2.8000030517578</ele>
        <time>2022-06-05T08:04:57Z</time>
      </trkpt>
      <trkpt lat="44.83199" lon="-0.54716">
        <ele>2.8000030517578</ele>
        <time>2022-06-05T08:05:05Z</time>
      </trkpt>
      <trkpt lat="44.83195" lon="-0.54704">
        <ele>2.8000030517578</ele>
        <time>2022-06-05T08:05:14Z</time>
      </trkpt>
      <trkpt lat="44.83192" lon="-0.5469">
        <ele>2.8000030517578</ele>
        <time>2022-06-05T08:09:47Z</time>
      </trkpt>
      <trkpt lat="44.83187" lon="-0.54677">
        <ele>2.7000007629395</ele>
        <time>2022-06-05T08:09:55Z</time>
      </trkpt>
      <trkpt lat="44.83182" lon="-0.54664">
        <ele>2.8000030517578</ele>
        <time>2022-06-05T08:10:03Z</time>
      </trkpt>
      <trkpt lat="44.83175" lon="-0.54655">
        <ele>2.7000007629395</ele>
        <time>2022-06-05T08:10:09Z</time>
      </trkpt>
      <trkpt lat="44.83167" lon="-0.54647">
        <ele>2.8000030517578</ele>
        <time>2022-06-05T08:10:15Z</time>
      </trkpt>
      <trkpt lat="44.83161" lon="-0.54638">
        <ele>2.7000007629395</ele>
        <time>2022-06-05T08:10:25Z</time>
      </trkpt>
      <trkpt lat="44.83152" lon="-0.54623">
        <ele>2.7000007629395</ele>
        <time>2022-06-05T08:10:35Z</time>
      </trkpt>
      <trkpt lat="44.83149" lon="-0.5461">
        <ele>2.7000007629395</ele>
        <time>2022-06-05T08:10:42Z</time>
      </trkpt>
      <trkpt lat="44.83141" lon="-0.54601">
        <ele>2.8000030517578</ele>
        <time>2022-06-05T08:10:48Z</time>
      </trkpt>
      <trkpt lat="44.83134" lon="-0.54592">
        <ele>2.7000007629395</ele>
        <time>2022-06-05T08:10:56Z</time>
      </trkpt>
      <trkpt lat="44.83126" lon="-0.54583">
        <ele>2.7000007629395</ele>
        <time>2022-06-05T08:11:02Z</time>
      </trkpt>
      <trkpt lat="44.83121" lon="-0.54572">
        <ele>2.7000007629395</ele>
        <time>2022-06-05T08:11:09Z</time>
      </trkpt>
      <trkpt lat="44.83118" lon="-0.54559">
        <ele>2.7000007629395</ele>
        <time>2022-06-05T08:11:16Z</time>
      </trkpt>
      <trkpt lat="44.83111" lon="-0.54549">
        <ele>2.7000007629395</ele>
        <time>2022-06-05T08:11:23Z</time>
      </trkpt>
      <trkpt lat="44.83105" lon="-0.54539">
        <ele>2.7000007629395</ele>
        <time>2022-06-05T08:11:29Z</time>
      </trkpt>
      <trkpt lat="44.831" lon="-0.54525">
        <ele>2.8000030517578</ele>
        <time>2022-06-05T08:11:38Z</time>
      </trkpt>
      <trkpt lat="44.83095" lon="-0.54514">
        <ele>2.8000030517578</ele>
        <time>2022-06-05T08:11:46Z</time>
      </trkpt>
      <trkpt lat="44.83089" lon="-0.54503">
        <ele>2.7000007629395</ele>
        <time>2022-06-05T08:11:53Z</time>
      </trkpt>
      <trkpt lat="44.83084" lon="-0.54492">
        <ele>2.6000022888184</ele>
        <time>2022-06-05T08:12:01Z</time>
      </trkpt>
      <trkpt lat="44.83078" lon="-0.54481">
        <ele>2.6000022888184</ele>
        <time>2022-06-05T08:12:08Z</time>
      </trkpt>
      <trkpt lat="44.83072" lon="-0.54471">
        <ele>2.6000022888184</ele>
        <time>2022-06-05T08:12:15Z</time>
      </trkpt>
      <trkpt lat="44.83065" lon="-0.54458">
        <ele>2.6000022888184</ele>
        <time>2022-06-05T08:12:22Z</time>
      </trkpt>
      <trkpt lat="44.83057" lon="-0.54448">
        <ele>2.6000022888184</ele>
        <time>2022-06-05T08:12:30Z</time>
      </trkpt>
      <trkpt lat="44.83051" lon="-0.54437">
        <ele>2</ele>
        <time>2022-06-05T08:12:38Z</time>
      </trkpt>
      <trkpt lat="44.83045" lon="-0.54427">
        <ele>2.8000030517578</ele>
        <time>2022-06-05T08:12:46Z</time>
      </trkpt>
      <trkpt lat="44.83041" lon="-0.54414">
        <ele>2.8000030517578</ele>
        <time>2022-06-05T08:12:51Z</time>
      </trkpt>
      <trkpt lat="44.83037" lon="-0.54401">
        <ele>2.8000030517578</ele>
        <time>2022-06-05T08:12:58Z</time>
      </trkpt>
      <trkpt lat="44.83031" lon="-0.54389">
        <ele>2.8000030517578</ele>
        <time>2022-06-05T08:13:06Z</time>
      </trkpt>
      <trkpt lat="44.83025" lon="-0.54377">
        <ele>2.8000030517578</ele>
        <time>2022-06-05T08:13:14Z</time>
      </trkpt>
      <trkpt lat="44.83018" lon="-0.54366">
        <ele>2.8000030517578</ele>
        <time>2022-06-05T08:13:22Z</time>
      </trkpt>
      <trkpt lat="44.83012" lon="-0.54355">
        <ele>2.7000007629395</ele>
        <time>2022-06-05T08:13:29Z</time>
      </trkpt>
      <trkpt lat="44.83004" lon="-0.54346">
        <ele>2.8000030517578</ele>
        <time>2022-06-05T08:13:36Z</time>
      </trkpt>
      <trkpt lat="44.82999" lon="-0.54334">
        <ele>2.7000007629395</ele>
        <time>2022-06-05T08:13:45Z</time>
      </trkpt>
      <trkpt lat="44.82992" lon="-0.54325">
        <ele>2.8000030517578</ele>
        <time>2022-06-05T08:13:53Z</time>
      </trkpt>
      <trkpt lat="44.82989" lon="-0.54313">
        <ele>2.7000007629395</ele>
        <time>2022-06-05T08:14:00Z</time>
      </trkpt>
      <trkpt lat="44.82985" lon="-0.543">
        <ele>2.7000007629395</ele>
        <time>2022-06-05T08:14:09Z</time>
      </trkpt>
      <trkpt lat="44.82977" lon="-0.5429">
        <ele>2.7000007629395</ele>
        <time>2022-06-05T08:14:19Z</time>
      </trkpt>
      <trkpt lat="44.82973" lon="-0.54277">
        <ele>2.7000007629395</ele>
        <time>2022-06-05T08:14:26Z</time>
      </trkpt>
      <trkpt lat="44.82967" lon="-0.54266">
        <ele>2.7000007629395</ele>
        <time>2022-06-05T08:14:34Z</time>
      </trkpt>
      <trkpt lat="44.82962" lon="-0.54254">
        <ele>2.9000015258789</ele>
        <time>2022-06-05T08:14:41Z</time>
      </trkpt>
      <trkpt lat="44.82952" lon="-0.54241">
        <ele>2.9000015258789</ele>
        <time>2022-06-05T08:14:56Z</time>
      </trkpt>
      <trkpt lat="44.82947" lon="-0.54229">
        <ele>2.9000015258789</ele>
        <time>2022-06-05T08:15:03Z</time>
      </trkpt>
      <trkpt lat="44.8294" lon="-0.54218">
        <ele>2.9000015258789</ele>
        <time>2022-06-05T08:15:11Z</time>
      </trkpt>
      <trkpt lat="44.82933" lon="-0.54208">
        <ele>2.9000015258789</ele>
        <time>2022-06-05T08:15:19Z</time>
      </trkpt>
      <trkpt lat="44.82926" lon="-0.54198">
        <ele>2.9000015258789</ele>
        <time>2022-06-05T08:15:27Z</time>
      </trkpt>
      <trkpt lat="44.82921" lon="-0.54187">
        <ele>2.9000015258789</ele>
        <time>2022-06-05T08:15:34Z</time>
      </trkpt>
      <trkpt lat="44.82916" lon="-0.54176">
        <ele>2.9000015258789</ele>
        <time>2022-06-05T08:15:43Z</time>
      </trkpt>
      <trkpt lat="44.8291" lon="-0.54164">
        <ele>2.9000015258789</ele>
        <time>2022-06-05T08:15:52Z</time>
      </trkpt>
      <trkpt lat="44.82904" lon="-0.54153">
        <ele>2.9000015258789</ele>
        <time>2022-06-05T08:15:59Z</time>
      </trkpt>
      <trkpt lat="44.82899" lon="-0.54142">
        <ele>2.9000015258789</ele>
        <time>2022-06-05T08:16:06Z</time>
      </trkpt>
      <trkpt lat="44.82893" lon="-0.54132">
        <ele>2.9000015258789</ele>
        <time>2022-06-05T08:16:14Z</time>
      </trkpt>
      <trkpt lat="44.82888" lon="-0.54119">
        <ele>2.9000015258789</ele>
        <time>2022-06-05T08:16:21Z</time>
      </trkpt>
      <trkpt lat="44.82882" lon="-0.5411">
        <ele>2.9000015258789</ele>
        <time>2022-06-05T08:16:29Z</time>
      </trkpt>
      <trkpt lat="44.82874" lon="-0.54101">
        <ele>2.9000015258789</ele>
        <time>2022-06-05T08:16:37Z</time>
      </trkpt>
      <trkpt lat="44.82867" lon="-0.54091">
        <ele>2.9000015258789</ele>
        <time>2022-06-05T08:16:46Z</time>
      </trkpt>
      <trkpt lat="44.82859" lon="-0.54083">
        <ele>2.9000015258789</ele>
        <time>2022-06-05T08:16:55Z</time>
      </trkpt>
      <trkpt lat="44.82855" lon="-0.54071">
        <ele>2.9000015258789</ele>
        <time>2022-06-05T08:17:03Z</time>
      </trkpt>
      <trkpt lat="44.82849" lon="-0.54059">
        <ele>2.9000015258789</ele>
        <time>2022-06-05T08:17:11Z</time>
      </trkpt>
      <trkpt lat="44.82842" lon="-0.54049">
        <ele>2.9000015258789</ele>
        <time>2022-06-05T08:17:17Z</time>
      </trkpt>
      <trkpt lat="44.82835" lon="-0.54039">
        <ele>2.9000015258789</ele>
        <time>2022-06-05T08:17:26Z</time>
      </trkpt>
      <trkpt lat="44.82827" lon="-0.54028">
        <ele>2.9000015258789</ele>
        <time>2022-06-05T08:17:34Z</time>
      </trkpt>
      <trkpt lat="44.82822" lon="-0.54017">
        <ele>2.9000015258789</ele>
        <time>2022-06-05T08:17:41Z</time>
      </trkpt>
      <trkpt lat="44.82814" lon="-0.5401">
        <ele>2.9000015258789</ele>
        <time>2022-06-05T08:17:52Z</time>
      </trkpt>
      <trkpt lat="44.82808" lon="-0.53999">
        <ele>3.4000015258789</ele>
        <time>2022-06-05T08:18:01Z</time>
      </trkpt>
      <trkpt lat="44.82804" lon="-0.53987">
        <ele>3.4000015258789</ele>
        <time>2022-06-05T08:18:08Z</time>
      </trkpt>
      <trkpt lat="44.82798" lon="-0.53978">
        <ele>3.4000015258789</ele>
        <time>2022-06-05T08:18:15Z</time>
      </trkpt>
      <trkpt lat="44.82792" lon="-0.53967">
        <ele>2.9000015258789</ele>
        <time>2022-06-05T08:18:22Z</time>
      </trkpt>
      <trkpt lat="44.82785" lon="-0.53958">
        <ele>3.4000015258789</ele>
        <time>2022-06-05T08:18:29Z</time>
      </trkpt>
      <trkpt lat="44.82776" lon="-0.53944">
        <ele>2.9000015258789</ele>
        <time>2022-06-05T08:18:52Z</time>
      </trkpt>
      <trkpt lat="44.82773" lon="-0.5393">
        <ele>2.9000015258789</ele>
        <time>2022-06-05T08:18:58Z</time>
      </trkpt>
      <trkpt lat="44.82765" lon="-0.53919">
        <ele>2.9000015258789</ele>
        <time>2022-06-05T08:19:04Z</time>
      </trkpt>
      <trkpt lat="44.82758" lon="-0.53908">
        <ele>2.9000015258789</ele>
        <time>2022-06-05T08:19:10Z</time>
      </trkpt>
      <trkpt lat="44.82752" lon="-0.53897">
        <ele>2.9000015258789</ele>
        <time>2022-06-05T08:19:17Z</time>
      </trkpt>
      <trkpt lat="44.82746" lon="-0.53886">
        <ele>2.9000015258789</ele>
        <time>2022-06-05T08:19:24Z</time>
      </trkpt>
      <trkpt lat="44.82738" lon="-0.53877">
        <ele>2.9000015258789</ele>
        <time>2022-06-05T08:19:30Z</time>
      </trkpt>
      <trkpt lat="44.82732" lon="-0.53864">
        <ele>2.9000015258789</ele>
        <time>2022-06-05T08:19:38Z</time>
      </trkpt>
      <trkpt lat="44.82727" lon="-0.53853">
        <ele>2.9000015258789</ele>
        <time>2022-06-05T08:19:46Z</time>
      </trkpt>
      <trkpt lat="44.82722" lon="-0.53842">
        <ele>2.9000015258789</ele>
        <time>2022-06-05T08:19:53Z</time>
      </trkpt>
      <trkpt lat="44.82713" lon="-0.53835">
        <ele>2.9000015258789</ele>
        <time>2022-06-05T08:20:01Z</time>
      </trkpt>
      <trkpt lat="44.82705" lon="-0.53826">
        <ele>2.9000015258789</ele>
        <time>2022-06-05T08:20:08Z</time>
      </trkpt>
      <trkpt lat="44.82697" lon="-0.53817">
        <ele>2.9000015258789</ele>
        <time>2022-06-05T08:20:16Z</time>
      </trkpt>
      <trkpt lat="44.82691" lon="-0.53807">
        <ele>2.9000015258789</ele>
        <time>2022-06-05T08:20:24Z</time>
      </trkpt>
      <trkpt lat="44.82684" lon="-0.53796">
        <ele>3.6000022888184</ele>
        <time>2022-06-05T08:20:32Z</time>
      </trkpt>
      <trkpt lat="44.82679" lon="-0.53784">
        <ele>2.9000015258789</ele>
        <time>2022-06-05T08:20:39Z</time>
      </trkpt>
      <trkpt lat="44.82672" lon="-0.53774">
        <ele>3.6000022888184</ele>
        <time>2022-06-05T08:20:46Z</time>
      </trkpt>
      <trkpt lat="44.82666" lon="-0.53763">
        <ele>3.6000022888184</ele>
        <time>2022-06-05T08:20:52Z</time>
      </trkpt>
      <trkpt lat="44.82659" lon="-0.53753">
        <ele>3.6000022888184</ele>
        <time>2022-06-05T08:20:57Z</time>
      </trkpt>
      <trkpt lat="44.82652" lon="-0.53747">
        <ele>3.6000022888184</ele>
        <time>2022-06-05T08:21:06Z</time>
      </trkpt>
      <trkpt lat="44.82644" lon="-0.53737">
        <ele>3.362964455238</ele>
        <time>2022-06-05T08:21:14Z</time>
      </trkpt>
      <trkpt lat="44.82637" lon="-0.53729">
        <ele>3.6000022888184</ele>
        <time>2022-06-05T08:21:21Z</time>
      </trkpt>
      <trkpt lat="44.82629" lon="-0.53719">
        <ele>3.6000022888184</ele>
        <time>2022-06-05T08:21:29Z</time>
      </trkpt>
      <trkpt lat="44.82622" lon="-0.53707">
        <ele>2.8000030517578</ele>
        <time>2022-06-05T08:21:37Z</time>
      </trkpt>
      <trkpt lat="44.82616" lon="-0.53697">
        <ele>3</ele>
        <time>2022-06-05T08:21:45Z</time>
      </trkpt>
      <trkpt lat="44.82608" lon="-0.53688">
        <ele>2.9000015258789</ele>
        <time>2022-06-05T08:21:53Z</time>
      </trkpt>
      <trkpt lat="44.82601" lon="-0.5368">
        <ele>2.9000015258789</ele>
        <time>2022-06-05T08:22:00Z</time>
      </trkpt>
      <trkpt lat="44.82593" lon="-0.53671">
        <ele>2.8000030517578</ele>
        <time>2022-06-05T08:22:07Z</time>
      </trkpt>
      <trkpt lat="44.82587" lon="-0.5366">
        <ele>3</ele>
        <time>2022-06-05T08:22:16Z</time>
      </trkpt>
      <trkpt lat="44.82582" lon="-0.53649">
        <ele>2.9000015258789</ele>
        <time>2022-06-05T08:22:23Z</time>
      </trkpt>
      <trkpt lat="44.82576" lon="-0.53638">
        <ele>2.9000015258789</ele>
        <time>2022-06-05T08:22:30Z</time>
      </trkpt>
      <trkpt lat="44.82572" lon="-0.53626">
        <ele>2.8000030517578</ele>
        <time>2022-06-05T08:22:38Z</time>
      </trkpt>
      <trkpt lat="44.82563" lon="-0.53619">
        <ele>3</ele>
        <time>2022-06-05T08:22:45Z</time>
      </trkpt>
      <trkpt lat="44.82553" lon="-0.53622">
        <ele>2.9000015258789</ele>
        <time>2022-06-05T08:22:50Z</time>
      </trkpt>
      <trkpt lat="44.82545" lon="-0.53614">
        <ele>2.9000015258789</ele>
        <time>2022-06-05T08:22:56Z</time>
      </trkpt>
      <trkpt lat="44.82546" lon="-0.53599">
        <ele>2.3000030517578</ele>
        <time>2022-06-05T08:23:03Z</time>
      </trkpt>
      <trkpt lat="44.82553" lon="-0.53588">
        <ele>2.5</ele>
        <time>2022-06-05T08:23:08Z</time>
      </trkpt>
      <trkpt lat="44.82561" lon="-0.53578">
        <ele>1.2000007629395</ele>
        <time>2022-06-05T08:23:14Z</time>
      </trkpt>
      <trkpt lat="44.82568" lon="-0.53569">
        <ele>2.7000007629395</ele>
        <time>2022-06-05T08:23:21Z</time>
      </trkpt>
      <trkpt lat="44.82576" lon="-0.53559">
        <ele>2.5</ele>
        <time>2022-06-05T08:23:30Z</time>
      </trkpt>
      <trkpt lat="44.82568" lon="-0.5355">
        <ele>2.7000007629395</ele>
        <time>2022-06-05T08:23:37Z</time>
      </trkpt>
      <trkpt lat="44.82559" lon="-0.53547">
        <ele>2.7000007629395</ele>
        <time>2022-06-05T08:24:40Z</time>
      </trkpt>
      <trkpt lat="44.82561" lon="-0.53533">
        <ele>2.7000007629395</ele>
        <time>2022-06-05T08:24:48Z</time>
      </trkpt>
      <trkpt lat="44.8256" lon="-0.53518">
        <ele>1.2000007629395</ele>
        <time>2022-06-05T08:24:56Z</time>
      </trkpt>
      <trkpt lat="44.82561" lon="-0.53505">
        <ele>2.8000030517578</ele>
        <time>2022-06-05T08:25:08Z</time>
      </trkpt>
      <trkpt lat="44.82561" lon="-0.53492">
        <ele>2.8000030517578</ele>
        <time>2022-06-05T08:25:15Z</time>
      </trkpt>
      <trkpt lat="44.82562" lon="-0.53478">
        <ele>3.5</ele>
        <time>2022-06-05T08:25:22Z</time>
      </trkpt>
      <trkpt lat="44.82564" lon="-0.53464">
        <ele>2.8000030517578</ele>
        <time>2022-06-05T08:25:34Z</time>
      </trkpt>
      <trkpt lat="44.82567" lon="-0.53448">
        <ele>2.8000030517578</ele>
        <time>2022-06-05T08:25:39Z</time>
      </trkpt>
      <trkpt lat="44.82567" lon="-0.53434">
        <ele>2.6000022888184</ele>
        <time>2022-06-05T08:25:45Z</time>
      </trkpt>
      <trkpt lat="44.82563" lon="-0.53422">
        <ele>3.3000030517578</ele>
        <time>2022-06-05T08:25:51Z</time>
      </trkpt>
      <trkpt lat="44.82554" lon="-0.53414">
        <ele>3.3000030517578</ele>
        <time>2022-06-05T08:25:58Z</time>
      </trkpt>
      <trkpt lat="44.82546" lon="-0.53404">
        <ele>3.2000007629395</ele>
        <time>2022-06-05T08:26:06Z</time>
      </trkpt>
      <trkpt lat="44.82538" lon="-0.53396">
        <ele>2.4000015258789</ele>
        <time>2022-06-05T08:26:14Z</time>
      </trkpt>
      <trkpt lat="44.82531" lon="-0.53386">
        <ele>2.5</ele>
        <time>2022-06-05T08:26:20Z</time>
      </trkpt>
      <trkpt lat="44.82524" lon="-0.53377">
        <ele>3.3000030517578</ele>
        <time>2022-06-05T08:26:32Z</time>
      </trkpt>
      <trkpt lat="44.82516" lon="-0.53367">
        <ele>2.8000030517578</ele>
        <time>2022-06-05T08:26:39Z</time>
      </trkpt>
      <trkpt lat="44.8251" lon="-0.53357">
        <ele>2.4000015258789</ele>
        <time>2022-06-05T08:26:45Z</time>
      </trkpt>
      <trkpt lat="44.82502" lon="-0.53348">
        <ele>2.5</ele>
        <time>2022-06-05T08:26:52Z</time>
      </trkpt>
      <trkpt lat="44.82494" lon="-0.5334">
        <ele>5.8000030517578</ele>
        <time>2022-06-05T08:26:58Z</time>
      </trkpt>
      <trkpt lat="44.82485" lon="-0.53332">
        <ele>5.8000030517578</ele>
        <time>2022-06-05T08:27:06Z</time>
      </trkpt>
      <trkpt lat="44.82478" lon="-0.53325">
        <ele>3.3000030517578</ele>
        <time>2022-06-05T08:27:13Z</time>
      </trkpt>
      <trkpt lat="44.82469" lon="-0.53318">
        <ele>2.5</ele>
        <time>2022-06-05T08:27:22Z</time>
      </trkpt>
      <trkpt lat="44.82462" lon="-0.53309">
        <ele>4.1000022888184</ele>
        <time>2022-06-05T08:27:28Z</time>
      </trkpt>
      <trkpt lat="44.82455" lon="-0.53301">
        <ele>2.8000030517578</ele>
        <time>2022-06-05T08:27:35Z</time>
      </trkpt>
      <trkpt lat="44.82447" lon="-0.53294">
        <ele>3.3000030517578</ele>
        <time>2022-06-05T08:27:43Z</time>
      </trkpt>
      <trkpt lat="44.82438" lon="-0.53289">
        <ele>3.3000030517578</ele>
        <time>2022-06-05T08:27:50Z</time>
      </trkpt>
      <trkpt lat="44.8243" lon="-0.53282">
        <ele>4.1000022888184</ele>
        <time>2022-06-05T08:27:57Z</time>
      </trkpt>
      <trkpt lat="44.82421" lon="-0.53277">
        <ele>4.1000022888184</ele>
        <time>2022-06-05T08:28:03Z</time>
      </trkpt>
      <trkpt lat="44.82412" lon="-0.53272">
        <ele>4.1000022888184</ele>
        <time>2022-06-05T08:28:11Z</time>
      </trkpt>
      <trkpt lat="44.82405" lon="-0.53265">
        <ele>4.1000022888184</ele>
        <time>2022-06-05T08:28:20Z</time>
      </trkpt>
      <trkpt lat="44.82396" lon="-0.53258">
        <ele>4.1000022888184</ele>
        <time>2022-06-05T08:28:27Z</time>
      </trkpt>
      <trkpt lat="44.82387" lon="-0.53256">
        <ele>4</ele>
        <time>2022-06-05T08:28:34Z</time>
      </trkpt>
      <trkpt lat="44.82377" lon="-0.53256">
        <ele>4</ele>
        <time>2022-06-05T08:28:41Z</time>
      </trkpt>
      <trkpt lat="44.82368" lon="-0.53251">
        <ele>4</ele>
        <time>2022-06-05T08:28:50Z</time>
      </trkpt>
      <trkpt lat="44.82359" lon="-0.53245">
        <ele>4.1000022888184</ele>
        <time>2022-06-05T08:28:57Z</time>
      </trkpt>
      <trkpt lat="44.8235" lon="-0.53243">
        <ele>4</ele>
        <time>2022-06-05T08:29:05Z</time>
      </trkpt>
      <trkpt lat="44.82341" lon="-0.53246">
        <ele>4</ele>
        <time>2022-06-05T08:29:14Z</time>
      </trkpt>
      <trkpt lat="44.82332" lon="-0.53251">
        <ele>4</ele>
        <time>2022-06-05T08:29:21Z</time>
      </trkpt>
      <trkpt lat="44.82323" lon="-0.53257">
        <ele>4</ele>
        <time>2022-06-05T08:29:28Z</time>
      </trkpt>
      <trkpt lat="44.82315" lon="-0.53263">
        <ele>4</ele>
        <time>2022-06-05T08:29:34Z</time>
      </trkpt>
      <trkpt lat="44.82306" lon="-0.53269">
        <ele>4</ele>
        <time>2022-06-05T08:29:41Z</time>
      </trkpt>
      <trkpt lat="44.82295" lon="-0.53274">
        <ele>4</ele>
        <time>2022-06-05T08:29:51Z</time>
      </trkpt>
      <trkpt lat="44.82287" lon="-0.53282">
        <ele>4</ele>
        <time>2022-06-05T08:29:59Z</time>
      </trkpt>
      <trkpt lat="44.82278" lon="-0.5329">
        <ele>4</ele>
        <time>2022-06-05T08:30:06Z</time>
      </trkpt>
      <trkpt lat="44.8227" lon="-0.53296">
        <ele>4</ele>
        <time>2022-06-05T08:30:14Z</time>
      </trkpt>
      <trkpt lat="44.82261" lon="-0.53303">
        <ele>4</ele>
        <time>2022-06-05T08:30:22Z</time>
      </trkpt>
      <trkpt lat="44.82251" lon="-0.53305">
        <ele>4</ele>
        <time>2022-06-05T08:30:30Z</time>
      </trkpt>
      <trkpt lat="44.82241" lon="-0.53303">
        <ele>4</ele>
        <time>2022-06-05T08:30:40Z</time>
      </trkpt>
      <trkpt lat="44.82232" lon="-0.53298">
        <ele>4</ele>
        <time>2022-06-05T08:30:47Z</time>
      </trkpt>
      <trkpt lat="44.82222" lon="-0.53293">
        <ele>4</ele>
        <time>2022-06-05T08:30:54Z</time>
      </trkpt>
      <trkpt lat="44.82213" lon="-0.53287">
        <ele>3.9846573809312</ele>
        <time>2022-06-05T08:31:01Z</time>
      </trkpt>
      <trkpt lat="44.82203" lon="-0.53281">
        <ele>3.6631882956701</ele>
        <time>2022-06-05T08:31:09Z</time>
      </trkpt>
      <trkpt lat="44.82193" lon="-0.53273">
        <ele>4.0372219781286</ele>
        <time>2022-06-05T08:31:17Z</time>
      </trkpt>
      <trkpt lat="44.82184" lon="-0.53267">
        <ele>4.1484244809043</ele>
        <time>2022-06-05T08:31:25Z</time>
      </trkpt>
      <trkpt lat="44.82176" lon="-0.53261">
        <ele>4.1702379494505</ele>
        <time>2022-06-05T08:31:32Z</time>
      </trkpt>
      <trkpt lat="44.82167" lon="-0.53255">
        <ele>3.8089061880212</ele>
        <time>2022-06-05T08:31:40Z</time>
      </trkpt>
      <trkpt lat="44.82157" lon="-0.53253">
        <ele>4.0432875640411</ele>
        <time>2022-06-05T08:31:47Z</time>
      </trkpt>
      <trkpt lat="44.82147" lon="-0.5325">
        <ele>4.1767358301757</ele>
        <time>2022-06-05T08:31:55Z</time>
      </trkpt>
      <trkpt lat="44.82139" lon="-0.53244">
        <ele>4.1419313300731</ele>
        <time>2022-06-05T08:32:01Z</time>
      </trkpt>
      <trkpt lat="44.82131" lon="-0.53234">
        <ele>3.9807641678152</ele>
        <time>2022-06-05T08:32:08Z</time>
      </trkpt>
      <trkpt lat="44.82123" lon="-0.53227">
        <ele>4.482673589308</ele>
        <time>2022-06-05T08:32:16Z</time>
      </trkpt>
      <trkpt lat="44.82113" lon="-0.53221">
        <ele>4.3410775445932</ele>
        <time>2022-06-05T08:32:24Z</time>
      </trkpt>
      <trkpt lat="44.82104" lon="-0.53217">
        <ele>4.187835504634</ele>
        <time>2022-06-05T08:32:31Z</time>
      </trkpt>
      <trkpt lat="44.82094" lon="-0.53211">
        <ele>4.2289305296448</ele>
        <time>2022-06-05T08:32:39Z</time>
      </trkpt>
      <trkpt lat="44.82086" lon="-0.53204">
        <ele>4.6666708621673</ele>
        <time>2022-06-05T08:32:47Z</time>
      </trkpt>
      <trkpt lat="44.82077" lon="-0.53198">
        <ele>4.4572302330453</ele>
        <time>2022-06-05T08:32:53Z</time>
      </trkpt>
      <trkpt lat="44.82067" lon="-0.53194">
        <ele>4.178483648743</ele>
        <time>2022-06-05T08:33:01Z</time>
      </trkpt>
      <trkpt lat="44.82058" lon="-0.53187">
        <ele>4.5068832986827</ele>
        <time>2022-06-05T08:33:08Z</time>
      </trkpt>
      <trkpt lat="44.82049" lon="-0.53181">
        <ele>4.4179870138848</ele>
        <time>2022-06-05T08:33:16Z</time>
      </trkpt>
      <trkpt lat="44.8204" lon="-0.53176">
        <ele>3.9158981752827</ele>
        <time>2022-06-05T08:33:24Z</time>
      </trkpt>
      <trkpt lat="44.82031" lon="-0.53171">
        <ele>3.7548721316338</ele>
        <time>2022-06-05T08:33:32Z</time>
      </trkpt>
      <trkpt lat="44.82022" lon="-0.53165">
        <ele>4.3147280313196</ele>
        <time>2022-06-05T08:33:40Z</time>
      </trkpt>
      <trkpt lat="44.82013" lon="-0.53159">
        <ele>4.3399612586101</ele>
        <time>2022-06-05T08:33:47Z</time>
      </trkpt>
      <trkpt lat="44.82004" lon="-0.53153">
        <ele>3.4000015258789</ele>
        <time>2022-06-05T08:33:54Z</time>
      </trkpt>
      <trkpt lat="44.81994" lon="-0.53145">
        <ele>4.0904962819559</ele>
        <time>2022-06-05T08:34:03Z</time>
      </trkpt>
      <trkpt lat="44.81985" lon="-0.53142">
        <ele>7</ele>
        <time>2022-06-05T08:34:10Z</time>
      </trkpt>
      <trkpt lat="44.81976" lon="-0.53134">
        <ele>7</ele>
        <time>2022-06-05T08:34:18Z</time>
      </trkpt>
      <trkpt lat="44.81967" lon="-0.53128">
        <ele>3.4000015258789</ele>
        <time>2022-06-05T08:34:25Z</time>
      </trkpt>
      <trkpt lat="44.81958" lon="-0.53122">
        <ele>3.5</ele>
        <time>2022-06-05T08:34:34Z</time>
      </trkpt>
      <trkpt lat="44.81949" lon="-0.53117">
        <ele>3.5</ele>
        <time>2022-06-05T08:34:42Z</time>
      </trkpt>
      <trkpt lat="44.81939" lon="-0.53108">
        <ele>3.5</ele>
        <time>2022-06-05T08:34:49Z</time>
      </trkpt>
      <trkpt lat="44.81931" lon="-0.53101">
        <ele>3.5</ele>
        <time>2022-06-05T08:34:55Z</time>
      </trkpt>
      <trkpt lat="44.81921" lon="-0.53092">
        <ele>3.5</ele>
        <time>2022-06-05T08:35:04Z</time>
      </trkpt>
      <trkpt lat="44.81912" lon="-0.53089">
        <ele>3.5</ele>
        <time>2022-06-05T08:35:13Z</time>
      </trkpt>
      <trkpt lat="44.81903" lon="-0.53081">
        <ele>3.5</ele>
        <time>2022-06-05T08:35:21Z</time>
      </trkpt>
      <trkpt lat="44.81895" lon="-0.53073">
        <ele>5.7959594726562</ele>
        <time>2022-06-05T08:35:28Z</time>
      </trkpt>
      <trkpt lat="44.81886" lon="-0.53068">
        <ele>3.5</ele>
        <time>2022-06-05T08:35:36Z</time>
      </trkpt>
      <trkpt lat="44.81877" lon="-0.53063">
        <ele>3.5</ele>
        <time>2022-06-05T08:35:44Z</time>
      </trkpt>
      <trkpt lat="44.81867" lon="-0.53061">
        <ele>3.5</ele>
        <time>2022-06-05T08:35:52Z</time>
      </trkpt>
      <trkpt lat="44.81858" lon="-0.53056">
        <ele>3.5</ele>
        <time>2022-06-05T08:36:00Z</time>
      </trkpt>
      <trkpt lat="44.81849" lon="-0.53051">
        <ele>3.5</ele>
        <time>2022-06-05T08:36:09Z</time>
      </trkpt>
      <trkpt lat="44.81838" lon="-0.53044">
        <ele>3.5</ele>
        <time>2022-06-05T08:36:17Z</time>
      </trkpt>
      <trkpt lat="44.81829" lon="-0.53037">
        <ele>3.5</ele>
        <time>2022-06-05T08:36:24Z</time>
      </trkpt>
      <trkpt lat="44.8182" lon="-0.53032">
        <ele>6.58251953125</ele>
        <time>2022-06-05T08:36:31Z</time>
      </trkpt>
      <trkpt lat="44.81811" lon="-0.53025">
        <ele>3.5</ele>
        <time>2022-06-05T08:36:39Z</time>
      </trkpt>
      <trkpt lat="44.81803" lon="-0.53018">
        <ele>6.2659301757812</ele>
        <time>2022-06-05T08:36:45Z</time>
      </trkpt>
      <trkpt lat="44.81794" lon="-0.53012">
        <ele>3.5</ele>
        <time>2022-06-05T08:36:51Z</time>
      </trkpt>
      <trkpt lat="44.81786" lon="-0.53008">
        <ele>3.4591064453125</ele>
        <time>2022-06-05T08:36:56Z</time>
      </trkpt>
      <trkpt lat="44.81776" lon="-0.52999">
        <ele>4.1000022888184</ele>
        <time>2022-06-05T08:37:03Z</time>
      </trkpt>
      <trkpt lat="44.81766" lon="-0.52997">
        <ele>4.1000022888184</ele>
        <time>2022-06-05T08:37:11Z</time>
      </trkpt>
      <trkpt lat="44.81757" lon="-0.52992">
        <ele>3.5</ele>
        <time>2022-06-05T08:37:19Z</time>
      </trkpt>
      <trkpt lat="44.8175" lon="-0.52982">
        <ele>4.1000022888184</ele>
        <time>2022-06-05T08:37:27Z</time>
      </trkpt>
      <trkpt lat="44.81741" lon="-0.52976">
        <ele>4</ele>
        <time>2022-06-05T08:37:33Z</time>
      </trkpt>
      <trkpt lat="44.81733" lon="-0.5297">
        <ele>4</ele>
        <time>2022-06-05T08:37:40Z</time>
      </trkpt>
      <trkpt lat="44.81724" lon="-0.52963">
        <ele>4.1000022888184</ele>
        <time>2022-06-05T08:37:48Z</time>
      </trkpt>
      <trkpt lat="44.81715" lon="-0.52959">
        <ele>4.1000022888184</ele>
        <time>2022-06-05T08:37:55Z</time>
      </trkpt>
      <trkpt lat="44.81706" lon="-0.52955">
        <ele>4.1000022888184</ele>
        <time>2022-06-05T08:38:01Z</time>
      </trkpt>
      <trkpt lat="44.81697" lon="-0.52947">
        <ele>4.1000022888184</ele>
        <time>2022-06-05T08:38:09Z</time>
      </trkpt>
      <trkpt lat="44.81687" lon="-0.52943">
        <ele>4</ele>
        <time>2022-06-05T08:38:18Z</time>
      </trkpt>
      <trkpt lat="44.81677" lon="-0.52942">
        <ele>4</ele>
        <time>2022-06-05T08:38:26Z</time>
      </trkpt>
      <trkpt lat="44.81668" lon="-0.52938">
        <ele>3.4000015258789</ele>
        <time>2022-06-05T08:38:32Z</time>
      </trkpt>
      <trkpt lat="44.8166" lon="-0.52931">
        <ele>4</ele>
        <time>2022-06-05T08:38:39Z</time>
      </trkpt>
      <trkpt lat="44.81652" lon="-0.52924">
        <ele>4</ele>
        <time>2022-06-05T08:38:55Z</time>
      </trkpt>
      <trkpt lat="44.81645" lon="-0.52916">
        <ele>4.1000022888184</ele>
        <time>2022-06-05T08:39:03Z</time>
      </trkpt>
      <trkpt lat="44.81636" lon="-0.52909">
        <ele>4</ele>
        <time>2022-06-05T08:39:11Z</time>
      </trkpt>
      <trkpt lat="44.81626" lon="-0.52906">
        <ele>4</ele>
        <time>2022-06-05T08:39:19Z</time>
      </trkpt>
      <trkpt lat="44.81616" lon="-0.52903">
        <ele>4</ele>
        <time>2022-06-05T08:39:28Z</time>
      </trkpt>
      <trkpt lat="44.81607" lon="-0.52896">
        <ele>4</ele>
        <time>2022-06-05T08:39:34Z</time>
      </trkpt>
      <trkpt lat="44.81599" lon="-0.5289">
        <ele>4.1000022888184</ele>
        <time>2022-06-05T08:39:42Z</time>
      </trkpt>
      <trkpt lat="44.8159" lon="-0.52883">
        <ele>4.1000022888184</ele>
        <time>2022-06-05T08:39:50Z</time>
      </trkpt>
      <trkpt lat="44.81581" lon="-0.52875">
        <ele>4.1000022888184</ele>
        <time>2022-06-05T08:39:57Z</time>
      </trkpt>
      <trkpt lat="44.81572" lon="-0.5287">
        <ele>4.1000022888184</ele>
        <time>2022-06-05T08:40:05Z</time>
      </trkpt>
      <trkpt lat="44.81563" lon="-0.52865">
        <ele>4.1000022888184</ele>
        <time>2022-06-05T08:40:12Z</time>
      </trkpt>
      <trkpt lat="44.81554" lon="-0.52859">
        <ele>4</ele>
        <time>2022-06-05T08:40:19Z</time>
      </trkpt>
      <trkpt lat="44.81546" lon="-0.52851">
        <ele>4</ele>
        <time>2022-06-05T08:40:26Z</time>
      </trkpt>
      <trkpt lat="44.81537" lon="-0.52844">
        <ele>4</ele>
        <time>2022-06-05T08:40:33Z</time>
      </trkpt>
      <trkpt lat="44.81529" lon="-0.52837">
        <ele>4</ele>
        <time>2022-06-05T08:40:39Z</time>
      </trkpt>
      <trkpt lat="44.81521" lon="-0.5283">
        <ele>4</ele>
        <time>2022-06-05T08:40:45Z</time>
      </trkpt>
      <trkpt lat="44.81512" lon="-0.52824">
        <ele>4</ele>
        <time>2022-06-05T08:40:53Z</time>
      </trkpt>
      <trkpt lat="44.81503" lon="-0.52817">
        <ele>4</ele>
        <time>2022-06-05T08:41:01Z</time>
      </trkpt>
      <trkpt lat="44.81494" lon="-0.52812">
        <ele>4</ele>
        <time>2022-06-05T08:41:09Z</time>
      </trkpt>
      <trkpt lat="44.81485" lon="-0.52808">
        <ele>4.2000007629395</ele>
        <time>2022-06-05T08:41:16Z</time>
      </trkpt>
      <trkpt lat="44.81478" lon="-0.528">
        <ele>4.1000022888184</ele>
        <time>2022-06-05T08:41:24Z</time>
      </trkpt>
      <trkpt lat="44.8147" lon="-0.52794">
        <ele>4.2000007629395</ele>
        <time>2022-06-05T08:41:30Z</time>
      </trkpt>
      <trkpt lat="44.81461" lon="-0.52788">
        <ele>4.1000022888184</ele>
        <time>2022-06-05T08:41:37Z</time>
      </trkpt>
      <trkpt lat="44.81452" lon="-0.52784">
        <ele>4.1000022888184</ele>
        <time>2022-06-05T08:41:44Z</time>
      </trkpt>
      <trkpt lat="44.81442" lon="-0.52781">
        <ele>4</ele>
        <time>2022-06-05T08:41:51Z</time>
      </trkpt>
      <trkpt lat="44.81433" lon="-0.52775">
        <ele>4</ele>
        <time>2022-06-05T08:41:59Z</time>
      </trkpt>
      <trkpt lat="44.81422" lon="-0.5277">
        <ele>4</ele>
        <time>2022-06-05T08:42:10Z</time>
      </trkpt>
      <trkpt lat="44.81413" lon="-0.52766">
        <ele>3.4000015258789</ele>
        <time>2022-06-05T08:42:17Z</time>
      </trkpt>
      <trkpt lat="44.81404" lon="-0.52762">
        <ele>3.4000015258789</ele>
        <time>2022-06-05T08:42:23Z</time>
      </trkpt>
      <trkpt lat="44.81395" lon="-0.52756">
        <ele>3.4000015258789</ele>
        <time>2022-06-05T08:42:30Z</time>
      </trkpt>
      <trkpt lat="44.81387" lon="-0.52749">
        <ele>3.4000015258789</ele>
        <time>2022-06-05T08:42:37Z</time>
      </trkpt>
      <trkpt lat="44.81381" lon="-0.52739">
        <ele>3.4000015258789</ele>
        <time>2022-06-05T08:42:42Z</time>
      </trkpt>
      <trkpt lat="44.81371" lon="-0.52732">
        <ele>3.4000015258789</ele>
        <time>2022-06-05T08:42:50Z</time>
      </trkpt>
      <trkpt lat="44.81362" lon="-0.52729">
        <ele>3.4000015258789</ele>
        <time>2022-06-05T08:42:57Z</time>
      </trkpt>
      <trkpt lat="44.81353" lon="-0.52723">
        <ele>3.4000015258789</ele>
        <time>2022-06-05T08:43:02Z</time>
      </trkpt>
      <trkpt lat="44.81344" lon="-0.52718">
        <ele>3.4000015258789</ele>
        <time>2022-06-05T08:43:10Z</time>
      </trkpt>
      <trkpt lat="44.81336" lon="-0.52712">
        <ele>3.4000015258789</ele>
        <time>2022-06-05T08:43:17Z</time>
      </trkpt>
      <trkpt lat="44.8133" lon="-0.52702">
        <ele>3.4000015258789</ele>
        <time>2022-06-05T08:43:24Z</time>
      </trkpt>
      <trkpt lat="44.81321" lon="-0.52696">
        <ele>3.4000015258789</ele>
        <time>2022-06-05T08:43:31Z</time>
      </trkpt>
      <trkpt lat="44.81312" lon="-0.5269">
        <ele>3.4000015258789</ele>
        <time>2022-06-05T08:43:38Z</time>
      </trkpt>
      <trkpt lat="44.81302" lon="-0.52687">
        <ele>3.4000015258789</ele>
        <time>2022-06-05T08:43:47Z</time>
      </trkpt>
      <trkpt lat="44.81293" lon="-0.52683">
        <ele>3.4000015258789</ele>
        <time>2022-06-05T08:43:54Z</time>
      </trkpt>
      <trkpt lat="44.81284" lon="-0.52676">
        <ele>3.4000015258789</ele>
        <time>2022-06-05T08:44:02Z</time>
      </trkpt>
      <trkpt lat="44.81275" lon="-0.5267">
        <ele>3.4000015258789</ele>
        <time>2022-06-05T08:44:11Z</time>
      </trkpt>
      <trkpt lat="44.81266" lon="-0.52663">
        <ele>3.4000015258789</ele>
        <time>2022-06-05T08:44:19Z</time>
      </trkpt>
      <trkpt lat="44.81257" lon="-0.52655">
        <ele>3.4000015258789</ele>
        <time>2022-06-05T08:44:27Z</time>
      </trkpt>
      <trkpt lat="44.81247" lon="-0.52649">
        <ele>3.4000015258789</ele>
        <time>2022-06-05T08:44:34Z</time>
      </trkpt>
      <trkpt lat="44.81239" lon="-0.52643">
        <ele>3.4000015258789</ele>
        <time>2022-06-05T08:44:41Z</time>
      </trkpt>
      <trkpt lat="44.81229" lon="-0.5264">
        <ele>3.4000015258789</ele>
        <time>2022-06-05T08:44:49Z</time>
      </trkpt>
      <trkpt lat="44.81221" lon="-0.52634">
        <ele>3.4000015258789</ele>
        <time>2022-06-05T08:44:57Z</time>
      </trkpt>
      <trkpt lat="44.81212" lon="-0.52627">
        <ele>3.4000015258789</ele>
        <time>2022-06-05T08:45:05Z</time>
      </trkpt>
      <trkpt lat="44.81202" lon="-0.52621">
        <ele>3.5</ele>
        <time>2022-06-05T08:45:13Z</time>
      </trkpt>
      <trkpt lat="44.81194" lon="-0.52614">
        <ele>3.5</ele>
        <time>2022-06-05T08:45:20Z</time>
      </trkpt>
      <trkpt lat="44.81184" lon="-0.52608">
        <ele>3.4000015258789</ele>
        <time>2022-06-05T08:45:27Z</time>
      </trkpt>
      <trkpt lat="44.81176" lon="-0.52601">
        <ele>3.4000015258789</ele>
        <time>2022-06-05T08:45:33Z</time>
      </trkpt>
      <trkpt lat="44.81166" lon="-0.52596">
        <ele>3.5</ele>
        <time>2022-06-05T08:45:41Z</time>
      </trkpt>
      <trkpt lat="44.81157" lon="-0.5259">
        <ele>3.5</ele>
        <time>2022-06-05T08:45:47Z</time>
      </trkpt>
      <trkpt lat="44.81148" lon="-0.52584">
        <ele>3.5</ele>
        <time>2022-06-05T08:45:53Z</time>
      </trkpt>
      <trkpt lat="44.8114" lon="-0.52576">
        <ele>3.5</ele>
        <time>2022-06-05T08:46:02Z</time>
      </trkpt>
      <trkpt lat="44.81131" lon="-0.52571">
        <ele>3.5</ele>
        <time>2022-06-05T08:46:09Z</time>
      </trkpt>
      <trkpt lat="44.81122" lon="-0.52565">
        <ele>3.5</ele>
        <time>2022-06-05T08:46:17Z</time>
      </trkpt>
      <trkpt lat="44.81113" lon="-0.5256">
        <ele>3.5</ele>
        <time>2022-06-05T08:46:27Z</time>
      </trkpt>
      <trkpt lat="44.81104" lon="-0.52554">
        <ele>3.5</ele>
        <time>2022-06-05T08:46:34Z</time>
      </trkpt>
      <trkpt lat="44.81096" lon="-0.52546">
        <ele>3.5</ele>
        <time>2022-06-05T08:46:42Z</time>
      </trkpt>
      <trkpt lat="44.81086" lon="-0.5254">
        <ele>3.5</ele>
        <time>2022-06-05T08:46:49Z</time>
      </trkpt>
      <trkpt lat="44.81077" lon="-0.52535">
        <ele>3.012451171875</ele>
        <time>2022-06-05T08:46:55Z</time>
      </trkpt>
      <trkpt lat="44.81068" lon="-0.5253">
        <ele>3.9053344726562</ele>
        <time>2022-06-05T08:47:01Z</time>
      </trkpt>
      <trkpt lat="44.81058" lon="-0.52525">
        <ele>3.5</ele>
        <time>2022-06-05T08:47:08Z</time>
      </trkpt>
      <trkpt lat="44.81049" lon="-0.52521">
        <ele>3.5</ele>
        <time>2022-06-05T08:47:14Z</time>
      </trkpt>
      <trkpt lat="44.81038" lon="-0.52515">
        <ele>3.5</ele>
        <time>2022-06-05T08:47:24Z</time>
      </trkpt>
      <trkpt lat="44.81029" lon="-0.52511">
        <ele>3.5</ele>
        <time>2022-06-05T08:47:30Z</time>
      </trkpt>
      <trkpt lat="44.81019" lon="-0.52505">
        <ele>4.366943359375</ele>
        <time>2022-06-05T08:47:38Z</time>
      </trkpt>
      <trkpt lat="44.81011" lon="-0.52497">
        <ele>5.1087646484375</ele>
        <time>2022-06-05T08:47:46Z</time>
      </trkpt>
      <trkpt lat="44.81002" lon="-0.52492">
        <ele>3.0279529801574</ele>
        <time>2022-06-05T08:47:54Z</time>
      </trkpt>
      <trkpt lat="44.80994" lon="-0.52485">
        <ele>6.7587280273438</ele>
        <time>2022-06-05T08:48:02Z</time>
      </trkpt>
      <trkpt lat="44.80985" lon="-0.52479">
        <ele>2.7536029876744</ele>
        <time>2022-06-05T08:48:09Z</time>
      </trkpt>
      <trkpt lat="44.80976" lon="-0.5247">
        <ele>2.9937470544457</ele>
        <time>2022-06-05T08:48:15Z</time>
      </trkpt>
      <trkpt lat="44.80969" lon="-0.52461">
        <ele>2.6758538838018</ele>
        <time>2022-06-05T08:48:24Z</time>
      </trkpt>
      <trkpt lat="44.80961" lon="-0.52453">
        <ele>3.5</ele>
        <time>2022-06-05T08:48:31Z</time>
      </trkpt>
      <trkpt lat="44.80953" lon="-0.52446">
        <ele>2.6105859319109</ele>
        <time>2022-06-05T08:48:37Z</time>
      </trkpt>
      <trkpt lat="44.80942" lon="-0.52433">
        <ele>2.7860422497867</ele>
        <time>2022-06-05T08:48:45Z</time>
      </trkpt>
      <trkpt lat="44.80934" lon="-0.52425">
        <ele>2.496453094126</ele>
        <time>2022-06-05T08:48:49Z</time>
      </trkpt>
      <trkpt lat="44.80922" lon="-0.52426">
        <ele>2.6965736568783</ele>
        <time>2022-06-05T08:48:57Z</time>
      </trkpt>
      <trkpt lat="44.80913" lon="-0.5243">
        <ele>2.7298505432557</ele>
        <time>2022-06-05T08:49:09Z</time>
      </trkpt>
      <trkpt lat="44.80903" lon="-0.52423">
        <ele>2.5328382986106</ele>
        <time>2022-06-05T08:49:19Z</time>
      </trkpt>
      <trkpt lat="44.80895" lon="-0.52414">
        <ele>2.6116734455928</ele>
        <time>2022-06-05T08:49:25Z</time>
      </trkpt>
      <trkpt lat="44.80885" lon="-0.52409">
        <ele>2.8814612733158</ele>
        <time>2022-06-05T08:49:32Z</time>
      </trkpt>
      <trkpt lat="44.80876" lon="-0.52405">
        <ele>-4.553466796875</ele>
        <time>2022-06-05T08:49:39Z</time>
      </trkpt>
      <trkpt lat="44.80866" lon="-0.52399">
        <ele>2.9117848167583</ele>
        <time>2022-06-05T08:49:48Z</time>
      </trkpt>
      <trkpt lat="44.80858" lon="-0.52391">
        <ele>-2.1923217773438</ele>
        <time>2022-06-05T08:49:54Z</time>
      </trkpt>
      <trkpt lat="44.80851" lon="-0.5238">
        <ele>0.35919189453125</ele>
        <time>2022-06-05T08:50:01Z</time>
      </trkpt>
      <trkpt lat="44.80842" lon="-0.52375">
        <ele>2.6004784524209</ele>
        <time>2022-06-05T08:50:08Z</time>
      </trkpt>
      <trkpt lat="44.80833" lon="-0.52376">
        <ele>-2.62255859375</ele>
        <time>2022-06-05T08:50:14Z</time>
      </trkpt>
      <trkpt lat="44.80825" lon="-0.52368">
        <ele>2.7895605809515</ele>
        <time>2022-06-05T08:50:22Z</time>
      </trkpt>
      <trkpt lat="44.80817" lon="-0.52361">
        <ele>2.6085641500916</ele>
        <time>2022-06-05T08:50:34Z</time>
      </trkpt>
      <trkpt lat="44.80809" lon="-0.52356">
        <ele>2.5964356064855</ele>
        <time>2022-06-05T08:50:40Z</time>
      </trkpt>
      <trkpt lat="44.80797" lon="-0.52351">
        <ele>-0.37158203125</ele>
        <time>2022-06-05T08:50:48Z</time>
      </trkpt>
      <trkpt lat="44.80788" lon="-0.52347">
        <ele>1.3402099609375</ele>
        <time>2022-06-05T08:50:55Z</time>
      </trkpt>
      <trkpt lat="44.80778" lon="-0.52341">
        <ele>5.396484375</ele>
        <time>2022-06-05T08:51:02Z</time>
      </trkpt>
      <trkpt lat="44.8077" lon="-0.52335">
        <ele>8.4039916992188</ele>
        <time>2022-06-05T08:51:09Z</time>
      </trkpt>
      <trkpt lat="44.80759" lon="-0.52331">
        <ele>3.0018171746076</ele>
        <time>2022-06-05T08:51:17Z</time>
      </trkpt>
      <trkpt lat="44.8075" lon="-0.52325">
        <ele>10.572570800781</ele>
        <time>2022-06-05T08:51:23Z</time>
      </trkpt>
      <trkpt lat="44.80743" lon="-0.52315">
        <ele>2.8586563848586</ele>
        <time>2022-06-05T08:51:29Z</time>
      </trkpt>
      <trkpt lat="44.80734" lon="-0.52313">
        <ele>3.0057800378413</ele>
        <time>2022-06-05T08:51:36Z</time>
      </trkpt>
      <trkpt lat="44.80722" lon="-0.52312">
        <ele>3.0745920907766</ele>
        <time>2022-06-05T08:51:45Z</time>
      </trkpt>
      <trkpt lat="44.80714" lon="-0.52304">
        <ele>2.9593654295048</ele>
        <time>2022-06-05T08:51:53Z</time>
      </trkpt>
      <trkpt lat="44.80707" lon="-0.52295">
        <ele>2.8000030517578</ele>
        <time>2022-06-05T08:52:00Z</time>
      </trkpt>
      <trkpt lat="44.80707" lon="-0.52279">
        <ele>2.9000015258789</ele>
        <time>2022-06-05T08:52:23Z</time>
      </trkpt>
      <trkpt lat="44.80713" lon="-0.52268">
        <ele>2.8000030517578</ele>
        <time>2022-06-05T08:52:31Z</time>
      </trkpt>
      <trkpt lat="44.80715" lon="-0.52255">
        <ele>2.8000030517578</ele>
        <time>2022-06-05T08:52:36Z</time>
      </trkpt>
      <trkpt lat="44.80719" lon="-0.52242">
        <ele>3</ele>
        <time>2022-06-05T08:52:43Z</time>
      </trkpt>
      <trkpt lat="44.80724" lon="-0.5223">
        <ele>3</ele>
        <time>2022-06-05T08:52:50Z</time>
      </trkpt>
      <trkpt lat="44.80729" lon="-0.52217">
        <ele>3</ele>
        <time>2022-06-05T08:52:58Z</time>
      </trkpt>
      <trkpt lat="44.80732" lon="-0.52203">
        <ele>3.3000030517578</ele>
        <time>2022-06-05T08:53:05Z</time>
      </trkpt>
      <trkpt lat="44.80736" lon="-0.52191">
        <ele>3.3000030517578</ele>
        <time>2022-06-05T08:53:12Z</time>
      </trkpt>
      <trkpt lat="44.80736" lon="-0.52178">
        <ele>3.3000030517578</ele>
        <time>2022-06-05T08:53:21Z</time>
      </trkpt>
      <trkpt lat="44.80742" lon="-0.5216">
        <ele>3.3000030517578</ele>
        <time>2022-06-05T08:53:35Z</time>
      </trkpt>
      <trkpt lat="44.80753" lon="-0.52148">
        <ele>3.3000030517578</ele>
        <time>2022-06-05T08:53:45Z</time>
      </trkpt>
      <trkpt lat="44.80758" lon="-0.52136">
        <ele>3.3000030517578</ele>
        <time>2022-06-05T08:53:51Z</time>
      </trkpt>
      <trkpt lat="44.80762" lon="-0.52122">
        <ele>3.3000030517578</ele>
        <time>2022-06-05T08:53:59Z</time>
      </trkpt>
      <trkpt lat="44.80764" lon="-0.52108">
        <ele>3.3000030517578</ele>
        <time>2022-06-05T08:54:06Z</time>
      </trkpt>
      <trkpt lat="44.80766" lon="-0.52095">
        <ele>3.3000030517578</ele>
        <time>2022-06-05T08:54:12Z</time>
      </trkpt>
      <trkpt lat="44.80769" lon="-0.52081">
        <ele>3.3000030517578</ele>
        <time>2022-06-05T08:54:18Z</time>
      </trkpt>
      <trkpt lat="44.80774" lon="-0.52067">
        <ele>3.3000030517578</ele>
        <time>2022-06-05T08:54:25Z</time>
      </trkpt>
      <trkpt lat="44.80777" lon="-0.52054">
        <ele>3.3000030517578</ele>
        <time>2022-06-05T08:54:31Z</time>
      </trkpt>
      <trkpt lat="44.80778" lon="-0.5204">
        <ele>3.3000030517578</ele>
        <time>2022-06-05T08:54:37Z</time>
      </trkpt>
      <trkpt lat="44.80781" lon="-0.52026">
        <ele>3.3000030517578</ele>
        <time>2022-06-05T08:54:45Z</time>
      </trkpt>
      <trkpt lat="44.80785" lon="-0.52012">
        <ele>3.3000030517578</ele>
        <time>2022-06-05T08:54:53Z</time>
      </trkpt>
      <trkpt lat="44.80785" lon="-0.51998">
        <ele>3.3000030517578</ele>
        <time>2022-06-05T08:55:01Z</time>
      </trkpt>
      <trkpt lat="44.80788" lon="-0.51986">
        <ele>-5.3721923828125</ele>
        <time>2022-06-05T08:55:08Z</time>
      </trkpt>
      <trkpt lat="44.80791" lon="-0.51971">
        <ele>3.3000030517578</ele>
        <time>2022-06-05T08:55:16Z</time>
      </trkpt>
      <trkpt lat="44.80795" lon="-0.51957">
        <ele>-1.8508911132812</ele>
        <time>2022-06-05T08:55:23Z</time>
      </trkpt>
      <trkpt lat="44.80797" lon="-0.51945">
        <ele>3.3000030517578</ele>
        <time>2022-06-05T08:55:31Z</time>
      </trkpt>
      <trkpt lat="44.80801" lon="-0.51933">
        <ele>3.3000030517578</ele>
        <time>2022-06-05T08:55:37Z</time>
      </trkpt>
      <trkpt lat="44.80811" lon="-0.51932">
        <ele>3.2266347366475</ele>
        <time>2022-06-05T08:55:44Z</time>
      </trkpt>
      <trkpt lat="44.8082" lon="-0.51936">
        <ele>3.0371885532997</ele>
        <time>2022-06-05T08:55:52Z</time>
      </trkpt>
      <trkpt lat="44.8083" lon="-0.51939">
        <ele>3.05928719036</ele>
        <time>2022-06-05T08:56:01Z</time>
      </trkpt>
      <trkpt lat="44.8084" lon="-0.51942">
        <ele>-6.492919921875</ele>
        <time>2022-06-05T08:56:09Z</time>
      </trkpt>
      <trkpt lat="44.80846" lon="-0.51932">
        <ele>2.6773627670554</ele>
        <time>2022-06-05T08:56:19Z</time>
      </trkpt>
      <trkpt lat="44.80856" lon="-0.51921">
        <ele>2.9659353284938</ele>
        <time>2022-06-05T08:56:32Z</time>
      </trkpt>
      <trkpt lat="44.80866" lon="-0.5192">
        <ele>-2.863037109375</ele>
        <time>2022-06-05T08:56:40Z</time>
      </trkpt>
      <trkpt lat="44.80875" lon="-0.51921">
        <ele>3.4496037141671</ele>
        <time>2022-06-05T08:56:48Z</time>
      </trkpt>
      <trkpt lat="44.80887" lon="-0.51915">
        <ele>3.3362462276226</ele>
        <time>2022-06-05T08:57:07Z</time>
      </trkpt>
      <trkpt lat="44.80885" lon="-0.519">
        <ele>3.2403595164669</ele>
        <time>2022-06-05T08:57:25Z</time>
      </trkpt>
      <trkpt lat="44.80876" lon="-0.51893">
        <ele>3.167947044842</ele>
        <time>2022-06-05T08:57:32Z</time>
      </trkpt>
      <trkpt lat="44.80871" lon="-0.51881">
        <ele>3.1068569871022</ele>
        <time>2022-06-05T08:57:40Z</time>
      </trkpt>
      <trkpt lat="44.80867" lon="-0.5187">
        <ele>-4.9976806640625</ele>
        <time>2022-06-05T08:57:47Z</time>
      </trkpt>
      <trkpt lat="44.80864" lon="-0.51857">
        <ele>-3.9573974609375</ele>
        <time>2022-06-05T08:57:53Z</time>
      </trkpt>
      <trkpt lat="44.80864" lon="-0.51844">
        <ele>-3.0243530273438</ele>
        <time>2022-06-05T08:57:58Z</time>
      </trkpt>
      <trkpt lat="44.80864" lon="-0.5183">
        <ele>2.3957467061884</ele>
        <time>2022-06-05T08:58:04Z</time>
      </trkpt>
      <trkpt lat="44.80865" lon="-0.51816">
        <ele>-0.81109619140625</ele>
        <time>2022-06-05T08:58:11Z</time>
      </trkpt>
      <trkpt lat="44.80866" lon="-0.51802">
        <ele>2.7718922297995</ele>
        <time>2022-06-05T08:58:17Z</time>
      </trkpt>
      <trkpt lat="44.8087" lon="-0.51788">
        <ele>2.5530523687732</ele>
        <time>2022-06-05T08:58:24Z</time>
      </trkpt>
      <trkpt lat="44.80872" lon="-0.51774">
        <ele>2.6888525108517</ele>
        <time>2022-06-05T08:58:31Z</time>
      </trkpt>
      <trkpt lat="44.80874" lon="-0.51761">
        <ele>2.352852065836</ele>
        <time>2022-06-05T08:58:38Z</time>
      </trkpt>
      <trkpt lat="44.80879" lon="-0.51748">
        <ele>-0.25433349609375</ele>
        <time>2022-06-05T08:58:44Z</time>
      </trkpt>
      <trkpt lat="44.80881" lon="-0.51735">
        <ele>2.0335661069338</ele>
        <time>2022-06-05T08:58:51Z</time>
      </trkpt>
      <trkpt lat="44.80882" lon="-0.51721">
        <ele>2.3145177317493</ele>
        <time>2022-06-05T08:58:59Z</time>
      </trkpt>
      <trkpt lat="44.80885" lon="-0.51706">
        <ele>2.2073146236606</ele>
        <time>2022-06-05T08:59:07Z</time>
      </trkpt>
      <trkpt lat="44.80888" lon="-0.51692">
        <ele>2.2963372688428</ele>
        <time>2022-06-05T08:59:16Z</time>
      </trkpt>
      <trkpt lat="44.8089" lon="-0.51679">
        <ele>2.1811212153643</ele>
        <time>2022-06-05T08:59:24Z</time>
      </trkpt>
      <trkpt lat="44.80892" lon="-0.51665">
        <ele>2.1223683351631</ele>
        <time>2022-06-05T08:59:32Z</time>
      </trkpt>
      <trkpt lat="44.80893" lon="-0.51649">
        <ele>2.1795953212698</ele>
        <time>2022-06-05T08:59:42Z</time>
      </trkpt>
      <trkpt lat="44.80895" lon="-0.51636">
        <ele>2.0901622823875</ele>
        <time>2022-06-05T08:59:51Z</time>
      </trkpt>
      <trkpt lat="44.80898" lon="-0.51623">
        <ele>3.2000007629395</ele>
        <time>2022-06-05T08:59:59Z</time>
      </trkpt>
      <trkpt lat="44.809" lon="-0.5161">
        <ele>3.2000007629395</ele>
        <time>2022-06-05T09:00:05Z</time>
      </trkpt>
      <trkpt lat="44.80903" lon="-0.51596">
        <ele>3.2000007629395</ele>
        <time>2022-06-05T09:00:13Z</time>
      </trkpt>
      <trkpt lat="44.80903" lon="-0.51582">
        <ele>3.2000007629395</ele>
        <time>2022-06-05T09:00:19Z</time>
      </trkpt>
      <trkpt lat="44.80904" lon="-0.51568">
        <ele>3.2000007629395</ele>
        <time>2022-06-05T09:00:24Z</time>
      </trkpt>
      <trkpt lat="44.80907" lon="-0.51555">
        <ele>3.2000007629395</ele>
        <time>2022-06-05T09:00:32Z</time>
      </trkpt>
      <trkpt lat="44.80912" lon="-0.51543">
        <ele>3</ele>
        <time>2022-06-05T09:00:42Z</time>
      </trkpt>
      <trkpt lat="44.8091" lon="-0.51529">
        <ele>3</ele>
        <time>2022-06-05T09:00:50Z</time>
      </trkpt>
      <trkpt lat="44.80912" lon="-0.51515">
        <ele>2.5</ele>
        <time>2022-06-05T09:00:56Z</time>
      </trkpt>
      <trkpt lat="44.80913" lon="-0.51501">
        <ele>3</ele>
        <time>2022-06-05T09:01:05Z</time>
      </trkpt>
      <trkpt lat="44.80914" lon="-0.51487">
        <ele>3</ele>
        <time>2022-06-05T09:01:12Z</time>
      </trkpt>
      <trkpt lat="44.80915" lon="-0.51473">
        <ele>3</ele>
        <time>2022-06-05T09:01:20Z</time>
      </trkpt>
      <trkpt lat="44.80916" lon="-0.51459">
        <ele>3</ele>
        <time>2022-06-05T09:01:28Z</time>
      </trkpt>
      <trkpt lat="44.80917" lon="-0.51446">
        <ele>2.5</ele>
        <time>2022-06-05T09:01:35Z</time>
      </trkpt>
      <trkpt lat="44.80917" lon="-0.51432">
        <ele>2.5</ele>
        <time>2022-06-05T09:01:42Z</time>
      </trkpt>
      <trkpt lat="44.80921" lon="-0.51419">
        <ele>2</ele>
        <time>2022-06-05T09:01:48Z</time>
      </trkpt>
      <trkpt lat="44.80925" lon="-0.51406">
        <ele>2</ele>
        <time>2022-06-05T09:01:55Z</time>
      </trkpt>
      <trkpt lat="44.8093" lon="-0.51394">
        <ele>2.3000030517578</ele>
        <time>2022-06-05T09:02:02Z</time>
      </trkpt>
      <trkpt lat="44.80933" lon="-0.51381">
        <ele>2.5</ele>
        <time>2022-06-05T09:02:09Z</time>
      </trkpt>
      <trkpt lat="44.80935" lon="-0.51368">
        <ele>2.5</ele>
        <time>2022-06-05T09:02:20Z</time>
      </trkpt>
      <trkpt lat="44.80937" lon="-0.51355">
        <ele>2.5</ele>
        <time>2022-06-05T09:02:27Z</time>
      </trkpt>
      <trkpt lat="44.8094" lon="-0.51342">
        <ele>2.5</ele>
        <time>2022-06-05T09:02:33Z</time>
      </trkpt>
      <trkpt lat="44.80942" lon="-0.51327">
        <ele>2.5</ele>
        <time>2022-06-05T09:02:40Z</time>
      </trkpt>
      <trkpt lat="44.80944" lon="-0.51312">
        <ele>2.5</ele>
        <time>2022-06-05T09:02:47Z</time>
      </trkpt>
      <trkpt lat="44.80947" lon="-0.51299">
        <ele>2.5</ele>
        <time>2022-06-05T09:02:54Z</time>
      </trkpt>
      <trkpt lat="44.80948" lon="-0.51286">
        <ele>2.5</ele>
        <time>2022-06-05T09:03:00Z</time>
      </trkpt>
      <trkpt lat="44.80951" lon="-0.51271">
        <ele>2.2000007629395</ele>
        <time>2022-06-05T09:03:06Z</time>
      </trkpt>
      <trkpt lat="44.80956" lon="-0.5126">
        <ele>2.2000007629395</ele>
        <time>2022-06-05T09:03:14Z</time>
      </trkpt>
      <trkpt lat="44.80958" lon="-0.51246">
        <ele>2.2000007629395</ele>
        <time>2022-06-05T09:03:21Z</time>
      </trkpt>
      <trkpt lat="44.8096" lon="-0.51233">
        <ele>3.5</ele>
        <time>2022-06-05T09:03:28Z</time>
      </trkpt>
      <trkpt lat="44.80963" lon="-0.5122">
        <ele>2.2000007629395</ele>
        <time>2022-06-05T09:03:36Z</time>
      </trkpt>
      <trkpt lat="44.80967" lon="-0.51208">
        <ele>2.2000007629395</ele>
        <time>2022-06-05T09:03:43Z</time>
      </trkpt>
      <trkpt lat="44.80972" lon="-0.51197">
        <ele>2.2000007629395</ele>
        <time>2022-06-05T09:03:51Z</time>
      </trkpt>
      <trkpt lat="44.80974" lon="-0.51182">
        <ele>2.2000007629395</ele>
        <time>2022-06-05T09:03:59Z</time>
      </trkpt>
      <trkpt lat="44.80976" lon="-0.51164">
        <ele>2.8000030517578</ele>
        <time>2022-06-05T09:04:27Z</time>
      </trkpt>
      <trkpt lat="44.80979" lon="-0.51151">
        <ele>2.8000030517578</ele>
        <time>2022-06-05T09:04:34Z</time>
      </trkpt>
      <trkpt lat="44.80983" lon="-0.5114">
        <ele>2.8000030517578</ele>
        <time>2022-06-05T09:04:42Z</time>
      </trkpt>
      <trkpt lat="44.80986" lon="-0.51126">
        <ele>2.8000030517578</ele>
        <time>2022-06-05T09:04:51Z</time>
      </trkpt>
      <trkpt lat="44.80987" lon="-0.51112">
        <ele>3</ele>
        <time>2022-06-05T09:05:17Z</time>
      </trkpt>
      <trkpt lat="44.80988" lon="-0.51098">
        <ele>3</ele>
        <time>2022-06-05T09:05:24Z</time>
      </trkpt>
      <trkpt lat="44.80991" lon="-0.51084">
        <ele>3</ele>
        <time>2022-06-05T09:05:31Z</time>
      </trkpt>
      <trkpt lat="44.80993" lon="-0.51071">
        <ele>2.8000030517578</ele>
        <time>2022-06-05T09:05:36Z</time>
      </trkpt>
      <trkpt lat="44.80995" lon="-0.51056">
        <ele>2.8000030517578</ele>
        <time>2022-06-05T09:05:42Z</time>
      </trkpt>
      <trkpt lat="44.80999" lon="-0.51043">
        <ele>2.4000015258789</ele>
        <time>2022-06-05T09:05:50Z</time>
      </trkpt>
      <trkpt lat="44.81003" lon="-0.51031">
        <ele>2.4000015258789</ele>
        <time>2022-06-05T09:05:57Z</time>
      </trkpt>
      <trkpt lat="44.81006" lon="-0.51017">
        <ele>2.6000022888184</ele>
        <time>2022-06-05T09:06:05Z</time>
      </trkpt>
      <trkpt lat="44.81008" lon="-0.51002">
        <ele>2.4000015258789</ele>
        <time>2022-06-05T09:06:13Z</time>
      </trkpt>
      <trkpt lat="44.81011" lon="-0.50989">
        <ele>2.4000015258789</ele>
        <time>2022-06-05T09:06:21Z</time>
      </trkpt>
      <trkpt lat="44.81013" lon="-0.50975">
        <ele>2.4000015258789</ele>
        <time>2022-06-05T09:06:29Z</time>
      </trkpt>
      <trkpt lat="44.81014" lon="-0.50962">
        <ele>2.4000015258789</ele>
        <time>2022-06-05T09:06:37Z</time>
      </trkpt>
      <trkpt lat="44.81018" lon="-0.5095">
        <ele>2.4000015258789</ele>
        <time>2022-06-05T09:06:45Z</time>
      </trkpt>
      <trkpt lat="44.81021" lon="-0.50938">
        <ele>2.4000015258789</ele>
        <time>2022-06-05T09:06:52Z</time>
      </trkpt>
      <trkpt lat="44.81024" lon="-0.50924">
        <ele>2.4000015258789</ele>
        <time>2022-06-05T09:07:00Z</time>
      </trkpt>
      <trkpt lat="44.81026" lon="-0.5091">
        <ele>2.4000015258789</ele>
        <time>2022-06-05T09:07:07Z</time>
      </trkpt>
      <trkpt lat="44.81028" lon="-0.50896">
        <ele>3</ele>
        <time>2022-06-05T09:07:16Z</time>
      </trkpt>
      <trkpt lat="44.81032" lon="-0.50883">
        <ele>2.4000015258789</ele>
        <time>2022-06-05T09:07:24Z</time>
      </trkpt>
      <trkpt lat="44.81037" lon="-0.50872">
        <ele>2.8000030517578</ele>
        <time>2022-06-05T09:07:33Z</time>
      </trkpt>
      <trkpt lat="44.81042" lon="-0.50859">
        <ele>3</ele>
        <time>2022-06-05T09:07:39Z</time>
      </trkpt>
      <trkpt lat="44.81044" lon="-0.50846">
        <ele>3</ele>
        <time>2022-06-05T09:07:46Z</time>
      </trkpt>
      <trkpt lat="44.81048" lon="-0.50834">
        <ele>2.8000030517578</ele>
        <time>2022-06-05T09:07:55Z</time>
      </trkpt>
      <trkpt lat="44.81049" lon="-0.50821">
        <ele>2.8000030517578</ele>
        <time>2022-06-05T09:08:03Z</time>
      </trkpt>
      <trkpt lat="44.81053" lon="-0.50808">
        <ele>2.8000030517578</ele>
        <time>2022-06-05T09:08:08Z</time>
      </trkpt>
      <trkpt lat="44.81057" lon="-0.50795">
        <ele>2.8000030517578</ele>
        <time>2022-06-05T09:08:14Z</time>
      </trkpt>
      <trkpt lat="44.81061" lon="-0.50782">
        <ele>3</ele>
        <time>2022-06-05T09:08:23Z</time>
      </trkpt>
      <trkpt lat="44.81065" lon="-0.50769">
        <ele>2.8000030517578</ele>
        <time>2022-06-05T09:08:30Z</time>
      </trkpt>
      <trkpt lat="44.81069" lon="-0.50757">
        <ele>3</ele>
        <time>2022-06-05T09:08:40Z</time>
      </trkpt>
      <trkpt lat="44.81074" lon="-0.50745">
        <ele>2.8000030517578</ele>
        <time>2022-06-05T09:08:47Z</time>
      </trkpt>
      <trkpt lat="44.81081" lon="-0.50738">
        <ele>2.8000030517578</ele>
        <time>2022-06-05T09:08:55Z</time>
      </trkpt>
      <trkpt lat="44.81085" lon="-0.50724">
        <ele>2.9000015258789</ele>
        <time>2022-06-05T09:09:02Z</time>
      </trkpt>
      <trkpt lat="44.81087" lon="-0.5071">
        <ele>3</ele>
        <time>2022-06-05T09:09:09Z</time>
      </trkpt>
      <trkpt lat="44.81088" lon="-0.50696">
        <ele>3</ele>
        <time>2022-06-05T09:09:15Z</time>
      </trkpt>
      <trkpt lat="44.8109" lon="-0.50682">
        <ele>3</ele>
        <time>2022-06-05T09:09:23Z</time>
      </trkpt>
      <trkpt lat="44.81094" lon="-0.5067">
        <ele>3</ele>
        <time>2022-06-05T09:09:31Z</time>
      </trkpt>
      <trkpt lat="44.81098" lon="-0.50658">
        <ele>3.7000007629395</ele>
        <time>2022-06-05T09:09:38Z</time>
      </trkpt>
      <trkpt lat="44.81104" lon="-0.50645">
        <ele>3.7000007629395</ele>
        <time>2022-06-05T09:09:47Z</time>
      </trkpt>
      <trkpt lat="44.81108" lon="-0.50631">
        <ele>5.5</ele>
        <time>2022-06-05T09:09:54Z</time>
      </trkpt>
      <trkpt lat="44.8111" lon="-0.50619">
        <ele>4.4000015258789</ele>
        <time>2022-06-05T09:10:02Z</time>
      </trkpt>
      <trkpt lat="44.81113" lon="-0.50601">
        <ele>5.5</ele>
        <time>2022-06-05T09:10:18Z</time>
      </trkpt>
      <trkpt lat="44.81118" lon="-0.50588">
        <ele>5.5</ele>
        <time>2022-06-05T09:10:25Z</time>
      </trkpt>
      <trkpt lat="44.81123" lon="-0.50575">
        <ele>7.3711955338216</ele>
        <time>2022-06-05T09:10:32Z</time>
      </trkpt>
      <trkpt lat="44.81127" lon="-0.50563">
        <ele>10.11077219226</ele>
        <time>2022-06-05T09:10:38Z</time>
      </trkpt>
      <trkpt lat="44.81127" lon="-0.50543">
        <ele>12.585040470378</ele>
        <time>2022-06-05T09:11:45Z</time>
      </trkpt>
      <trkpt lat="44.8113" lon="-0.5053">
        <ele>15.019245272402</ele>
        <time>2022-06-05T09:11:50Z</time>
      </trkpt>
      <trkpt lat="44.81135" lon="-0.50517">
        <ele>13.300003051758</ele>
        <time>2022-06-05T09:11:54Z</time>
      </trkpt>
      <trkpt lat="44.81139" lon="-0.50504">
        <ele>18.300003051758</ele>
        <time>2022-06-05T09:12:00Z</time>
      </trkpt>
      <trkpt lat="44.8114" lon="-0.50489">
        <ele>18.300003051758</ele>
        <time>2022-06-05T09:12:07Z</time>
      </trkpt>
      <trkpt lat="44.81142" lon="-0.50477">
        <ele>18.300003051758</ele>
        <time>2022-06-05T09:12:12Z</time>
      </trkpt>
      <trkpt lat="44.81144" lon="-0.50464">
        <ele>23.43620967492</ele>
        <time>2022-06-05T09:12:19Z</time>
      </trkpt>
      <trkpt lat="44.81143" lon="-0.5045">
        <ele>27.110214775087</ele>
        <time>2022-06-05T09:12:27Z</time>
      </trkpt>
      <trkpt lat="44.81151" lon="-0.50439">
        <ele>31.137573207987</ele>
        <time>2022-06-05T09:12:40Z</time>
      </trkpt>
      <trkpt lat="44.81161" lon="-0.50436">
        <ele>32.749007698916</ele>
        <time>2022-06-05T09:12:47Z</time>
      </trkpt>
      <trkpt lat="44.81171" lon="-0.50435">
        <ele>34.623183702506</ele>
        <time>2022-06-05T09:12:52Z</time>
      </trkpt>
      <trkpt lat="44.81182" lon="-0.50438">
        <ele>35.602608889844</ele>
        <time>2022-06-05T09:13:00Z</time>
      </trkpt>
      <trkpt lat="44.81191" lon="-0.50443">
        <ele>37.414087957378</ele>
        <time>2022-06-05T09:13:15Z</time>
      </trkpt>
      <trkpt lat="44.81199" lon="-0.50448">
        <ele>40.124282735452</ele>
        <time>2022-06-05T09:13:30Z</time>
      </trkpt>
      <trkpt lat="44.81208" lon="-0.50453">
        <ele>41.60159724618</ele>
        <time>2022-06-05T09:13:37Z</time>
      </trkpt>
      <trkpt lat="44.81216" lon="-0.50462">
        <ele>44.093939593106</ele>
        <time>2022-06-05T09:13:43Z</time>
      </trkpt>
      <trkpt lat="44.81223" lon="-0.50472">
        <ele>45.292850765563</ele>
        <time>2022-06-05T09:13:49Z</time>
      </trkpt>
      <trkpt lat="44.81232" lon="-0.50476">
        <ele>46.216387595005</ele>
        <time>2022-06-05T09:13:56Z</time>
      </trkpt>
      <trkpt lat="44.81244" lon="-0.50473">
        <ele>48.166534190141</ele>
        <time>2022-06-05T09:14:06Z</time>
      </trkpt>
      <trkpt lat="44.81252" lon="-0.50464">
        <ele>50.907903320264</ele>
        <time>2022-06-05T09:14:13Z</time>
      </trkpt>
      <trkpt lat="44.81264" lon="-0.50455">
        <ele>56.491570335914</ele>
        <time>2022-06-05T09:14:30Z</time>
      </trkpt>
      <trkpt lat="44.81271" lon="-0.50444">
        <ele>59.933876619907</ele>
        <time>2022-06-05T09:14:38Z</time>
      </trkpt>
      <trkpt lat="44.81272" lon="-0.5043">
        <ele>64.043496337185</ele>
        <time>2022-06-05T09:14:52Z</time>
      </trkpt>
      <trkpt lat="44.81273" lon="-0.50416">
        <ele>65.446228854715</ele>
        <time>2022-06-05T09:15:05Z</time>
      </trkpt>
      <trkpt lat="44.81277" lon="-0.50404">
        <ele>67.421967849633</ele>
        <time>2022-06-05T09:15:12Z</time>
      </trkpt>
      <trkpt lat="44.8128" lon="-0.50391">
        <ele>68.711052683346</ele>
        <time>2022-06-05T09:15:20Z</time>
      </trkpt>
      <trkpt lat="44.81287" lon="-0.50384">
        <ele>70.221188963206</ele>
        <time>2022-06-05T09:15:32Z</time>
      </trkpt>
      <trkpt lat="44.81293" lon="-0.50367">
        <ele>71.900001525879</ele>
        <time>2022-06-05T09:15:53Z</time>
      </trkpt>
      <trkpt lat="44.81301" lon="-0.50375">
        <ele>71.900001525879</ele>
        <time>2022-06-05T09:16:56Z</time>
      </trkpt>
      <trkpt lat="44.81311" lon="-0.50376">
        <ele>72</ele>
        <time>2022-06-05T09:17:06Z</time>
      </trkpt>
      <trkpt lat="44.8132" lon="-0.50381">
        <ele>72</ele>
        <time>2022-06-05T09:17:13Z</time>
      </trkpt>
      <trkpt lat="44.81327" lon="-0.50391">
        <ele>72</ele>
        <time>2022-06-05T09:17:20Z</time>
      </trkpt>
      <trkpt lat="44.81335" lon="-0.50399">
        <ele>72</ele>
        <time>2022-06-05T09:17:26Z</time>
      </trkpt>
      <trkpt lat="44.81344" lon="-0.50404">
        <ele>72.200004577637</ele>
        <time>2022-06-05T09:17:35Z</time>
      </trkpt>
      <trkpt lat="44.81344" lon="-0.50387">
        <ele>72.700004577637</ele>
        <time>2022-06-05T09:28:41Z</time>
      </trkpt>
      <trkpt lat="44.81356" lon="-0.50388">
        <ele>73.300003051758</ele>
        <time>2022-06-05T09:30:15Z</time>
      </trkpt>
      <trkpt lat="44.81351" lon="-0.50374">
        <ele>72.599998474121</ele>
        <time>2022-06-05T09:30:27Z</time>
      </trkpt>
      <trkpt lat="44.81348" lon="-0.5036">
        <ele>73.300003051758</ele>
        <time>2022-06-05T09:30:31Z</time>
      </trkpt>
      <trkpt lat="44.81341" lon="-0.50344">
        <ele>72.300003051758</ele>
        <time>2022-06-05T09:30:41Z</time>
      </trkpt>
      <trkpt lat="44.81331" lon="-0.5034">
        <ele>72.300003051758</ele>
        <time>2022-06-05T09:30:51Z</time>
      </trkpt>
      <trkpt lat="44.81321" lon="-0.50338">
        <ele>71.900001525879</ele>
        <time>2022-06-05T09:30:59Z</time>
      </trkpt>
      <trkpt lat="44.81311" lon="-0.50337">
        <ele>71.900001525879</ele>
        <time>2022-06-05T09:31:05Z</time>
      </trkpt>
      <trkpt lat="44.81301" lon="-0.50337">
        <ele>71.900001525879</ele>
        <time>2022-06-05T09:31:13Z</time>
      </trkpt>
      <trkpt lat="44.81294" lon="-0.50328">
        <ele>71.900001525879</ele>
        <time>2022-06-05T09:31:23Z</time>
      </trkpt>
      <trkpt lat="44.81284" lon="-0.50333">
        <ele>71.599998474121</ele>
        <time>2022-06-05T09:31:31Z</time>
      </trkpt>
      <trkpt lat="44.81276" lon="-0.50326">
        <ele>71.300003051758</ele>
        <time>2022-06-05T09:31:42Z</time>
      </trkpt>
      <trkpt lat="44.81266" lon="-0.50325">
        <ele>71.300003051758</ele>
        <time>2022-06-05T09:31:50Z</time>
      </trkpt>
      <trkpt lat="44.81257" lon="-0.50325">
        <ele>71.200004577637</ele>
        <time>2022-06-05T09:31:58Z</time>
      </trkpt>
      <trkpt lat="44.81248" lon="-0.50325">
        <ele>71.300003051758</ele>
        <time>2022-06-05T09:32:07Z</time>
      </trkpt>
      <trkpt lat="44.81238" lon="-0.50321">
        <ele>71.300003051758</ele>
        <time>2022-06-05T09:32:14Z</time>
      </trkpt>
      <trkpt lat="44.8123" lon="-0.50316">
        <ele>71.300003051758</ele>
        <time>2022-06-05T09:32:21Z</time>
      </trkpt>
      <trkpt lat="44.81222" lon="-0.50309">
        <ele>71.200004577637</ele>
        <time>2022-06-05T09:32:31Z</time>
      </trkpt>
      <trkpt lat="44.81215" lon="-0.50301">
        <ele>71.300003051758</ele>
        <time>2022-06-05T09:32:38Z</time>
      </trkpt>
      <trkpt lat="44.81208" lon="-0.50291">
        <ele>71.300003051758</ele>
        <time>2022-06-05T09:32:46Z</time>
      </trkpt>
      <trkpt lat="44.81201" lon="-0.50282">
        <ele>71.300003051758</ele>
        <time>2022-06-05T09:32:54Z</time>
      </trkpt>
      <trkpt lat="44.812" lon="-0.50269">
        <ele>71.300003051758</ele>
        <time>2022-06-05T09:33:04Z</time>
      </trkpt>
      <trkpt lat="44.81196" lon="-0.50257">
        <ele>71.300003051758</ele>
        <time>2022-06-05T09:33:14Z</time>
      </trkpt>
      <trkpt lat="44.81198" lon="-0.50242">
        <ele>71.300003051758</ele>
        <time>2022-06-05T09:33:22Z</time>
      </trkpt>
      <trkpt lat="44.81196" lon="-0.50229">
        <ele>71.300003051758</ele>
        <time>2022-06-05T09:33:31Z</time>
      </trkpt>
      <trkpt lat="44.81195" lon="-0.50216">
        <ele>70.184249413907</ele>
        <time>2022-06-05T09:33:39Z</time>
      </trkpt>
      <trkpt lat="44.81193" lon="-0.50202">
        <ele>69.745034792715</ele>
        <time>2022-06-05T09:33:48Z</time>
      </trkpt>
      <trkpt lat="44.81196" lon="-0.50188">
        <ele>69.064393023862</ele>
        <time>2022-06-05T09:33:54Z</time>
      </trkpt>
      <trkpt lat="44.81197" lon="-0.50174">
        <ele>68.933505864739</ele>
        <time>2022-06-05T09:34:02Z</time>
      </trkpt>
      <trkpt lat="44.81197" lon="-0.50161">
        <ele>68.270397597731</ele>
        <time>2022-06-05T09:34:10Z</time>
      </trkpt>
      <trkpt lat="44.81198" lon="-0.50147">
        <ele>59.635925292969</ele>
        <time>2022-06-05T09:34:17Z</time>
      </trkpt>
      <trkpt lat="44.81198" lon="-0.50133">
        <ele>66.211306437345</ele>
        <time>2022-06-05T09:34:24Z</time>
      </trkpt>
      <trkpt lat="44.81198" lon="-0.5012">
        <ele>65.324581859421</ele>
        <time>2022-06-05T09:34:31Z</time>
      </trkpt>
      <trkpt lat="44.81199" lon="-0.50106">
        <ele>64.2628444702</ele>
        <time>2022-06-05T09:34:39Z</time>
      </trkpt>
      <trkpt lat="44.81199" lon="-0.50093">
        <ele>62.33369885126</ele>
        <time>2022-06-05T09:34:47Z</time>
      </trkpt>
      <trkpt lat="44.81202" lon="-0.50079">
        <ele>61.166585356441</ele>
        <time>2022-06-05T09:34:56Z</time>
      </trkpt>
      <trkpt lat="44.81201" lon="-0.50066">
        <ele>59.281980821037</ele>
        <time>2022-06-05T09:35:04Z</time>
      </trkpt>
      <trkpt lat="44.81199" lon="-0.50051">
        <ele>58.496934010588</ele>
        <time>2022-06-05T09:35:10Z</time>
      </trkpt>
      <trkpt lat="44.81197" lon="-0.50037">
        <ele>57.802828704363</ele>
        <time>2022-06-05T09:35:17Z</time>
      </trkpt>
      <trkpt lat="44.81195" lon="-0.50023">
        <ele>57.102698963512</ele>
        <time>2022-06-05T09:35:24Z</time>
      </trkpt>
      <trkpt lat="44.81196" lon="-0.50009">
        <ele>56.316902525868</ele>
        <time>2022-06-05T09:35:32Z</time>
      </trkpt>
      <trkpt lat="44.81193" lon="-0.49996">
        <ele>53.900001525879</ele>
        <time>2022-06-05T09:35:40Z</time>
      </trkpt>
      <trkpt lat="44.81188" lon="-0.49985">
        <ele>53.700004577637</ele>
        <time>2022-06-05T09:35:49Z</time>
      </trkpt>
      <trkpt lat="44.81185" lon="-0.49971">
        <ele>53.700004577637</ele>
        <time>2022-06-05T09:35:57Z</time>
      </trkpt>
      <trkpt lat="44.81186" lon="-0.49958">
        <ele>51.761257737681</ele>
        <time>2022-06-05T09:36:02Z</time>
      </trkpt>
      <trkpt lat="44.81191" lon="-0.49946">
        <ele>53.700004577637</ele>
        <time>2022-06-05T09:36:08Z</time>
      </trkpt>
      <trkpt lat="44.81191" lon="-0.49933">
        <ele>50.209514640385</ele>
        <time>2022-06-05T09:36:17Z</time>
      </trkpt>
      <trkpt lat="44.8119" lon="-0.49919">
        <ele>49.419825370529</ele>
        <time>2022-06-05T09:36:25Z</time>
      </trkpt>
      <trkpt lat="44.8119" lon="-0.49906">
        <ele>48.819697252521</ele>
        <time>2022-06-05T09:36:31Z</time>
      </trkpt>
      <trkpt lat="44.81191" lon="-0.49891">
        <ele>48.114146501211</ele>
        <time>2022-06-05T09:36:38Z</time>
      </trkpt>
      <trkpt lat="44.81193" lon="-0.49878">
        <ele>46.797605362367</ele>
        <time>2022-06-05T09:36:44Z</time>
      </trkpt>
      <trkpt lat="44.81195" lon="-0.49863">
        <ele>45.493641308368</ele>
        <time>2022-06-05T09:36:54Z</time>
      </trkpt>
      <trkpt lat="44.81199" lon="-0.49849">
        <ele>43.776500479572</ele>
        <time>2022-06-05T09:37:04Z</time>
      </trkpt>
      <trkpt lat="44.81199" lon="-0.49836">
        <ele>53.700004577637</ele>
        <time>2022-06-05T09:37:10Z</time>
      </trkpt>
      <trkpt lat="44.81193" lon="-0.49825">
        <ele>42.193410440292</ele>
        <time>2022-06-05T09:37:16Z</time>
      </trkpt>
      <trkpt lat="44.81199" lon="-0.49815">
        <ele>41.736174420652</ele>
        <time>2022-06-05T09:37:23Z</time>
      </trkpt>
      <trkpt lat="44.81206" lon="-0.49804">
        <ele>40.732643469813</ele>
        <time>2022-06-05T09:37:29Z</time>
      </trkpt>
      <trkpt lat="44.81215" lon="-0.49792">
        <ele>40.080731780836</ele>
        <time>2022-06-05T09:37:35Z</time>
      </trkpt>
      <trkpt lat="44.81221" lon="-0.49781">
        <ele>38.388862845334</ele>
        <time>2022-06-05T09:37:41Z</time>
      </trkpt>
      <trkpt lat="44.81228" lon="-0.4977">
        <ele>37.778186533444</ele>
        <time>2022-06-05T09:37:48Z</time>
      </trkpt>
      <trkpt lat="44.81235" lon="-0.49761">
        <ele>36.65624083809</ele>
        <time>2022-06-05T09:37:58Z</time>
      </trkpt>
      <trkpt lat="44.81243" lon="-0.49755">
        <ele>34.200004577637</ele>
        <time>2022-06-05T09:38:07Z</time>
      </trkpt>
      <trkpt lat="44.81253" lon="-0.4975">
        <ele>34.200004577637</ele>
        <time>2022-06-05T09:38:15Z</time>
      </trkpt>
      <trkpt lat="44.81257" lon="-0.49738">
        <ele>34.200004577637</ele>
        <time>2022-06-05T09:38:23Z</time>
      </trkpt>
      <trkpt lat="44.8126" lon="-0.49726">
        <ele>33.800003051758</ele>
        <time>2022-06-05T09:38:32Z</time>
      </trkpt>
      <trkpt lat="44.81268" lon="-0.49716">
        <ele>32.413862729071</ele>
        <time>2022-06-05T09:38:40Z</time>
      </trkpt>
      <trkpt lat="44.81274" lon="-0.49706">
        <ele>31.488909145474</ele>
        <time>2022-06-05T09:38:48Z</time>
      </trkpt>
      <trkpt lat="44.81276" lon="-0.49693">
        <ele>30.605487190054</ele>
        <time>2022-06-05T09:38:55Z</time>
      </trkpt>
      <trkpt lat="44.81285" lon="-0.4968">
        <ele>30.335587478839</ele>
        <time>2022-06-05T09:39:05Z</time>
      </trkpt>
      <trkpt lat="44.81286" lon="-0.49664">
        <ele>29.595014967373</ele>
        <time>2022-06-05T09:39:12Z</time>
      </trkpt>
      <trkpt lat="44.81283" lon="-0.49651">
        <ele>29.436008750786</ele>
        <time>2022-06-05T09:39:19Z</time>
      </trkpt>
      <trkpt lat="44.81276" lon="-0.49642">
        <ele>28.942559997116</ele>
        <time>2022-06-05T09:39:24Z</time>
      </trkpt>
      <trkpt lat="44.81267" lon="-0.49635">
        <ele>28.438786441285</ele>
        <time>2022-06-05T09:39:33Z</time>
      </trkpt>
      <trkpt lat="44.81264" lon="-0.49621">
        <ele>28.091156953115</ele>
        <time>2022-06-05T09:39:40Z</time>
      </trkpt>
      <trkpt lat="44.8126" lon="-0.49609">
        <ele>27.475296702551</ele>
        <time>2022-06-05T09:39:47Z</time>
      </trkpt>
      <trkpt lat="44.81256" lon="-0.49595">
        <ele>27.184864758518</ele>
        <time>2022-06-05T09:39:54Z</time>
      </trkpt>
      <trkpt lat="44.81257" lon="-0.49581">
        <ele>26.393923492297</ele>
        <time>2022-06-05T09:39:59Z</time>
      </trkpt>
      <trkpt lat="44.81262" lon="-0.49571">
        <ele>20.101745605469</ele>
        <time>2022-06-05T09:40:06Z</time>
      </trkpt>
      <trkpt lat="44.8127" lon="-0.49562">
        <ele>25.148208994824</ele>
        <time>2022-06-05T09:40:18Z</time>
      </trkpt>
      <trkpt lat="44.81275" lon="-0.4955">
        <ele>25.090903131266</ele>
        <time>2022-06-05T09:40:24Z</time>
      </trkpt>
      <trkpt lat="44.81279" lon="-0.49539">
        <ele>24.761477594245</ele>
        <time>2022-06-05T09:40:31Z</time>
      </trkpt>
      <trkpt lat="44.8128" lon="-0.49525">
        <ele>24.757199743464</ele>
        <time>2022-06-05T09:40:38Z</time>
      </trkpt>
      <trkpt lat="44.81282" lon="-0.49511">
        <ele>24.513617486824</ele>
        <time>2022-06-05T09:40:47Z</time>
      </trkpt>
      <trkpt lat="44.81288" lon="-0.495">
        <ele>24.765724957821</ele>
        <time>2022-06-05T09:40:55Z</time>
      </trkpt>
      <trkpt lat="44.81291" lon="-0.49482">
        <ele>24.970008904453</ele>
        <time>2022-06-05T09:41:07Z</time>
      </trkpt>
      <trkpt lat="44.81294" lon="-0.49469">
        <ele>24.768861992707</ele>
        <time>2022-06-05T09:41:14Z</time>
      </trkpt>
      <trkpt lat="44.81293" lon="-0.49454">
        <ele>24.680602548573</ele>
        <time>2022-06-05T09:41:22Z</time>
      </trkpt>
      <trkpt lat="44.81296" lon="-0.4944">
        <ele>24.46336366445</ele>
        <time>2022-06-05T09:41:31Z</time>
      </trkpt>
      <trkpt lat="44.81298" lon="-0.49427">
        <ele>24.226052102941</ele>
        <time>2022-06-05T09:41:39Z</time>
      </trkpt>
      <trkpt lat="44.81295" lon="-0.49415">
        <ele>24.671362355076</ele>
        <time>2022-06-05T09:41:45Z</time>
      </trkpt>
      <trkpt lat="44.81297" lon="-0.49402">
        <ele>24.554752486654</ele>
        <time>2022-06-05T09:41:52Z</time>
      </trkpt>
      <trkpt lat="44.81309" lon="-0.494">
        <ele>24.654325577962</ele>
        <time>2022-06-05T09:42:24Z</time>
      </trkpt>
      <trkpt lat="44.81315" lon="-0.4941">
        <ele>25.711344367856</ele>
        <time>2022-06-05T09:42:31Z</time>
      </trkpt>
      <trkpt lat="44.81325" lon="-0.49417">
        <ele>26.405598696636</ele>
        <time>2022-06-05T09:42:37Z</time>
      </trkpt>
      <trkpt lat="44.81336" lon="-0.49419">
        <ele>27.390570148504</ele>
        <time>2022-06-05T09:42:44Z</time>
      </trkpt>
      <trkpt lat="44.81346" lon="-0.49418">
        <ele>27.976500952341</ele>
        <time>2022-06-05T09:42:48Z</time>
      </trkpt>
      <trkpt lat="44.81355" lon="-0.49426">
        <ele>28.826770004567</ele>
        <time>2022-06-05T09:42:53Z</time>
      </trkpt>
      <trkpt lat="44.81361" lon="-0.49437">
        <ele>29.792542485636</ele>
        <time>2022-06-05T09:43:00Z</time>
      </trkpt>
      <trkpt lat="44.81367" lon="-0.49446">
        <ele>30.77414422228</ele>
        <time>2022-06-05T09:43:16Z</time>
      </trkpt>
      <trkpt lat="44.81379" lon="-0.49451">
        <ele>33.073879708901</ele>
        <time>2022-06-05T09:43:22Z</time>
      </trkpt>
      <trkpt lat="44.81388" lon="-0.49455">
        <ele>34.352577022871</ele>
        <time>2022-06-05T09:43:27Z</time>
      </trkpt>
      <trkpt lat="44.81398" lon="-0.49458">
        <ele>35.645046315305</ele>
        <time>2022-06-05T09:43:35Z</time>
      </trkpt>
      <trkpt lat="44.81407" lon="-0.49462">
        <ele>36.588767635669</ele>
        <time>2022-06-05T09:43:43Z</time>
      </trkpt>
      <trkpt lat="44.81415" lon="-0.49468">
        <ele>38.729281656053</ele>
        <time>2022-06-05T09:43:51Z</time>
      </trkpt>
      <trkpt lat="44.81422" lon="-0.49479">
        <ele>39.858224355069</ele>
        <time>2022-06-05T09:43:58Z</time>
      </trkpt>
      <trkpt lat="44.81426" lon="-0.49491">
        <ele>40.918288387395</ele>
        <time>2022-06-05T09:44:04Z</time>
      </trkpt>
      <trkpt lat="44.81433" lon="-0.49499">
        <ele>41.753657164943</ele>
        <time>2022-06-05T09:44:12Z</time>
      </trkpt>
      <trkpt lat="44.81436" lon="-0.49511">
        <ele>44.142329887484</ele>
        <time>2022-06-05T09:44:35Z</time>
      </trkpt>
      <trkpt lat="44.81448" lon="-0.49522">
        <ele>44.051831073688</ele>
        <time>2022-06-05T09:44:43Z</time>
      </trkpt>
      <trkpt lat="44.81457" lon="-0.49527">
        <ele>32.701293945312</ele>
        <time>2022-06-05T09:44:46Z</time>
      </trkpt>
      <trkpt lat="44.81465" lon="-0.49537">
        <ele>45.119298049547</ele>
        <time>2022-06-05T09:44:53Z</time>
      </trkpt>
      <trkpt lat="44.81468" lon="-0.49552">
        <ele>45.299942207889</ele>
        <time>2022-06-05T09:44:59Z</time>
      </trkpt>
      <trkpt lat="44.81474" lon="-0.49564">
        <ele>45.294208890747</ele>
        <time>2022-06-05T09:45:05Z</time>
      </trkpt>
      <trkpt lat="44.81481" lon="-0.49571">
        <ele>46.075450590916</ele>
        <time>2022-06-05T09:45:19Z</time>
      </trkpt>
      <trkpt lat="44.81489" lon="-0.49579">
        <ele>45.955739481053</ele>
        <time>2022-06-05T09:45:24Z</time>
      </trkpt>
      <trkpt lat="44.81496" lon="-0.49589">
        <ele>46.071718444489</ele>
        <time>2022-06-05T09:45:29Z</time>
      </trkpt>
      <trkpt lat="44.81504" lon="-0.49599">
        <ele>45.47777385646</ele>
        <time>2022-06-05T09:45:37Z</time>
      </trkpt>
      <trkpt lat="44.81513" lon="-0.49602">
        <ele>36.509582519531</ele>
        <time>2022-06-05T09:45:44Z</time>
      </trkpt>
      <trkpt lat="44.81523" lon="-0.49604">
        <ele>45.397462512135</ele>
        <time>2022-06-05T09:45:50Z</time>
      </trkpt>
      <trkpt lat="44.81533" lon="-0.49611">
        <ele>44.757213212418</ele>
        <time>2022-06-05T09:45:56Z</time>
      </trkpt>
      <trkpt lat="44.81538" lon="-0.49621">
        <ele>32.091857910156</ele>
        <time>2022-06-05T09:46:02Z</time>
      </trkpt>
      <trkpt lat="44.81542" lon="-0.49634">
        <ele>43.617743729512</ele>
        <time>2022-06-05T09:46:08Z</time>
      </trkpt>
      <trkpt lat="44.81544" lon="-0.49647">
        <ele>42.110196618916</ele>
        <time>2022-06-05T09:46:14Z</time>
      </trkpt>
      <trkpt lat="44.81547" lon="-0.4966">
        <ele>41.77950767</ele>
        <time>2022-06-05T09:46:20Z</time>
      </trkpt>
      <trkpt lat="44.81552" lon="-0.49673">
        <ele>39.875128792832</ele>
        <time>2022-06-05T09:46:27Z</time>
      </trkpt>
      <trkpt lat="44.8155" lon="-0.49688">
        <ele>38.441627139822</ele>
        <time>2022-06-05T09:46:36Z</time>
      </trkpt>
      <trkpt lat="44.81547" lon="-0.49701">
        <ele>36.171284365284</ele>
        <time>2022-06-05T09:46:42Z</time>
      </trkpt>
      <trkpt lat="44.81544" lon="-0.49714">
        <ele>35.067288729314</ele>
        <time>2022-06-05T09:46:48Z</time>
      </trkpt>
      <trkpt lat="44.81538" lon="-0.49724">
        <ele>33.79820686418</ele>
        <time>2022-06-05T09:47:01Z</time>
      </trkpt>
      <trkpt lat="44.81537" lon="-0.49738">
        <ele>33.208727175879</ele>
        <time>2022-06-05T09:47:08Z</time>
      </trkpt>
      <trkpt lat="44.81547" lon="-0.49741">
        <ele>32.559552617129</ele>
        <time>2022-06-05T09:47:22Z</time>
      </trkpt>
      <trkpt lat="44.81553" lon="-0.4973">
        <ele>34.560917009729</ele>
        <time>2022-06-05T09:47:29Z</time>
      </trkpt>
      <trkpt lat="44.81561" lon="-0.49719">
        <ele>35.64543570325</ele>
        <time>2022-06-05T09:47:34Z</time>
      </trkpt>
      <trkpt lat="44.81566" lon="-0.49707">
        <ele>36.614976894995</ele>
        <time>2022-06-05T09:47:42Z</time>
      </trkpt>
      <trkpt lat="44.81566" lon="-0.49693">
        <ele>38.199106109376</ele>
        <time>2022-06-05T09:47:49Z</time>
      </trkpt>
      <trkpt lat="44.81559" lon="-0.49681">
        <ele>40.337091146613</ele>
        <time>2022-06-05T09:47:54Z</time>
      </trkpt>
      <trkpt lat="44.81563" lon="-0.49668">
        <ele>44.007433660153</ele>
        <time>2022-06-05T09:48:04Z</time>
      </trkpt>
      <trkpt lat="44.81571" lon="-0.49662">
        <ele>45.913586907078</ele>
        <time>2022-06-05T09:48:12Z</time>
      </trkpt>
      <trkpt lat="44.81577" lon="-0.49653">
        <ele>48.867899103035</ele>
        <time>2022-06-05T09:48:19Z</time>
      </trkpt>
      <trkpt lat="44.81577" lon="-0.49639">
        <ele>50.497954032002</ele>
        <time>2022-06-05T09:48:27Z</time>
      </trkpt>
      <trkpt lat="44.81576" lon="-0.49625">
        <ele>53.959377508617</ele>
        <time>2022-06-05T09:48:35Z</time>
      </trkpt>
      <trkpt lat="44.81577" lon="-0.49612">
        <ele>56.539949879287</ele>
        <time>2022-06-05T09:48:43Z</time>
      </trkpt>
      <trkpt lat="44.81584" lon="-0.49602">
        <ele>58.872998161747</ele>
        <time>2022-06-05T09:48:52Z</time>
      </trkpt>
      <trkpt lat="44.81591" lon="-0.49594">
        <ele>61.145670388872</ele>
        <time>2022-06-05T09:48:59Z</time>
      </trkpt>
      <trkpt lat="44.81594" lon="-0.49582">
        <ele>63.746947329267</ele>
        <time>2022-06-05T09:49:11Z</time>
      </trkpt>
      <trkpt lat="44.81595" lon="-0.49569">
        <ele>65.733910284692</ele>
        <time>2022-06-05T09:49:18Z</time>
      </trkpt>
      <trkpt lat="44.81597" lon="-0.49555">
        <ele>66.794215896907</ele>
        <time>2022-06-05T09:49:27Z</time>
      </trkpt>
      <trkpt lat="44.81599" lon="-0.49542">
        <ele>67.983237874658</ele>
        <time>2022-06-05T09:49:34Z</time>
      </trkpt>
      <trkpt lat="44.81604" lon="-0.49529">
        <ele>68.024382492364</ele>
        <time>2022-06-05T09:49:39Z</time>
      </trkpt>
      <trkpt lat="44.81611" lon="-0.49521">
        <ele>68.103289845077</ele>
        <time>2022-06-05T09:49:48Z</time>
      </trkpt>
      <trkpt lat="44.81613" lon="-0.49508">
        <ele>67.771292984781</ele>
        <time>2022-06-05T09:52:13Z</time>
      </trkpt>
      <trkpt lat="44.81615" lon="-0.49494">
        <ele>67.791664688757</ele>
        <time>2022-06-05T09:52:18Z</time>
      </trkpt>
      <trkpt lat="44.81615" lon="-0.4948">
        <ele>67.999458873586</ele>
        <time>2022-06-05T09:52:25Z</time>
      </trkpt>
      <trkpt lat="44.81622" lon="-0.49471">
        <ele>68.154289234133</ele>
        <time>2022-06-05T09:52:33Z</time>
      </trkpt>
      <trkpt lat="44.81632" lon="-0.49473">
        <ele>67.956677300328</ele>
        <time>2022-06-05T09:52:41Z</time>
      </trkpt>
      <trkpt lat="44.81642" lon="-0.49477">
        <ele>68.246755393486</ele>
        <time>2022-06-05T09:52:49Z</time>
      </trkpt>
      <trkpt lat="44.81653" lon="-0.49476">
        <ele>64.394394563914</ele>
        <time>2022-06-05T09:52:58Z</time>
      </trkpt>
      <trkpt lat="44.81663" lon="-0.49478">
        <ele>65.181516351423</ele>
        <time>2022-06-05T09:53:06Z</time>
      </trkpt>
      <trkpt lat="44.81673" lon="-0.49478">
        <ele>64.703912125587</ele>
        <time>2022-06-05T09:53:14Z</time>
      </trkpt>
      <trkpt lat="44.81681" lon="-0.49483">
        <ele>55.584388575616</ele>
        <time>2022-06-05T09:53:23Z</time>
      </trkpt>
      <trkpt lat="44.81691" lon="-0.49489">
        <ele>56.400574167458</ele>
        <time>2022-06-05T09:53:28Z</time>
      </trkpt>
      <trkpt lat="44.81701" lon="-0.49485">
        <ele>53.167339445551</ele>
        <time>2022-06-05T09:53:34Z</time>
      </trkpt>
      <trkpt lat="44.81712" lon="-0.49495">
        <ele>47.769775646208</ele>
        <time>2022-06-05T09:53:45Z</time>
      </trkpt>
      <trkpt lat="44.81722" lon="-0.49502">
        <ele>45.340398094277</ele>
        <time>2022-06-05T09:53:52Z</time>
      </trkpt>
      <trkpt lat="44.81732" lon="-0.49505">
        <ele>43.283834373249</ele>
        <time>2022-06-05T09:54:02Z</time>
      </trkpt>
      <trkpt lat="44.81742" lon="-0.49509">
        <ele>42.331584698882</ele>
        <time>2022-06-05T09:54:09Z</time>
      </trkpt>
      <trkpt lat="44.81751" lon="-0.49512">
        <ele>41.119001518373</ele>
        <time>2022-06-05T09:54:15Z</time>
      </trkpt>
      <trkpt lat="44.81761" lon="-0.4951">
        <ele>38.801528952539</ele>
        <time>2022-06-05T09:54:23Z</time>
      </trkpt>
      <trkpt lat="44.81771" lon="-0.49511">
        <ele>38.326011983251</ele>
        <time>2022-06-05T09:54:31Z</time>
      </trkpt>
      <trkpt lat="44.81781" lon="-0.49511">
        <ele>38.500708276105</ele>
        <time>2022-06-05T09:54:37Z</time>
      </trkpt>
      <trkpt lat="44.81792" lon="-0.4951">
        <ele>36.825341610778</ele>
        <time>2022-06-05T09:54:46Z</time>
      </trkpt>
      <trkpt lat="44.81802" lon="-0.49509">
        <ele>36.531887540326</ele>
        <time>2022-06-05T09:54:53Z</time>
      </trkpt>
      <trkpt lat="44.81811" lon="-0.49511">
        <ele>35.61413909698</ele>
        <time>2022-06-05T09:54:59Z</time>
      </trkpt>
      <trkpt lat="44.81821" lon="-0.49517">
        <ele>35.963283647675</ele>
        <time>2022-06-05T09:55:06Z</time>
      </trkpt>
      <trkpt lat="44.8183" lon="-0.49523">
        <ele>34.544755650988</ele>
        <time>2022-06-05T09:55:15Z</time>
      </trkpt>
      <trkpt lat="44.8184" lon="-0.49526">
        <ele>35.825362105346</ele>
        <time>2022-06-05T09:55:22Z</time>
      </trkpt>
      <trkpt lat="44.8185" lon="-0.49524">
        <ele>33.836728297874</ele>
        <time>2022-06-05T09:55:29Z</time>
      </trkpt>
      <trkpt lat="44.81859" lon="-0.49519">
        <ele>34.553655095032</ele>
        <time>2022-06-05T09:55:37Z</time>
      </trkpt>
      <trkpt lat="44.81866" lon="-0.49509">
        <ele>33.59559441718</ele>
        <time>2022-06-05T09:55:47Z</time>
      </trkpt>
      <trkpt lat="44.81877" lon="-0.4951">
        <ele>34.97816196323</ele>
        <time>2022-06-05T09:56:05Z</time>
      </trkpt>
      <trkpt lat="44.81884" lon="-0.4952">
        <ele>34.361091558783</ele>
        <time>2022-06-05T09:56:13Z</time>
      </trkpt>
      <trkpt lat="44.8189" lon="-0.49531">
        <ele>33.49200163864</ele>
        <time>2022-06-05T09:56:19Z</time>
      </trkpt>
      <trkpt lat="44.81899" lon="-0.49537">
        <ele>34.053688829579</ele>
        <time>2022-06-05T09:56:25Z</time>
      </trkpt>
      <trkpt lat="44.81908" lon="-0.49535">
        <ele>27.56884765625</ele>
        <time>2022-06-05T09:56:31Z</time>
      </trkpt>
      <trkpt lat="44.81919" lon="-0.49539">
        <ele>34.283301127051</ele>
        <time>2022-06-05T09:56:39Z</time>
      </trkpt>
      <trkpt lat="44.81929" lon="-0.49541">
        <ele>34.576741915391</ele>
        <time>2022-06-05T09:56:49Z</time>
      </trkpt>
      <trkpt lat="44.81938" lon="-0.49547">
        <ele>35.398273269911</ele>
        <time>2022-06-05T09:56:56Z</time>
      </trkpt>
      <trkpt lat="44.81947" lon="-0.49555">
        <ele>36.920197254539</ele>
        <time>2022-06-05T09:57:03Z</time>
      </trkpt>
      <trkpt lat="44.81954" lon="-0.49564">
        <ele>31.633239746094</ele>
        <time>2022-06-05T09:57:08Z</time>
      </trkpt>
      <trkpt lat="44.8196" lon="-0.49575">
        <ele>32.678100585938</ele>
        <time>2022-06-05T09:57:14Z</time>
      </trkpt>
      <trkpt lat="44.81968" lon="-0.49584">
        <ele>36.448446991548</ele>
        <time>2022-06-05T09:57:20Z</time>
      </trkpt>
      <trkpt lat="44.81975" lon="-0.49593">
        <ele>37.636756823657</ele>
        <time>2022-06-05T09:57:27Z</time>
      </trkpt>
      <trkpt lat="44.81973" lon="-0.49608">
        <ele>38.327046482913</ele>
        <time>2022-06-05T09:57:35Z</time>
      </trkpt>
      <trkpt lat="44.81965" lon="-0.49618">
        <ele>38.728415668217</ele>
        <time>2022-06-05T09:57:40Z</time>
      </trkpt>
      <trkpt lat="44.81963" lon="-0.49631">
        <ele>39.391233935717</ele>
        <time>2022-06-05T09:57:45Z</time>
      </trkpt>
      <trkpt lat="44.81963" lon="-0.49645">
        <ele>42.36962890625</ele>
        <time>2022-06-05T09:57:51Z</time>
      </trkpt>
      <trkpt lat="44.81968" lon="-0.49656">
        <ele>42.098566109528</ele>
        <time>2022-06-05T09:58:01Z</time>
      </trkpt>
      <trkpt lat="44.81977" lon="-0.49661">
        <ele>43.429855677346</ele>
        <time>2022-06-05T09:58:09Z</time>
      </trkpt>
      <trkpt lat="44.81984" lon="-0.49671">
        <ele>46.118325677129</ele>
        <time>2022-06-05T09:58:18Z</time>
      </trkpt>
      <trkpt lat="44.81991" lon="-0.4968">
        <ele>48.278612042226</ele>
        <time>2022-06-05T09:58:25Z</time>
      </trkpt>
      <trkpt lat="44.81994" lon="-0.49693">
        <ele>48.658785984647</ele>
        <time>2022-06-05T09:58:33Z</time>
      </trkpt>
      <trkpt lat="44.81996" lon="-0.49707">
        <ele>50.857827459745</ele>
        <time>2022-06-05T09:58:40Z</time>
      </trkpt>
      <trkpt lat="44.81996" lon="-0.49721">
        <ele>53.505660016524</ele>
        <time>2022-06-05T09:58:49Z</time>
      </trkpt>
      <trkpt lat="44.81997" lon="-0.49735">
        <ele>53.70243854222</ele>
        <time>2022-06-05T09:58:58Z</time>
      </trkpt>
      <trkpt lat="44.82001" lon="-0.49748">
        <ele>53.634118680658</ele>
        <time>2022-06-05T09:59:06Z</time>
      </trkpt>
      <trkpt lat="44.82007" lon="-0.49757">
        <ele>54.040425098696</ele>
        <time>2022-06-05T09:59:14Z</time>
      </trkpt>
      <trkpt lat="44.82014" lon="-0.49765">
        <ele>56.325816562505</ele>
        <time>2022-06-05T09:59:20Z</time>
      </trkpt>
      <trkpt lat="44.82023" lon="-0.49773">
        <ele>56.388472375237</ele>
        <time>2022-06-05T09:59:26Z</time>
      </trkpt>
      <trkpt lat="44.82031" lon="-0.49779">
        <ele>57.068073013418</ele>
        <time>2022-06-05T09:59:36Z</time>
      </trkpt>
      <trkpt lat="44.82044" lon="-0.4978">
        <ele>58.565109004165</ele>
        <time>2022-06-05T10:00:38Z</time>
      </trkpt>
      <trkpt lat="44.82052" lon="-0.49772">
        <ele>60.435686980602</ele>
        <time>2022-06-05T10:00:43Z</time>
      </trkpt>
      <trkpt lat="44.82062" lon="-0.49767">
        <ele>60.893278427934</ele>
        <time>2022-06-05T10:00:49Z</time>
      </trkpt>
      <trkpt lat="44.82072" lon="-0.49761">
        <ele>60.465161842084</ele>
        <time>2022-06-05T10:00:56Z</time>
      </trkpt>
      <trkpt lat="44.82083" lon="-0.49756">
        <ele>60.970763937664</ele>
        <time>2022-06-05T10:01:02Z</time>
      </trkpt>
      <trkpt lat="44.82093" lon="-0.49753">
        <ele>62.700004577637</ele>
        <time>2022-06-05T10:01:07Z</time>
      </trkpt>
      <trkpt lat="44.82101" lon="-0.49746">
        <ele>62.700004577637</ele>
        <time>2022-06-05T10:01:14Z</time>
      </trkpt>
      <trkpt lat="44.82109" lon="-0.49736">
        <ele>66.099998474121</ele>
        <time>2022-06-05T10:01:21Z</time>
      </trkpt>
      <trkpt lat="44.82118" lon="-0.49749">
        <ele>66.099998474121</ele>
        <time>2022-06-05T10:02:19Z</time>
      </trkpt>
      <trkpt lat="44.82123" lon="-0.4976">
        <ele>66.099998474121</ele>
        <time>2022-06-05T10:02:27Z</time>
      </trkpt>
      <trkpt lat="44.8213" lon="-0.4977">
        <ele>66.099998474121</ele>
        <time>2022-06-05T10:02:36Z</time>
      </trkpt>
      <trkpt lat="44.82136" lon="-0.49781">
        <ele>68.200004577637</ele>
        <time>2022-06-05T10:02:44Z</time>
      </trkpt>
      <trkpt lat="44.82141" lon="-0.49793">
        <ele>68.400001525879</ele>
        <time>2022-06-05T10:02:52Z</time>
      </trkpt>
      <trkpt lat="44.82145" lon="-0.49805">
        <ele>68.400001525879</ele>
        <time>2022-06-05T10:02:59Z</time>
      </trkpt>
      <trkpt lat="44.8215" lon="-0.49817">
        <ele>68.400001525879</ele>
        <time>2022-06-05T10:03:07Z</time>
      </trkpt>
      <trkpt lat="44.82157" lon="-0.4983">
        <ele>68.400001525879</ele>
        <time>2022-06-05T10:03:15Z</time>
      </trkpt>
      <trkpt lat="44.82164" lon="-0.4984">
        <ele>70.099998474121</ele>
        <time>2022-06-05T10:03:22Z</time>
      </trkpt>
      <trkpt lat="44.82171" lon="-0.49851">
        <ele>70.099998474121</ele>
        <time>2022-06-05T10:03:30Z</time>
      </trkpt>
      <trkpt lat="44.82178" lon="-0.49859">
        <ele>70.099998474121</ele>
        <time>2022-06-05T10:03:37Z</time>
      </trkpt>
      <trkpt lat="44.82187" lon="-0.49867">
        <ele>71.700004577637</ele>
        <time>2022-06-05T10:03:44Z</time>
      </trkpt>
      <trkpt lat="44.82195" lon="-0.49877">
        <ele>72.200004577637</ele>
        <time>2022-06-05T10:03:52Z</time>
      </trkpt>
      <trkpt lat="44.82208" lon="-0.49881">
        <ele>72.200004577637</ele>
        <time>2022-06-05T10:04:05Z</time>
      </trkpt>
      <trkpt lat="44.82218" lon="-0.49881">
        <ele>72.200004577637</ele>
        <time>2022-06-05T10:04:19Z</time>
      </trkpt>
      <trkpt lat="44.82228" lon="-0.49879">
        <ele>72.200004577637</ele>
        <time>2022-06-05T10:04:25Z</time>
      </trkpt>
      <trkpt lat="44.82237" lon="-0.49883">
        <ele>72.200004577637</ele>
        <time>2022-06-05T10:04:32Z</time>
      </trkpt>
      <trkpt lat="44.82245" lon="-0.49891">
        <ele>73.5</ele>
        <time>2022-06-05T10:04:42Z</time>
      </trkpt>
      <trkpt lat="44.82251" lon="-0.49902">
        <ele>73.5</ele>
        <time>2022-06-05T10:04:48Z</time>
      </trkpt>
      <trkpt lat="44.82257" lon="-0.49913">
        <ele>73.5</ele>
        <time>2022-06-05T10:04:55Z</time>
      </trkpt>
      <trkpt lat="44.82263" lon="-0.49925">
        <ele>73.5</ele>
        <time>2022-06-05T10:05:02Z</time>
      </trkpt>
      <trkpt lat="44.82269" lon="-0.49935">
        <ele>74.099998474121</ele>
        <time>2022-06-05T10:05:09Z</time>
      </trkpt>
      <trkpt lat="44.82276" lon="-0.49945">
        <ele>74.099998474121</ele>
        <time>2022-06-05T10:05:16Z</time>
      </trkpt>
      <trkpt lat="44.82282" lon="-0.49955">
        <ele>75.300003051758</ele>
        <time>2022-06-05T10:05:24Z</time>
      </trkpt>
      <trkpt lat="44.82289" lon="-0.49964">
        <ele>73.900001525879</ele>
        <time>2022-06-05T10:05:31Z</time>
      </trkpt>
      <trkpt lat="44.82294" lon="-0.49976">
        <ele>74.099998474121</ele>
        <time>2022-06-05T10:05:38Z</time>
      </trkpt>
      <trkpt lat="44.82301" lon="-0.49986">
        <ele>74.099998474121</ele>
        <time>2022-06-05T10:05:45Z</time>
      </trkpt>
      <trkpt lat="44.8231" lon="-0.49992">
        <ele>73.200004577637</ele>
        <time>2022-06-05T10:05:53Z</time>
      </trkpt>
      <trkpt lat="44.82311" lon="-0.50005">
        <ele>74.099998474121</ele>
        <time>2022-06-05T10:05:59Z</time>
      </trkpt>
      <trkpt lat="44.8232" lon="-0.50012">
        <ele>73.200004577637</ele>
        <time>2022-06-05T10:06:10Z</time>
      </trkpt>
      <trkpt lat="44.82328" lon="-0.5002">
        <ele>73.200004577637</ele>
        <time>2022-06-05T10:06:17Z</time>
      </trkpt>
      <trkpt lat="44.82334" lon="-0.5003">
        <ele>71.900001525879</ele>
        <time>2022-06-05T10:06:23Z</time>
      </trkpt>
      <trkpt lat="44.82341" lon="-0.50041">
        <ele>72.300003051758</ele>
        <time>2022-06-05T10:06:30Z</time>
      </trkpt>
      <trkpt lat="44.82343" lon="-0.5006">
        <ele>72.300003051758</ele>
        <time>2022-06-05T10:06:42Z</time>
      </trkpt>
      <trkpt lat="44.82346" lon="-0.50075">
        <ele>71.900001525879</ele>
        <time>2022-06-05T10:06:51Z</time>
      </trkpt>
      <trkpt lat="44.82352" lon="-0.50085">
        <ele>70.58293780237</ele>
        <time>2022-06-05T10:06:58Z</time>
      </trkpt>
      <trkpt lat="44.82359" lon="-0.50095">
        <ele>71.800003051758</ele>
        <time>2022-06-05T10:07:06Z</time>
      </trkpt>
      <trkpt lat="44.82364" lon="-0.50106">
        <ele>71.900001525879</ele>
        <time>2022-06-05T10:07:12Z</time>
      </trkpt>
      <trkpt lat="44.82369" lon="-0.50118">
        <ele>69.720426448244</ele>
        <time>2022-06-05T10:07:17Z</time>
      </trkpt>
      <trkpt lat="44.82374" lon="-0.50132">
        <ele>69</ele>
        <time>2022-06-05T10:07:24Z</time>
      </trkpt>
      <trkpt lat="44.82374" lon="-0.50145">
        <ele>69.060580627581</ele>
        <time>2022-06-05T10:07:33Z</time>
      </trkpt>
      <trkpt lat="44.82374" lon="-0.50159">
        <ele>69</ele>
        <time>2022-06-05T10:07:41Z</time>
      </trkpt>
      <trkpt lat="44.82375" lon="-0.50173">
        <ele>69</ele>
        <time>2022-06-05T10:07:48Z</time>
      </trkpt>
      <trkpt lat="44.82378" lon="-0.5019">
        <ele>68.141970222569</ele>
        <time>2022-06-05T10:07:59Z</time>
      </trkpt>
      <trkpt lat="44.82377" lon="-0.50205">
        <ele>62.541809082031</ele>
        <time>2022-06-05T10:08:06Z</time>
      </trkpt>
      <trkpt lat="44.8238" lon="-0.50219">
        <ele>63.885131835938</ele>
        <time>2022-06-05T10:08:13Z</time>
      </trkpt>
      <trkpt lat="44.82382" lon="-0.50232">
        <ele>69</ele>
        <time>2022-06-05T10:08:20Z</time>
      </trkpt>
      <trkpt lat="44.82378" lon="-0.50244">
        <ele>67.520718362934</ele>
        <time>2022-06-05T10:08:27Z</time>
      </trkpt>
      <trkpt lat="44.8237" lon="-0.50254">
        <ele>69</ele>
        <time>2022-06-05T10:08:35Z</time>
      </trkpt>
      <trkpt lat="44.82362" lon="-0.5026">
        <ele>67.483248791332</ele>
        <time>2022-06-05T10:08:42Z</time>
      </trkpt>
      <trkpt lat="44.82352" lon="-0.50262">
        <ele>59.546813964844</ele>
        <time>2022-06-05T10:08:48Z</time>
      </trkpt>
      <trkpt lat="44.82344" lon="-0.50268">
        <ele>65.700004577637</ele>
        <time>2022-06-05T10:08:56Z</time>
      </trkpt>
      <trkpt lat="44.82334" lon="-0.50269">
        <ele>65.700004577637</ele>
        <time>2022-06-05T10:09:04Z</time>
      </trkpt>
      <trkpt lat="44.82325" lon="-0.5027">
        <ele>63.300003051758</ele>
        <time>2022-06-05T10:09:10Z</time>
      </trkpt>
      <trkpt lat="44.82317" lon="-0.5028">
        <ele>63.300003051758</ele>
        <time>2022-06-05T10:09:17Z</time>
      </trkpt>
      <trkpt lat="44.82314" lon="-0.50292">
        <ele>63.300003051758</ele>
        <time>2022-06-05T10:09:24Z</time>
      </trkpt>
      <trkpt lat="44.82312" lon="-0.50305">
        <ele>63.300003051758</ele>
        <time>2022-06-05T10:09:35Z</time>
      </trkpt>
      <trkpt lat="44.82309" lon="-0.50318">
        <ele>63.300003051758</ele>
        <time>2022-06-05T10:09:44Z</time>
      </trkpt>
      <trkpt lat="44.82305" lon="-0.50331">
        <ele>63.300003051758</ele>
        <time>2022-06-05T10:09:51Z</time>
      </trkpt>
      <trkpt lat="44.823" lon="-0.50343">
        <ele>63.300003051758</ele>
        <time>2022-06-05T10:09:57Z</time>
      </trkpt>
      <trkpt lat="44.82298" lon="-0.50356">
        <ele>61.409171026541</ele>
        <time>2022-06-05T10:10:04Z</time>
      </trkpt>
      <trkpt lat="44.82299" lon="-0.50372">
        <ele>60.600284644742</ele>
        <time>2022-06-05T10:10:10Z</time>
      </trkpt>
      <trkpt lat="44.82296" lon="-0.50386">
        <ele>60.164274651552</ele>
        <time>2022-06-05T10:10:17Z</time>
      </trkpt>
      <trkpt lat="44.82301" lon="-0.50401">
        <ele>59.040710546772</ele>
        <time>2022-06-05T10:10:23Z</time>
      </trkpt>
      <trkpt lat="44.82314" lon="-0.50409">
        <ele>56.877071954116</ele>
        <time>2022-06-05T10:10:40Z</time>
      </trkpt>
      <trkpt lat="44.82315" lon="-0.50427">
        <ele>54.894082322021</ele>
        <time>2022-06-05T10:11:07Z</time>
      </trkpt>
      <trkpt lat="44.8232" lon="-0.50439">
        <ele>53.4743033283</ele>
        <time>2022-06-05T10:11:13Z</time>
      </trkpt>
      <trkpt lat="44.82327" lon="-0.50449">
        <ele>52.102777262811</ele>
        <time>2022-06-05T10:11:21Z</time>
      </trkpt>
      <trkpt lat="44.82334" lon="-0.50459">
        <ele>51.350167906992</ele>
        <time>2022-06-05T10:11:27Z</time>
      </trkpt>
      <trkpt lat="44.82342" lon="-0.50468">
        <ele>49.971438093114</ele>
        <time>2022-06-05T10:11:33Z</time>
      </trkpt>
      <trkpt lat="44.82349" lon="-0.50476">
        <ele>48.850023488493</ele>
        <time>2022-06-05T10:11:40Z</time>
      </trkpt>
      <trkpt lat="44.82359" lon="-0.50484">
        <ele>47.606403302564</ele>
        <time>2022-06-05T10:11:48Z</time>
      </trkpt>
      <trkpt lat="44.82366" lon="-0.50493">
        <ele>45.837493311258</ele>
        <time>2022-06-05T10:11:58Z</time>
      </trkpt>
      <trkpt lat="44.82373" lon="-0.50504">
        <ele>44.369427150518</ele>
        <time>2022-06-05T10:12:07Z</time>
      </trkpt>
      <trkpt lat="44.82382" lon="-0.50512">
        <ele>42.689725016134</ele>
        <time>2022-06-05T10:12:14Z</time>
      </trkpt>
      <trkpt lat="44.8239" lon="-0.5052">
        <ele>42.859422971345</ele>
        <time>2022-06-05T10:12:19Z</time>
      </trkpt>
      <trkpt lat="44.82397" lon="-0.50529">
        <ele>41.795101681306</ele>
        <time>2022-06-05T10:12:24Z</time>
      </trkpt>
      <trkpt lat="44.82403" lon="-0.50543">
        <ele>41.054039765507</ele>
        <time>2022-06-05T10:12:31Z</time>
      </trkpt>
      <trkpt lat="44.82405" lon="-0.50556">
        <ele>39.495038402132</ele>
        <time>2022-06-05T10:12:38Z</time>
      </trkpt>
      <trkpt lat="44.82407" lon="-0.50569">
        <ele>39.115883701978</ele>
        <time>2022-06-05T10:12:46Z</time>
      </trkpt>
      <trkpt lat="44.8241" lon="-0.50582">
        <ele>37.680017765803</ele>
        <time>2022-06-05T10:12:52Z</time>
      </trkpt>
      <trkpt lat="44.82418" lon="-0.5059">
        <ele>36.587974798492</ele>
        <time>2022-06-05T10:12:59Z</time>
      </trkpt>
      <trkpt lat="44.82427" lon="-0.50592">
        <ele>35.533365471807</ele>
        <time>2022-06-05T10:13:08Z</time>
      </trkpt>
      <trkpt lat="44.82438" lon="-0.50591">
        <ele>35.18512304822</ele>
        <time>2022-06-05T10:13:17Z</time>
      </trkpt>
      <trkpt lat="44.82446" lon="-0.50589">
        <ele>34.349779477187</ele>
        <time>2022-06-05T10:13:26Z</time>
      </trkpt>
      <trkpt lat="44.82456" lon="-0.50594">
        <ele>33.706003777571</ele>
        <time>2022-06-05T10:13:34Z</time>
      </trkpt>
      <trkpt lat="44.82465" lon="-0.50603">
        <ele>33.370726829873</ele>
        <time>2022-06-05T10:13:41Z</time>
      </trkpt>
      <trkpt lat="44.82471" lon="-0.50614">
        <ele>32.66917692064</ele>
        <time>2022-06-05T10:13:48Z</time>
      </trkpt>
      <trkpt lat="44.82478" lon="-0.50623">
        <ele>31.718224316694</ele>
        <time>2022-06-05T10:14:00Z</time>
      </trkpt>
      <trkpt lat="44.82479" lon="-0.50636">
        <ele>30.299183757717</ele>
        <time>2022-06-05T10:14:10Z</time>
      </trkpt>
      <trkpt lat="44.82478" lon="-0.5065">
        <ele>29.80690435067</ele>
        <time>2022-06-05T10:14:18Z</time>
      </trkpt>
      <trkpt lat="44.82477" lon="-0.50664">
        <ele>28.337580523022</ele>
        <time>2022-06-05T10:14:26Z</time>
      </trkpt>
      <trkpt lat="44.82487" lon="-0.50661">
        <ele>28.044321290719</ele>
        <time>2022-06-05T10:14:33Z</time>
      </trkpt>
      <trkpt lat="44.82485" lon="-0.50675">
        <ele>27.250898897913</ele>
        <time>2022-06-05T10:14:40Z</time>
      </trkpt>
      <trkpt lat="44.82481" lon="-0.5069">
        <ele>27.410242938147</ele>
        <time>2022-06-05T10:14:45Z</time>
      </trkpt>
      <trkpt lat="44.82478" lon="-0.50704">
        <ele>26.633148081861</ele>
        <time>2022-06-05T10:14:49Z</time>
      </trkpt>
      <trkpt lat="44.82475" lon="-0.50719">
        <ele>25.659194817398</ele>
        <time>2022-06-05T10:14:54Z</time>
      </trkpt>
      <trkpt lat="44.82477" lon="-0.50735">
        <ele>25.592762706249</ele>
        <time>2022-06-05T10:15:00Z</time>
      </trkpt>
      <trkpt lat="44.8248" lon="-0.50751">
        <ele>24.671656775035</ele>
        <time>2022-06-05T10:15:06Z</time>
      </trkpt>
      <trkpt lat="44.82483" lon="-0.50763">
        <ele>25.149873236928</ele>
        <time>2022-06-05T10:15:12Z</time>
      </trkpt>
      <trkpt lat="44.82488" lon="-0.50777">
        <ele>24.474700632616</ele>
        <time>2022-06-05T10:15:20Z</time>
      </trkpt>
      <trkpt lat="44.82496" lon="-0.50784">
        <ele>23.86247926412</ele>
        <time>2022-06-05T10:15:26Z</time>
      </trkpt>
      <trkpt lat="44.82504" lon="-0.50794">
        <ele>23.183495895379</ele>
        <time>2022-06-05T10:15:32Z</time>
      </trkpt>
      <trkpt lat="44.8251" lon="-0.50805">
        <ele>22.311439837152</ele>
        <time>2022-06-05T10:15:39Z</time>
      </trkpt>
      <trkpt lat="44.82518" lon="-0.50813">
        <ele>22.464837743111</ele>
        <time>2022-06-05T10:15:46Z</time>
      </trkpt>
      <trkpt lat="44.82528" lon="-0.50816">
        <ele>21.501262308786</ele>
        <time>2022-06-05T10:15:54Z</time>
      </trkpt>
      <trkpt lat="44.82538" lon="-0.5082">
        <ele>21.780138155957</ele>
        <time>2022-06-05T10:16:03Z</time>
      </trkpt>
      <trkpt lat="44.82547" lon="-0.50823">
        <ele>21.031911120117</ele>
        <time>2022-06-05T10:16:10Z</time>
      </trkpt>
      <trkpt lat="44.82551" lon="-0.50841">
        <ele>19.644534353406</ele>
        <time>2022-06-05T10:16:21Z</time>
      </trkpt>
      <trkpt lat="44.82556" lon="-0.50854">
        <ele>18.274440181366</ele>
        <time>2022-06-05T10:16:29Z</time>
      </trkpt>
      <trkpt lat="44.82562" lon="-0.50865">
        <ele>16.933045632903</ele>
        <time>2022-06-05T10:16:34Z</time>
      </trkpt>
      <trkpt lat="44.8257" lon="-0.50871">
        <ele>16.099978293648</ele>
        <time>2022-06-05T10:16:42Z</time>
      </trkpt>
      <trkpt lat="44.82579" lon="-0.5087">
        <ele>16.67538711615</ele>
        <time>2022-06-05T10:16:51Z</time>
      </trkpt>
      <trkpt lat="44.82589" lon="-0.50874">
        <ele>16.278159360544</ele>
        <time>2022-06-05T10:16:59Z</time>
      </trkpt>
      <trkpt lat="44.82597" lon="-0.50883">
        <ele>13.149274837192</ele>
        <time>2022-06-05T10:17:10Z</time>
      </trkpt>
      <trkpt lat="44.82605" lon="-0.50887">
        <ele>13.92166370488</ele>
        <time>2022-06-05T10:17:20Z</time>
      </trkpt>
      <trkpt lat="44.82616" lon="-0.50888">
        <ele>13.864109714914</ele>
        <time>2022-06-05T10:17:31Z</time>
      </trkpt>
      <trkpt lat="44.82626" lon="-0.50889">
        <ele>13.757641630057</ele>
        <time>2022-06-05T10:17:40Z</time>
      </trkpt>
      <trkpt lat="44.82635" lon="-0.50897">
        <ele>13.992898172965</ele>
        <time>2022-06-05T10:17:44Z</time>
      </trkpt>
      <trkpt lat="44.82643" lon="-0.50926">
        <ele>14.432791746949</ele>
        <time>2022-06-05T10:17:50Z</time>
      </trkpt>
      <trkpt lat="44.82651" lon="-0.50918">
        <ele>16.870094835855</ele>
        <time>2022-06-05T10:18:19Z</time>
      </trkpt>
      <trkpt lat="44.82658" lon="-0.50908">
        <ele>17.933726428524</ele>
        <time>2022-06-05T10:18:25Z</time>
      </trkpt>
      <trkpt lat="44.82664" lon="-0.50897">
        <ele>5.85498046875</ele>
        <time>2022-06-05T10:18:31Z</time>
      </trkpt>
      <trkpt lat="44.82669" lon="-0.50885">
        <ele>17.156886974006</ele>
        <time>2022-06-05T10:18:37Z</time>
      </trkpt>
      <trkpt lat="44.82672" lon="-0.50872">
        <ele>17.442195841431</ele>
        <time>2022-06-05T10:18:43Z</time>
      </trkpt>
      <trkpt lat="44.82678" lon="-0.50861">
        <ele>17.293010067785</ele>
        <time>2022-06-05T10:18:50Z</time>
      </trkpt>
      <trkpt lat="44.82685" lon="-0.5085">
        <ele>13.370300292969</ele>
        <time>2022-06-05T10:18:58Z</time>
      </trkpt>
      <trkpt lat="44.82695" lon="-0.50848">
        <ele>16.420531095977</ele>
        <time>2022-06-05T10:19:07Z</time>
      </trkpt>
      <trkpt lat="44.82701" lon="-0.50858">
        <ele>16.171541167159</ele>
        <time>2022-06-05T10:19:13Z</time>
      </trkpt>
      <trkpt lat="44.82703" lon="-0.50872">
        <ele>16.34939263151</ele>
        <time>2022-06-05T10:19:17Z</time>
      </trkpt>
      <trkpt lat="44.8271" lon="-0.50883">
        <ele>16.345339626559</ele>
        <time>2022-06-05T10:19:24Z</time>
      </trkpt>
      <trkpt lat="44.82716" lon="-0.50894">
        <ele>17.242645517803</ele>
        <time>2022-06-05T10:19:33Z</time>
      </trkpt>
      <trkpt lat="44.8272" lon="-0.50907">
        <ele>13.674499511719</ele>
        <time>2022-06-05T10:19:40Z</time>
      </trkpt>
      <trkpt lat="44.82729" lon="-0.50916">
        <ele>17.385448017582</ele>
        <time>2022-06-05T10:19:46Z</time>
      </trkpt>
      <trkpt lat="44.82739" lon="-0.50915">
        <ele>15.2998046875</ele>
        <time>2022-06-05T10:19:52Z</time>
      </trkpt>
      <trkpt lat="44.82747" lon="-0.50923">
        <ele>18.367495829624</ele>
        <time>2022-06-05T10:19:59Z</time>
      </trkpt>
      <trkpt lat="44.82756" lon="-0.50932">
        <ele>18.287143263641</ele>
        <time>2022-06-05T10:20:06Z</time>
      </trkpt>
      <trkpt lat="44.82763" lon="-0.50941">
        <ele>18.426460575241</ele>
        <time>2022-06-05T10:20:12Z</time>
      </trkpt>
      <trkpt lat="44.82766" lon="-0.50955">
        <ele>18.694381783477</ele>
        <time>2022-06-05T10:20:20Z</time>
      </trkpt>
      <trkpt lat="44.82768" lon="-0.50968">
        <ele>20.529113769531</ele>
        <time>2022-06-05T10:20:27Z</time>
      </trkpt>
      <trkpt lat="44.8277" lon="-0.50981">
        <ele>20.414904845691</ele>
        <time>2022-06-05T10:20:34Z</time>
      </trkpt>
      <trkpt lat="44.82773" lon="-0.50994">
        <ele>20.696279512401</ele>
        <time>2022-06-05T10:20:41Z</time>
      </trkpt>
      <trkpt lat="44.82778" lon="-0.51006">
        <ele>21.721332007196</ele>
        <time>2022-06-05T10:20:50Z</time>
      </trkpt>
      <trkpt lat="44.82785" lon="-0.51015">
        <ele>22.787122349315</ele>
        <time>2022-06-05T10:20:59Z</time>
      </trkpt>
      <trkpt lat="44.82793" lon="-0.51022">
        <ele>22.34113828238</ele>
        <time>2022-06-05T10:21:07Z</time>
      </trkpt>
      <trkpt lat="44.82801" lon="-0.5103">
        <ele>22.214429279604</ele>
        <time>2022-06-05T10:21:17Z</time>
      </trkpt>
      <trkpt lat="44.8281" lon="-0.51036">
        <ele>22.187736845092</ele>
        <time>2022-06-05T10:21:27Z</time>
      </trkpt>
      <trkpt lat="44.82818" lon="-0.51044">
        <ele>22.323812535523</ele>
        <time>2022-06-05T10:21:38Z</time>
      </trkpt>
      <trkpt lat="44.82827" lon="-0.51044">
        <ele>21.468456247795</ele>
        <time>2022-06-05T10:21:54Z</time>
      </trkpt>
      <trkpt lat="44.82836" lon="-0.51047">
        <ele>22.21222394536</ele>
        <time>2022-06-05T10:22:07Z</time>
      </trkpt>
      <trkpt lat="44.82846" lon="-0.51051">
        <ele>22.098076610212</ele>
        <time>2022-06-05T10:22:16Z</time>
      </trkpt>
      <trkpt lat="44.82857" lon="-0.51051">
        <ele>22.156637635347</ele>
        <time>2022-06-05T10:22:21Z</time>
      </trkpt>
      <trkpt lat="44.82867" lon="-0.51053">
        <ele>22.124872083839</ele>
        <time>2022-06-05T10:22:27Z</time>
      </trkpt>
      <trkpt lat="44.82876" lon="-0.51055">
        <ele>22.399945997009</ele>
        <time>2022-06-05T10:22:33Z</time>
      </trkpt>
      <trkpt lat="44.82884" lon="-0.51061">
        <ele>22.467741754351</ele>
        <time>2022-06-05T10:22:39Z</time>
      </trkpt>
      <trkpt lat="44.82893" lon="-0.51069">
        <ele>22.988344103154</ele>
        <time>2022-06-05T10:22:45Z</time>
      </trkpt>
      <trkpt lat="44.82897" lon="-0.51087">
        <ele>22.547746796804</ele>
        <time>2022-06-05T10:22:55Z</time>
      </trkpt>
      <trkpt lat="44.82905" lon="-0.51096">
        <ele>20.822082519531</ele>
        <time>2022-06-05T10:23:03Z</time>
      </trkpt>
      <trkpt lat="44.82911" lon="-0.51109">
        <ele>23.273610210266</ele>
        <time>2022-06-05T10:23:11Z</time>
      </trkpt>
      <trkpt lat="44.82915" lon="-0.51121">
        <ele>23.770355132787</ele>
        <time>2022-06-05T10:23:21Z</time>
      </trkpt>
      <trkpt lat="44.82919" lon="-0.51136">
        <ele>26.095513294428</ele>
        <time>2022-06-05T10:23:28Z</time>
      </trkpt>
      <trkpt lat="44.82917" lon="-0.51156">
        <ele>28.040262674665</ele>
        <time>2022-06-05T10:23:48Z</time>
      </trkpt>
      <trkpt lat="44.82913" lon="-0.51169">
        <ele>28.475567380412</ele>
        <time>2022-06-05T10:23:52Z</time>
      </trkpt>
      <trkpt lat="44.8291" lon="-0.51184">
        <ele>28.891625306534</ele>
        <time>2022-06-05T10:23:59Z</time>
      </trkpt>
      <trkpt lat="44.82905" lon="-0.51196">
        <ele>30.003775927629</ele>
        <time>2022-06-05T10:24:09Z</time>
      </trkpt>
      <trkpt lat="44.82899" lon="-0.51207">
        <ele>30.444245997355</ele>
        <time>2022-06-05T10:24:16Z</time>
      </trkpt>
      <trkpt lat="44.82894" lon="-0.51218">
        <ele>32.019716788223</ele>
        <time>2022-06-05T10:24:25Z</time>
      </trkpt>
      <trkpt lat="44.82892" lon="-0.51231">
        <ele>33.225681954717</ele>
        <time>2022-06-05T10:24:33Z</time>
      </trkpt>
      <trkpt lat="44.82894" lon="-0.51244">
        <ele>34.588415096762</ele>
        <time>2022-06-05T10:24:42Z</time>
      </trkpt>
      <trkpt lat="44.82893" lon="-0.5126">
        <ele>36.371739203324</ele>
        <time>2022-06-05T10:24:52Z</time>
      </trkpt>
      <trkpt lat="44.82889" lon="-0.51272">
        <ele>36.836812795753</ele>
        <time>2022-06-05T10:24:59Z</time>
      </trkpt>
      <trkpt lat="44.82887" lon="-0.51284">
        <ele>37.562420149951</ele>
        <time>2022-06-05T10:25:05Z</time>
      </trkpt>
      <trkpt lat="44.82882" lon="-0.51297">
        <ele>38.832151208089</ele>
        <time>2022-06-05T10:25:13Z</time>
      </trkpt>
      <trkpt lat="44.82875" lon="-0.51308">
        <ele>25.578430175781</ele>
        <time>2022-06-05T10:25:22Z</time>
      </trkpt>
      <trkpt lat="44.82866" lon="-0.51313">
        <ele>26.677795410156</ele>
        <time>2022-06-05T10:25:29Z</time>
      </trkpt>
      <trkpt lat="44.82857" lon="-0.51317">
        <ele>43.621747307662</ele>
        <time>2022-06-05T10:25:37Z</time>
      </trkpt>
      <trkpt lat="44.82847" lon="-0.51323">
        <ele>44.041461701075</ele>
        <time>2022-06-05T10:25:45Z</time>
      </trkpt>
      <trkpt lat="44.82838" lon="-0.51328">
        <ele>45.517553319976</ele>
        <time>2022-06-05T10:25:51Z</time>
      </trkpt>
      <trkpt lat="44.82828" lon="-0.51331">
        <ele>47.295509859632</ele>
        <time>2022-06-05T10:26:00Z</time>
      </trkpt>
      <trkpt lat="44.8282" lon="-0.51338">
        <ele>48.22064356117</ele>
        <time>2022-06-05T10:26:08Z</time>
      </trkpt>
      <trkpt lat="44.8281" lon="-0.51343">
        <ele>50.690215715708</ele>
        <time>2022-06-05T10:26:16Z</time>
      </trkpt>
      <trkpt lat="44.828" lon="-0.51343">
        <ele>50.819448507305</ele>
        <time>2022-06-05T10:26:23Z</time>
      </trkpt>
      <trkpt lat="44.82791" lon="-0.51348">
        <ele>52.455341666451</ele>
        <time>2022-06-05T10:26:30Z</time>
      </trkpt>
      <trkpt lat="44.82786" lon="-0.5136">
        <ele>53.838908582253</ele>
        <time>2022-06-05T10:26:38Z</time>
      </trkpt>
      <trkpt lat="44.82779" lon="-0.51369">
        <ele>56.200004577637</ele>
        <time>2022-06-05T10:26:56Z</time>
      </trkpt>
      <trkpt lat="44.8277" lon="-0.51365">
        <ele>56.200004577637</ele>
        <time>2022-06-05T10:29:41Z</time>
      </trkpt>
      <trkpt lat="44.8276" lon="-0.51369">
        <ele>56.200004577637</ele>
        <time>2022-06-05T10:29:47Z</time>
      </trkpt>
      <trkpt lat="44.82752" lon="-0.51376">
        <ele>56.599998474121</ele>
        <time>2022-06-05T10:29:53Z</time>
      </trkpt>
      <trkpt lat="44.82745" lon="-0.51386">
        <ele>56.900001525879</ele>
        <time>2022-06-05T10:30:00Z</time>
      </trkpt>
      <trkpt lat="44.82741" lon="-0.51401">
        <ele>56.599998474121</ele>
        <time>2022-06-05T10:30:08Z</time>
      </trkpt>
      <trkpt lat="44.82732" lon="-0.51405">
        <ele>56.599998474121</ele>
        <time>2022-06-05T10:30:15Z</time>
      </trkpt>
      <trkpt lat="44.82723" lon="-0.51413">
        <ele>56.900001525879</ele>
        <time>2022-06-05T10:30:24Z</time>
      </trkpt>
      <trkpt lat="44.82714" lon="-0.5142">
        <ele>59.099998474121</ele>
        <time>2022-06-05T10:30:32Z</time>
      </trkpt>
      <trkpt lat="44.82706" lon="-0.51424">
        <ele>60.099998474121</ele>
        <time>2022-06-05T10:30:40Z</time>
      </trkpt>
      <trkpt lat="44.82698" lon="-0.51431">
        <ele>60.099998474121</ele>
        <time>2022-06-05T10:30:47Z</time>
      </trkpt>
      <trkpt lat="44.8269" lon="-0.51438">
        <ele>59.099998474121</ele>
        <time>2022-06-05T10:30:57Z</time>
      </trkpt>
      <trkpt lat="44.82681" lon="-0.51442">
        <ele>60.099998474121</ele>
        <time>2022-06-05T10:31:05Z</time>
      </trkpt>
      <trkpt lat="44.82672" lon="-0.51449">
        <ele>62.200004577637</ele>
        <time>2022-06-05T10:31:11Z</time>
      </trkpt>
      <trkpt lat="44.82664" lon="-0.51457">
        <ele>62.200004577637</ele>
        <time>2022-06-05T10:31:18Z</time>
      </trkpt>
      <trkpt lat="44.82659" lon="-0.51471">
        <ele>62.200004577637</ele>
        <time>2022-06-05T10:31:24Z</time>
      </trkpt>
      <trkpt lat="44.82665" lon="-0.51483">
        <ele>62.200004577637</ele>
        <time>2022-06-05T10:31:33Z</time>
      </trkpt>
      <trkpt lat="44.82667" lon="-0.51496">
        <ele>62.200004577637</ele>
        <time>2022-06-05T10:31:39Z</time>
      </trkpt>
      <trkpt lat="44.82672" lon="-0.51508">
        <ele>62.200004577637</ele>
        <time>2022-06-05T10:31:47Z</time>
      </trkpt>
      <trkpt lat="44.82677" lon="-0.5152">
        <ele>62.200004577637</ele>
        <time>2022-06-05T10:31:54Z</time>
      </trkpt>
      <trkpt lat="44.8268" lon="-0.51533">
        <ele>62.200004577637</ele>
        <time>2022-06-05T10:32:06Z</time>
      </trkpt>
      <trkpt lat="44.82687" lon="-0.51549">
        <ele>62.200004577637</ele>
        <time>2022-06-05T10:32:16Z</time>
      </trkpt>
      <trkpt lat="44.82694" lon="-0.51559">
        <ele>62.200004577637</ele>
        <time>2022-06-05T10:32:22Z</time>
      </trkpt>
      <trkpt lat="44.82697" lon="-0.51573">
        <ele>62.200004577637</ele>
        <time>2022-06-05T10:32:30Z</time>
      </trkpt>
      <trkpt lat="44.82699" lon="-0.51587">
        <ele>62.200004577637</ele>
        <time>2022-06-05T10:32:38Z</time>
      </trkpt>
      <trkpt lat="44.82703" lon="-0.51599">
        <ele>62.200004577637</ele>
        <time>2022-06-05T10:32:47Z</time>
      </trkpt>
      <trkpt lat="44.82707" lon="-0.51611">
        <ele>62.200004577637</ele>
        <time>2022-06-05T10:32:53Z</time>
      </trkpt>
      <trkpt lat="44.82712" lon="-0.51624">
        <ele>62.200004577637</ele>
        <time>2022-06-05T10:33:00Z</time>
      </trkpt>
      <trkpt lat="44.82718" lon="-0.51636">
        <ele>62.200004577637</ele>
        <time>2022-06-05T10:33:07Z</time>
      </trkpt>
      <trkpt lat="44.82725" lon="-0.51646">
        <ele>62.200004577637</ele>
        <time>2022-06-05T10:33:13Z</time>
      </trkpt>
      <trkpt lat="44.82732" lon="-0.51656">
        <ele>59.502319335938</ele>
        <time>2022-06-05T10:33:21Z</time>
      </trkpt>
      <trkpt lat="44.82739" lon="-0.51666">
        <ele>62.200004577637</ele>
        <time>2022-06-05T10:33:28Z</time>
      </trkpt>
      <trkpt lat="44.82746" lon="-0.51676">
        <ele>56.432678222656</ele>
        <time>2022-06-05T10:33:35Z</time>
      </trkpt>
      <trkpt lat="44.82752" lon="-0.51688">
        <ele>62.200004577637</ele>
        <time>2022-06-05T10:33:43Z</time>
      </trkpt>
      <trkpt lat="44.8276" lon="-0.51696">
        <ele>62.200004577637</ele>
        <time>2022-06-05T10:33:50Z</time>
      </trkpt>
      <trkpt lat="44.82769" lon="-0.51703">
        <ele>62.700004577637</ele>
        <time>2022-06-05T10:33:58Z</time>
      </trkpt>
      <trkpt lat="44.82776" lon="-0.51712">
        <ele>63.599998474121</ele>
        <time>2022-06-05T10:34:06Z</time>
      </trkpt>
      <trkpt lat="44.82783" lon="-0.51723">
        <ele>62.700004577637</ele>
        <time>2022-06-05T10:34:14Z</time>
      </trkpt>
      <trkpt lat="44.8279" lon="-0.51731">
        <ele>62.700004577637</ele>
        <time>2022-06-05T10:34:21Z</time>
      </trkpt>
      <trkpt lat="44.82795" lon="-0.51742">
        <ele>63.599998474121</ele>
        <time>2022-06-05T10:34:28Z</time>
      </trkpt>
      <trkpt lat="44.828" lon="-0.51753">
        <ele>63.599998474121</ele>
        <time>2022-06-05T10:34:35Z</time>
      </trkpt>
      <trkpt lat="44.82806" lon="-0.51764">
        <ele>62.700004577637</ele>
        <time>2022-06-05T10:34:42Z</time>
      </trkpt>
      <trkpt lat="44.82811" lon="-0.51777">
        <ele>62.300003051758</ele>
        <time>2022-06-05T10:34:50Z</time>
      </trkpt>
      <trkpt lat="44.82819" lon="-0.51787">
        <ele>62.700004577637</ele>
        <time>2022-06-05T10:34:57Z</time>
      </trkpt>
      <trkpt lat="44.82824" lon="-0.51801">
        <ele>62.700004577637</ele>
        <time>2022-06-05T10:35:05Z</time>
      </trkpt>
      <trkpt lat="44.82821" lon="-0.51814">
        <ele>62.700004577637</ele>
        <time>2022-06-05T10:35:14Z</time>
      </trkpt>
      <trkpt lat="44.82814" lon="-0.51823">
        <ele>62.700004577637</ele>
        <time>2022-06-05T10:35:25Z</time>
      </trkpt>
      <trkpt lat="44.82806" lon="-0.5183">
        <ele>62.700004577637</ele>
        <time>2022-06-05T10:35:31Z</time>
      </trkpt>
      <trkpt lat="44.82798" lon="-0.51839">
        <ele>60.67759160006</ele>
        <time>2022-06-05T10:35:39Z</time>
      </trkpt>
      <trkpt lat="44.8279" lon="-0.51847">
        <ele>60.54772037247</ele>
        <time>2022-06-05T10:35:46Z</time>
      </trkpt>
      <trkpt lat="44.82783" lon="-0.51857">
        <ele>59.205331375325</ele>
        <time>2022-06-05T10:35:56Z</time>
      </trkpt>
      <trkpt lat="44.82766" lon="-0.51865">
        <ele>62.700004577637</ele>
        <time>2022-06-05T10:36:07Z</time>
      </trkpt>
      <trkpt lat="44.82757" lon="-0.51873">
        <ele>58.217526915625</ele>
        <time>2022-06-05T10:36:13Z</time>
      </trkpt>
      <trkpt lat="44.82756" lon="-0.51886">
        <ele>58.108567818772</ele>
        <time>2022-06-05T10:36:19Z</time>
      </trkpt>
      <trkpt lat="44.82761" lon="-0.51897">
        <ele>59.099998474121</ele>
        <time>2022-06-05T10:36:27Z</time>
      </trkpt>
      <trkpt lat="44.82768" lon="-0.51908">
        <ele>58.763334953309</ele>
        <time>2022-06-05T10:36:33Z</time>
      </trkpt>
      <trkpt lat="44.82776" lon="-0.5192">
        <ele>58.595324969513</ele>
        <time>2022-06-05T10:36:39Z</time>
      </trkpt>
      <trkpt lat="44.82781" lon="-0.51933">
        <ele>58.708360055338</ele>
        <time>2022-06-05T10:36:45Z</time>
      </trkpt>
      <trkpt lat="44.82787" lon="-0.51943">
        <ele>59.099998474121</ele>
        <time>2022-06-05T10:36:52Z</time>
      </trkpt>
      <trkpt lat="44.82796" lon="-0.51947">
        <ele>59.151870281994</ele>
        <time>2022-06-05T10:37:01Z</time>
      </trkpt>
      <trkpt lat="44.82802" lon="-0.51962">
        <ele>58.999066459745</ele>
        <time>2022-06-05T10:37:11Z</time>
      </trkpt>
      <trkpt lat="44.82804" lon="-0.51974">
        <ele>59.099998474121</ele>
        <time>2022-06-05T10:37:18Z</time>
      </trkpt>
      <trkpt lat="44.82815" lon="-0.51984">
        <ele>59.360614154465</ele>
        <time>2022-06-05T10:37:31Z</time>
      </trkpt>
      <trkpt lat="44.82824" lon="-0.51982">
        <ele>60.428626493655</ele>
        <time>2022-06-05T10:37:37Z</time>
      </trkpt>
      <trkpt lat="44.82835" lon="-0.51982">
        <ele>60.5</ele>
        <time>2022-06-05T10:37:43Z</time>
      </trkpt>
      <trkpt lat="44.82845" lon="-0.51983">
        <ele>60.5</ele>
        <time>2022-06-05T10:37:48Z</time>
      </trkpt>
      <trkpt lat="44.82854" lon="-0.51989">
        <ele>61.706464853027</ele>
        <time>2022-06-05T10:37:54Z</time>
      </trkpt>
      <trkpt lat="44.8286" lon="-0.52">
        <ele>62.27178259693</ele>
        <time>2022-06-05T10:38:00Z</time>
      </trkpt>
      <trkpt lat="44.82867" lon="-0.52009">
        <ele>62.099998474121</ele>
        <time>2022-06-05T10:38:06Z</time>
      </trkpt>
      <trkpt lat="44.82869" lon="-0.52025">
        <ele>62.099998474121</ele>
        <time>2022-06-05T10:38:31Z</time>
      </trkpt>
      <trkpt lat="44.82878" lon="-0.52032">
        <ele>62.900001525879</ele>
        <time>2022-06-05T10:39:13Z</time>
      </trkpt>
      <trkpt lat="44.82887" lon="-0.52036">
        <ele>62.099998474121</ele>
        <time>2022-06-05T10:39:20Z</time>
      </trkpt>
      <trkpt lat="44.82896" lon="-0.5204">
        <ele>62.099998474121</ele>
        <time>2022-06-05T10:39:26Z</time>
      </trkpt>
      <trkpt lat="44.82905" lon="-0.52047">
        <ele>62.900001525879</ele>
        <time>2022-06-05T10:39:32Z</time>
      </trkpt>
      <trkpt lat="44.82914" lon="-0.52053">
        <ele>62.900001525879</ele>
        <time>2022-06-05T10:39:38Z</time>
      </trkpt>
      <trkpt lat="44.82921" lon="-0.52062">
        <ele>62.099998474121</ele>
        <time>2022-06-05T10:39:44Z</time>
      </trkpt>
      <trkpt lat="44.8293" lon="-0.52069">
        <ele>62.099998474121</ele>
        <time>2022-06-05T10:39:50Z</time>
      </trkpt>
      <trkpt lat="44.82938" lon="-0.52077">
        <ele>62.099998474121</ele>
        <time>2022-06-05T10:39:56Z</time>
      </trkpt>
      <trkpt lat="44.82946" lon="-0.52086">
        <ele>61.567203043811</ele>
        <time>2022-06-05T10:40:03Z</time>
      </trkpt>
      <trkpt lat="44.82951" lon="-0.521">
        <ele>62.900001525879</ele>
        <time>2022-06-05T10:40:10Z</time>
      </trkpt>
      <trkpt lat="44.82958" lon="-0.52108">
        <ele>62.099998474121</ele>
        <time>2022-06-05T10:40:16Z</time>
      </trkpt>
      <trkpt lat="44.82966" lon="-0.52118">
        <ele>62.099998474121</ele>
        <time>2022-06-05T10:40:25Z</time>
      </trkpt>
      <trkpt lat="44.82975" lon="-0.5213">
        <ele>62.196268530218</ele>
        <time>2022-06-05T10:41:49Z</time>
      </trkpt>
      <trkpt lat="44.82989" lon="-0.52147">
        <ele>59.515445381939</ele>
        <time>2022-06-05T10:42:01Z</time>
      </trkpt>
      <trkpt lat="44.82994" lon="-0.52159">
        <ele>59.336170588471</ele>
        <time>2022-06-05T10:42:09Z</time>
      </trkpt>
      <trkpt lat="44.82997" lon="-0.52174">
        <ele>58.550026003529</ele>
        <time>2022-06-05T10:42:17Z</time>
      </trkpt>
      <trkpt lat="44.82995" lon="-0.52188">
        <ele>58.169135943904</ele>
        <time>2022-06-05T10:42:24Z</time>
      </trkpt>
      <trkpt lat="44.82991" lon="-0.52201">
        <ele>57.88709332883</ele>
        <time>2022-06-05T10:42:30Z</time>
      </trkpt>
      <trkpt lat="44.8299" lon="-0.52215">
        <ele>58.161054035895</ele>
        <time>2022-06-05T10:42:37Z</time>
      </trkpt>
      <trkpt lat="44.82998" lon="-0.52225">
        <ele>59.136572551569</ele>
        <time>2022-06-05T10:42:46Z</time>
      </trkpt>
      <trkpt lat="44.83007" lon="-0.52234">
        <ele>58.888423402096</ele>
        <time>2022-06-05T10:42:52Z</time>
      </trkpt>
      <trkpt lat="44.8301" lon="-0.52248">
        <ele>57.874874215528</ele>
        <time>2022-06-05T10:43:00Z</time>
      </trkpt>
      <trkpt lat="44.83003" lon="-0.52258">
        <ele>57.645846470945</ele>
        <time>2022-06-05T10:43:07Z</time>
      </trkpt>
      <trkpt lat="44.82994" lon="-0.52259">
        <ele>56.580337919943</ele>
        <time>2022-06-05T10:43:14Z</time>
      </trkpt>
      <trkpt lat="44.8299" lon="-0.52271">
        <ele>57.813153087131</ele>
        <time>2022-06-05T10:43:22Z</time>
      </trkpt>
      <trkpt lat="44.82997" lon="-0.5228">
        <ele>56.91266720606</ele>
        <time>2022-06-05T10:43:30Z</time>
      </trkpt>
      <trkpt lat="44.83002" lon="-0.52292">
        <ele>55.746162668837</ele>
        <time>2022-06-05T10:43:38Z</time>
      </trkpt>
      <trkpt lat="44.83004" lon="-0.52305">
        <ele>54.90131721323</ele>
        <time>2022-06-05T10:43:47Z</time>
      </trkpt>
      <trkpt lat="44.83001" lon="-0.52318">
        <ele>53.368931740412</ele>
        <time>2022-06-05T10:43:56Z</time>
      </trkpt>
      <trkpt lat="44.83003" lon="-0.52331">
        <ele>45.244079589844</ele>
        <time>2022-06-05T10:44:04Z</time>
      </trkpt>
      <trkpt lat="44.8301" lon="-0.52341">
        <ele>45.650695800781</ele>
        <time>2022-06-05T10:44:09Z</time>
      </trkpt>
      <trkpt lat="44.8302" lon="-0.52344">
        <ele>49.996462422734</ele>
        <time>2022-06-05T10:44:22Z</time>
      </trkpt>
      <trkpt lat="44.83021" lon="-0.52357">
        <ele>49.754155878849</ele>
        <time>2022-06-05T10:44:31Z</time>
      </trkpt>
      <trkpt lat="44.83024" lon="-0.5237">
        <ele>48.968348714595</ele>
        <time>2022-06-05T10:47:22Z</time>
      </trkpt>
      <trkpt lat="44.83032" lon="-0.52377">
        <ele>45.847616481086</ele>
        <time>2022-06-05T10:47:40Z</time>
      </trkpt>
      <trkpt lat="44.83038" lon="-0.52387">
        <ele>44.645831344456</ele>
        <time>2022-06-05T10:47:45Z</time>
      </trkpt>
      <trkpt lat="44.83044" lon="-0.52397">
        <ele>43.594625803768</ele>
        <time>2022-06-05T10:47:52Z</time>
      </trkpt>
      <trkpt lat="44.83047" lon="-0.52412">
        <ele>40.935946032327</ele>
        <time>2022-06-05T10:48:01Z</time>
      </trkpt>
      <trkpt lat="44.83043" lon="-0.52424">
        <ele>36.569226177678</ele>
        <time>2022-06-05T10:48:11Z</time>
      </trkpt>
      <trkpt lat="44.83043" lon="-0.52438">
        <ele>33.429278839311</ele>
        <time>2022-06-05T10:48:19Z</time>
      </trkpt>
      <trkpt lat="44.83052" lon="-0.52432">
        <ele>32.828971271596</ele>
        <time>2022-06-05T10:48:26Z</time>
      </trkpt>
      <trkpt lat="44.83064" lon="-0.52428">
        <ele>27.9978280542</ele>
        <time>2022-06-05T10:48:54Z</time>
      </trkpt>
      <trkpt lat="44.83075" lon="-0.52434">
        <ele>22.381776998021</ele>
        <time>2022-06-05T10:49:12Z</time>
      </trkpt>
      <trkpt lat="44.83083" lon="-0.52438">
        <ele>17.566162396598</ele>
        <time>2022-06-05T10:49:35Z</time>
      </trkpt>
      <trkpt lat="44.83092" lon="-0.52444">
        <ele>15.816088808789</ele>
        <time>2022-06-05T10:49:41Z</time>
      </trkpt>
      <trkpt lat="44.83101" lon="-0.52444">
        <ele>14.4343747789</ele>
        <time>2022-06-05T10:49:45Z</time>
      </trkpt>
      <trkpt lat="44.8311" lon="-0.52449">
        <ele>14.26985043417</ele>
        <time>2022-06-05T10:49:58Z</time>
      </trkpt>
      <trkpt lat="44.8312" lon="-0.52456">
        <ele>13.578185562714</ele>
        <time>2022-06-05T10:50:03Z</time>
      </trkpt>
      <trkpt lat="44.83126" lon="-0.52445">
        <ele>14.19899806771</ele>
        <time>2022-06-05T10:50:20Z</time>
      </trkpt>
      <trkpt lat="44.8312" lon="-0.52474">
        <ele>8.4000015258789</ele>
        <time>2022-06-05T11:17:38Z</time>
      </trkpt>
      <trkpt lat="44.83122" lon="-0.52453">
        <ele>8.4000015258789</ele>
        <time>2022-06-05T11:17:42Z</time>
      </trkpt>
      <trkpt lat="44.83122" lon="-0.52456">
        <ele>8.4000015258789</ele>
        <time>2022-06-05T11:18:00Z</time>
      </trkpt>
      <trkpt lat="44.83123" lon="-0.52452">
        <ele>8.4000015258789</ele>
        <time>2022-06-05T11:18:20Z</time>
      </trkpt>
      <trkpt lat="44.83124" lon="-0.52434">
        <ele>8.4000015258789</ele>
        <time>2022-06-05T11:18:23Z</time>
      </trkpt>
      <trkpt lat="44.83124" lon="-0.52449">
        <ele>8.7000007629395</ele>
        <time>2022-06-05T11:22:19Z</time>
      </trkpt>
      <trkpt lat="44.83115" lon="-0.52477">
        <ele>8.4000015258789</ele>
        <time>2022-06-05T11:22:34Z</time>
      </trkpt>
      <trkpt lat="44.83119" lon="-0.52458">
        <ele>8.7000007629395</ele>
        <time>2022-06-05T11:22:39Z</time>
      </trkpt>
      <trkpt lat="44.83123" lon="-0.52439">
        <ele>8.4000015258789</ele>
        <time>2022-06-05T11:22:44Z</time>
      </trkpt>
      <trkpt lat="44.83118" lon="-0.52463">
        <ele>8.4000015258789</ele>
        <time>2022-06-05T11:23:04Z</time>
      </trkpt>
      <trkpt lat="44.83115" lon="-0.52486">
        <ele>8.7000007629395</ele>
        <time>2022-06-05T11:23:09Z</time>
      </trkpt>
      <trkpt lat="44.83114" lon="-0.52503">
        <ele>8.7000007629395</ele>
        <time>2022-06-05T11:23:14Z</time>
      </trkpt>
      <trkpt lat="44.83111" lon="-0.52516">
        <ele>8.4000015258789</ele>
        <time>2022-06-05T11:23:19Z</time>
      </trkpt>
      <trkpt lat="44.83118" lon="-0.52468">
        <ele>8.4000015258789</ele>
        <time>2022-06-05T11:23:31Z</time>
      </trkpt>
      <trkpt lat="44.8312" lon="-0.52452">
        <ele>8.4000015258789</ele>
        <time>2022-06-05T11:23:49Z</time>
      </trkpt>
      <trkpt lat="44.83114" lon="-0.52476">
        <ele>8.4000015258789</ele>
        <time>2022-06-05T11:23:54Z</time>
      </trkpt>
      <trkpt lat="44.83109" lon="-0.52492">
        <ele>8.4000015258789</ele>
        <time>2022-06-05T11:23:57Z</time>
      </trkpt>
      <trkpt lat="44.83115" lon="-0.52472">
        <ele>8.4000015258789</ele>
        <time>2022-06-05T11:24:00Z</time>
      </trkpt>
      <trkpt lat="44.83112" lon="-0.52486">
        <ele>8.4000015258789</ele>
        <time>2022-06-05T11:24:04Z</time>
      </trkpt>
      <trkpt lat="44.8311" lon="-0.52502">
        <ele>8.4000015258789</ele>
        <time>2022-06-05T11:24:09Z</time>
      </trkpt>
      <trkpt lat="44.83117" lon="-0.52468">
        <ele>8.7000007629395</ele>
        <time>2022-06-05T11:24:14Z</time>
      </trkpt>
      <trkpt lat="44.83124" lon="-0.52438">
        <ele>8.4000015258789</ele>
        <time>2022-06-05T11:24:19Z</time>
      </trkpt>
      <trkpt lat="44.83119" lon="-0.52466">
        <ele>8.4000015258789</ele>
        <time>2022-06-05T11:24:56Z</time>
      </trkpt>
      <trkpt lat="44.83116" lon="-0.52465">
        <ele>8.4000015258789</ele>
        <time>2022-06-05T11:25:02Z</time>
      </trkpt>
      <trkpt lat="44.83108" lon="-0.5249">
        <ele>8.4000015258789</ele>
        <time>2022-06-05T11:25:06Z</time>
      </trkpt>
      <trkpt lat="44.83103" lon="-0.52513">
        <ele>8.4000015258789</ele>
        <time>2022-06-05T11:25:10Z</time>
      </trkpt>
      <trkpt lat="44.83098" lon="-0.52525">
        <ele>8.4000015258789</ele>
        <time>2022-06-05T11:25:31Z</time>
      </trkpt>
      <trkpt lat="44.8309" lon="-0.52533">
        <ele>7.6000022888184</ele>
        <time>2022-06-05T11:25:40Z</time>
      </trkpt>
      <trkpt lat="44.83088" lon="-0.52514">
        <ele>8.4000015258789</ele>
        <time>2022-06-05T11:25:45Z</time>
      </trkpt>
      <trkpt lat="44.83096" lon="-0.52485">
        <ele>8.4000015258789</ele>
        <time>2022-06-05T11:25:49Z</time>
      </trkpt>
      <trkpt lat="44.83098" lon="-0.52502">
        <ele>8.4000015258789</ele>
        <time>2022-06-05T11:25:53Z</time>
      </trkpt>
      <trkpt lat="44.83085" lon="-0.5251">
        <ele>8.4000015258789</ele>
        <time>2022-06-05T11:26:20Z</time>
      </trkpt>
      <trkpt lat="44.83074" lon="-0.5251">
        <ele>8.4000015258789</ele>
        <time>2022-06-05T11:26:24Z</time>
      </trkpt>
      <trkpt lat="44.83064" lon="-0.52506">
        <ele>8.4000015258789</ele>
        <time>2022-06-05T11:26:35Z</time>
      </trkpt>
      <trkpt lat="44.83071" lon="-0.52516">
        <ele>8.4000015258789</ele>
        <time>2022-06-05T11:26:50Z</time>
      </trkpt>
      <trkpt lat="44.83063" lon="-0.52524">
        <ele>6.7000007629395</ele>
        <time>2022-06-05T11:27:55Z</time>
      </trkpt>
      <trkpt lat="44.83074" lon="-0.5253">
        <ele>8.4000015258789</ele>
        <time>2022-06-05T11:28:05Z</time>
      </trkpt>
      <trkpt lat="44.83104" lon="-0.52539">
        <ele>8.4000015258789</ele>
        <time>2022-06-05T11:28:09Z</time>
      </trkpt>
      <trkpt lat="44.83116" lon="-0.52546">
        <ele>8.4000015258789</ele>
        <time>2022-06-05T11:28:15Z</time>
      </trkpt>
      <trkpt lat="44.83103" lon="-0.52541">
        <ele>8.4000015258789</ele>
        <time>2022-06-05T11:28:20Z</time>
      </trkpt>
      <trkpt lat="44.83089" lon="-0.52537">
        <ele>8.4000015258789</ele>
        <time>2022-06-05T11:28:30Z</time>
      </trkpt>
      <trkpt lat="44.83066" lon="-0.52528">
        <ele>8.4000015258789</ele>
        <time>2022-06-05T11:28:35Z</time>
      </trkpt>
      <trkpt lat="44.83104" lon="-0.52523">
        <ele>8.4000015258789</ele>
        <time>2022-06-05T11:28:51Z</time>
      </trkpt>
      <trkpt lat="44.83064" lon="-0.52525">
        <ele>8.4000015258789</ele>
        <time>2022-06-05T11:29:06Z</time>
      </trkpt>
      <trkpt lat="44.83055" lon="-0.52526">
        <ele>8.4000015258789</ele>
        <time>2022-06-05T11:29:11Z</time>
      </trkpt>
      <trkpt lat="44.83079" lon="-0.52539">
        <ele>8.4000015258789</ele>
        <time>2022-06-05T11:29:16Z</time>
      </trkpt>
      <trkpt lat="44.8308" lon="-0.52538">
        <ele>8.4000015258789</ele>
        <time>2022-06-05T11:29:21Z</time>
      </trkpt>
      <trkpt lat="44.83084" lon="-0.52534">
        <ele>8.4000015258789</ele>
        <time>2022-06-05T11:30:12Z</time>
      </trkpt>
      <trkpt lat="44.83061" lon="-0.52525">
        <ele>8.4000015258789</ele>
        <time>2022-06-05T11:30:20Z</time>
      </trkpt>
      <trkpt lat="44.83074" lon="-0.52525">
        <ele>8.4000015258789</ele>
        <time>2022-06-05T11:32:52Z</time>
      </trkpt>
      <trkpt lat="44.83095" lon="-0.52525">
        <ele>7.6000022888184</ele>
        <time>2022-06-05T11:32:59Z</time>
      </trkpt>
      <trkpt lat="44.83074" lon="-0.52533">
        <ele>7.6000022888184</ele>
        <time>2022-06-05T11:33:06Z</time>
      </trkpt>
      <trkpt lat="44.8307" lon="-0.52545">
        <ele>8.4000015258789</ele>
        <time>2022-06-05T11:33:23Z</time>
      </trkpt>
      <trkpt lat="44.83067" lon="-0.52559">
        <ele>7.2000007629395</ele>
        <time>2022-06-05T11:33:33Z</time>
      </trkpt>
      <trkpt lat="44.83065" lon="-0.52574">
        <ele>6.8000030517578</ele>
        <time>2022-06-05T11:33:39Z</time>
      </trkpt>
      <trkpt lat="44.83073" lon="-0.52608">
        <ele>6.9000015258789</ele>
        <time>2022-06-05T11:34:55Z</time>
      </trkpt>
      <trkpt lat="44.83073" lon="-0.52607">
        <ele>6.9000015258789</ele>
        <time>2022-06-05T11:35:00Z</time>
      </trkpt>
      <trkpt lat="44.83065" lon="-0.52611">
        <ele>6.8000030517578</ele>
        <time>2022-06-05T11:36:36Z</time>
      </trkpt>
      <trkpt lat="44.83065" lon="-0.52626">
        <ele>6.9000015258789</ele>
        <time>2022-06-05T11:36:42Z</time>
      </trkpt>
      <trkpt lat="44.8307" lon="-0.52638">
        <ele>6.9000015258789</ele>
        <time>2022-06-05T11:36:49Z</time>
      </trkpt>
      <trkpt lat="44.83077" lon="-0.52647">
        <ele>6.8000030517578</ele>
        <time>2022-06-05T11:36:56Z</time>
      </trkpt>
      <trkpt lat="44.83086" lon="-0.52642">
        <ele>6.8000030517578</ele>
        <time>2022-06-05T11:37:02Z</time>
      </trkpt>
      <trkpt lat="44.83091" lon="-0.52631">
        <ele>6.8000030517578</ele>
        <time>2022-06-05T11:37:24Z</time>
      </trkpt>
      <trkpt lat="44.83097" lon="-0.52619">
        <ele>7.6000022888184</ele>
        <time>2022-06-05T11:37:30Z</time>
      </trkpt>
      <trkpt lat="44.83102" lon="-0.52607">
        <ele>7.6000022888184</ele>
        <time>2022-06-05T11:37:36Z</time>
      </trkpt>
      <trkpt lat="44.83108" lon="-0.52596">
        <ele>7.6000022888184</ele>
        <time>2022-06-05T11:37:45Z</time>
      </trkpt>
      <trkpt lat="44.83113" lon="-0.52584">
        <ele>7.2000007629395</ele>
        <time>2022-06-05T11:37:53Z</time>
      </trkpt>
      <trkpt lat="44.83118" lon="-0.52573">
        <ele>7.6000022888184</ele>
        <time>2022-06-05T11:38:00Z</time>
      </trkpt>
      <trkpt lat="44.83122" lon="-0.5256">
        <ele>7.6000022888184</ele>
        <time>2022-06-05T11:38:08Z</time>
      </trkpt>
      <trkpt lat="44.83127" lon="-0.52548">
        <ele>8.4000015258789</ele>
        <time>2022-06-05T11:38:16Z</time>
      </trkpt>
      <trkpt lat="44.83131" lon="-0.52529">
        <ele>8.4000015258789</ele>
        <time>2022-06-05T11:38:29Z</time>
      </trkpt>
      <trkpt lat="44.83133" lon="-0.52517">
        <ele>8.4000015258789</ele>
        <time>2022-06-05T11:38:36Z</time>
      </trkpt>
      <trkpt lat="44.83146" lon="-0.52512">
        <ele>8.7000007629395</ele>
        <time>2022-06-05T11:38:46Z</time>
      </trkpt>
      <trkpt lat="44.8316" lon="-0.52511">
        <ele>8.7000007629395</ele>
        <time>2022-06-05T11:38:59Z</time>
      </trkpt>
      <trkpt lat="44.83173" lon="-0.52507">
        <ele>8.7000007629395</ele>
        <time>2022-06-05T11:39:12Z</time>
      </trkpt>
      <trkpt lat="44.83181" lon="-0.52499">
        <ele>8.7000007629395</ele>
        <time>2022-06-05T11:39:20Z</time>
      </trkpt>
      <trkpt lat="44.8319" lon="-0.52495">
        <ele>8.7000007629395</ele>
        <time>2022-06-05T11:39:29Z</time>
      </trkpt>
      <trkpt lat="44.832" lon="-0.52488">
        <ele>8.7000007629395</ele>
        <time>2022-06-05T11:39:37Z</time>
      </trkpt>
      <trkpt lat="44.83208" lon="-0.52479">
        <ele>8.7000007629395</ele>
        <time>2022-06-05T11:39:44Z</time>
      </trkpt>
      <trkpt lat="44.83217" lon="-0.52471">
        <ele>8.7000007629395</ele>
        <time>2022-06-05T11:39:51Z</time>
      </trkpt>
      <trkpt lat="44.83225" lon="-0.52459">
        <ele>14</ele>
        <time>2022-06-05T11:39:58Z</time>
      </trkpt>
      <trkpt lat="44.83235" lon="-0.52453">
        <ele>14</ele>
        <time>2022-06-05T11:40:06Z</time>
      </trkpt>
      <trkpt lat="44.83243" lon="-0.52447">
        <ele>15.400001525879</ele>
        <time>2022-06-05T11:40:12Z</time>
      </trkpt>
      <trkpt lat="44.83252" lon="-0.52452">
        <ele>16.800003051758</ele>
        <time>2022-06-05T11:40:34Z</time>
      </trkpt>
      <trkpt lat="44.83262" lon="-0.52447">
        <ele>19.767905913521</ele>
        <time>2022-06-05T11:40:43Z</time>
      </trkpt>
      <trkpt lat="44.83271" lon="-0.52439">
        <ele>20.978795933711</ele>
        <time>2022-06-05T11:40:49Z</time>
      </trkpt>
      <trkpt lat="44.83288" lon="-0.52431">
        <ele>22.057132447709</ele>
        <time>2022-06-05T11:41:01Z</time>
      </trkpt>
      <trkpt lat="44.833" lon="-0.52429">
        <ele>23.03959055374</ele>
        <time>2022-06-05T11:41:07Z</time>
      </trkpt>
      <trkpt lat="44.83309" lon="-0.52431">
        <ele>23.686981496213</ele>
        <time>2022-06-05T11:41:17Z</time>
      </trkpt>
      <trkpt lat="44.83319" lon="-0.52428">
        <ele>24.194496082597</ele>
        <time>2022-06-05T11:41:23Z</time>
      </trkpt>
      <trkpt lat="44.83328" lon="-0.52428">
        <ele>25.73176069146</ele>
        <time>2022-06-05T11:41:30Z</time>
      </trkpt>
      <trkpt lat="44.83339" lon="-0.52427">
        <ele>26.743659654287</ele>
        <time>2022-06-05T11:41:36Z</time>
      </trkpt>
      <trkpt lat="44.83349" lon="-0.52428">
        <ele>27.80540435138</ele>
        <time>2022-06-05T11:41:43Z</time>
      </trkpt>
      <trkpt lat="44.83358" lon="-0.52425">
        <ele>28.749764016955</ele>
        <time>2022-06-05T11:41:50Z</time>
      </trkpt>
      <trkpt lat="44.83367" lon="-0.52419">
        <ele>30.66108012796</ele>
        <time>2022-06-05T11:41:57Z</time>
      </trkpt>
      <trkpt lat="44.83376" lon="-0.52415">
        <ele>31.196642333817</ele>
        <time>2022-06-05T11:42:04Z</time>
      </trkpt>
      <trkpt lat="44.83387" lon="-0.52415">
        <ele>32.608925618642</ele>
        <time>2022-06-05T11:42:20Z</time>
      </trkpt>
      <trkpt lat="44.834" lon="-0.52408">
        <ele>34.093502099216</ele>
        <time>2022-06-05T11:42:30Z</time>
      </trkpt>
      <trkpt lat="44.83411" lon="-0.52408">
        <ele>45.599998474121</ele>
        <time>2022-06-05T11:42:35Z</time>
      </trkpt>
      <trkpt lat="44.8342" lon="-0.52406">
        <ele>35.782717340741</ele>
        <time>2022-06-05T11:42:41Z</time>
      </trkpt>
      <trkpt lat="44.8343" lon="-0.524">
        <ele>37.07722625799</ele>
        <time>2022-06-05T11:42:47Z</time>
      </trkpt>
      <trkpt lat="44.8344" lon="-0.52397">
        <ele>37.543989689942</ele>
        <time>2022-06-05T11:42:53Z</time>
      </trkpt>
      <trkpt lat="44.8345" lon="-0.52409">
        <ele>39.305258232545</ele>
        <time>2022-06-05T11:43:08Z</time>
      </trkpt>
      <trkpt lat="44.83461" lon="-0.52402">
        <ele>42.300003051758</ele>
        <time>2022-06-05T11:43:25Z</time>
      </trkpt>
      <trkpt lat="44.8347" lon="-0.52378">
        <ele>42.300003051758</ele>
        <time>2022-06-05T11:43:34Z</time>
      </trkpt>
      <trkpt lat="44.83479" lon="-0.52378">
        <ele>42.300003051758</ele>
        <time>2022-06-05T11:43:45Z</time>
      </trkpt>
      <trkpt lat="44.8349" lon="-0.52373">
        <ele>42.800003051758</ele>
        <time>2022-06-05T11:43:52Z</time>
      </trkpt>
      <trkpt lat="44.83499" lon="-0.52361">
        <ele>45.599998474121</ele>
        <time>2022-06-05T11:43:58Z</time>
      </trkpt>
      <trkpt lat="44.83508" lon="-0.52354">
        <ele>45.868830105766</ele>
        <time>2022-06-05T11:44:04Z</time>
      </trkpt>
      <trkpt lat="44.83516" lon="-0.52345">
        <ele>46.599019154324</ele>
        <time>2022-06-05T11:44:09Z</time>
      </trkpt>
      <trkpt lat="44.83522" lon="-0.52335">
        <ele>50.03453650806</ele>
        <time>2022-06-05T11:44:16Z</time>
      </trkpt>
      <trkpt lat="44.83531" lon="-0.52341">
        <ele>53.200004577637</ele>
        <time>2022-06-05T11:44:22Z</time>
      </trkpt>
      <trkpt lat="44.83543" lon="-0.52343">
        <ele>53.793445792697</ele>
        <time>2022-06-05T11:46:27Z</time>
      </trkpt>
      <trkpt lat="44.83552" lon="-0.5234">
        <ele>54.026847175665</ele>
        <time>2022-06-05T11:46:54Z</time>
      </trkpt>
      <trkpt lat="44.83563" lon="-0.52336">
        <ele>53.875630688466</ele>
        <time>2022-06-05T11:47:00Z</time>
      </trkpt>
      <trkpt lat="44.83573" lon="-0.52334">
        <ele>54.327626170713</ele>
        <time>2022-06-05T11:47:07Z</time>
      </trkpt>
      <trkpt lat="44.83582" lon="-0.52339">
        <ele>54.625240327692</ele>
        <time>2022-06-05T11:47:14Z</time>
      </trkpt>
      <trkpt lat="44.83589" lon="-0.52347">
        <ele>54.706860851864</ele>
        <time>2022-06-05T11:47:21Z</time>
      </trkpt>
      <trkpt lat="44.83598" lon="-0.52349">
        <ele>54.814790282862</ele>
        <time>2022-06-05T11:47:30Z</time>
      </trkpt>
      <trkpt lat="44.83608" lon="-0.52351">
        <ele>54.927980752802</ele>
        <time>2022-06-05T11:47:37Z</time>
      </trkpt>
      <trkpt lat="44.83617" lon="-0.52358">
        <ele>55.393252339652</ele>
        <time>2022-06-05T11:47:44Z</time>
      </trkpt>
      <trkpt lat="44.83627" lon="-0.52363">
        <ele>59.300003051758</ele>
        <time>2022-06-05T11:47:50Z</time>
      </trkpt>
      <trkpt lat="44.83635" lon="-0.52369">
        <ele>57.700004577637</ele>
        <time>2022-06-05T11:47:57Z</time>
      </trkpt>
      <trkpt lat="44.83644" lon="-0.52375">
        <ele>57.700004577637</ele>
        <time>2022-06-05T11:48:04Z</time>
      </trkpt>
      <trkpt lat="44.83653" lon="-0.5238">
        <ele>59.300003051758</ele>
        <time>2022-06-05T11:48:10Z</time>
      </trkpt>
      <trkpt lat="44.83661" lon="-0.52388">
        <ele>59.300003051758</ele>
        <time>2022-06-05T11:48:19Z</time>
      </trkpt>
      <trkpt lat="44.83671" lon="-0.52385">
        <ele>59.300003051758</ele>
        <time>2022-06-05T11:48:26Z</time>
      </trkpt>
      <trkpt lat="44.8368" lon="-0.52388">
        <ele>61.300003051758</ele>
        <time>2022-06-05T11:48:34Z</time>
      </trkpt>
      <trkpt lat="44.83689" lon="-0.52395">
        <ele>61.5</ele>
        <time>2022-06-05T11:48:43Z</time>
      </trkpt>
      <trkpt lat="44.83692" lon="-0.52408">
        <ele>62.200004577637</ele>
        <time>2022-06-05T11:48:50Z</time>
      </trkpt>
      <trkpt lat="44.83702" lon="-0.5241">
        <ele>62.200004577637</ele>
        <time>2022-06-05T11:48:58Z</time>
      </trkpt>
      <trkpt lat="44.83712" lon="-0.52408">
        <ele>61.300003051758</ele>
        <time>2022-06-05T11:49:04Z</time>
      </trkpt>
      <trkpt lat="44.83722" lon="-0.52409">
        <ele>62.200004577637</ele>
        <time>2022-06-05T11:49:12Z</time>
      </trkpt>
      <trkpt lat="44.83729" lon="-0.52418">
        <ele>61.300003051758</ele>
        <time>2022-06-05T11:49:22Z</time>
      </trkpt>
      <trkpt lat="44.83738" lon="-0.52424">
        <ele>63.800003051758</ele>
        <time>2022-06-05T11:49:29Z</time>
      </trkpt>
      <trkpt lat="44.83748" lon="-0.52427">
        <ele>64.099998474121</ele>
        <time>2022-06-05T11:49:37Z</time>
      </trkpt>
      <trkpt lat="44.83757" lon="-0.52425">
        <ele>63.800003051758</ele>
        <time>2022-06-05T11:49:44Z</time>
      </trkpt>
      <trkpt lat="44.83767" lon="-0.52423">
        <ele>63.800003051758</ele>
        <time>2022-06-05T11:49:51Z</time>
      </trkpt>
      <trkpt lat="44.83776" lon="-0.52428">
        <ele>64.099998474121</ele>
        <time>2022-06-05T11:49:59Z</time>
      </trkpt>
      <trkpt lat="44.83785" lon="-0.52434">
        <ele>64.5</ele>
        <time>2022-06-05T11:50:07Z</time>
      </trkpt>
      <trkpt lat="44.83794" lon="-0.52428">
        <ele>64.5</ele>
        <time>2022-06-05T11:50:13Z</time>
      </trkpt>
      <trkpt lat="44.83803" lon="-0.52426">
        <ele>64.700004577637</ele>
        <time>2022-06-05T11:50:20Z</time>
      </trkpt>
      <trkpt lat="44.83814" lon="-0.52424">
        <ele>64.700004577637</ele>
        <time>2022-06-05T11:50:28Z</time>
      </trkpt>
      <trkpt lat="44.83822" lon="-0.52433">
        <ele>66.200004577637</ele>
        <time>2022-06-05T11:50:35Z</time>
      </trkpt>
      <trkpt lat="44.83831" lon="-0.5244">
        <ele>66.200004577637</ele>
        <time>2022-06-05T11:50:42Z</time>
      </trkpt>
      <trkpt lat="44.83841" lon="-0.5244">
        <ele>66.200004577637</ele>
        <time>2022-06-05T11:50:50Z</time>
      </trkpt>
      <trkpt lat="44.83851" lon="-0.52441">
        <ele>66.200004577637</ele>
        <time>2022-06-05T11:50:57Z</time>
      </trkpt>
      <trkpt lat="44.8386" lon="-0.52441">
        <ele>66.300003051758</ele>
        <time>2022-06-05T11:51:02Z</time>
      </trkpt>
      <trkpt lat="44.83869" lon="-0.52445">
        <ele>66.300003051758</ele>
        <time>2022-06-05T11:51:11Z</time>
      </trkpt>
      <trkpt lat="44.83878" lon="-0.52449">
        <ele>66.300003051758</ele>
        <time>2022-06-05T11:51:18Z</time>
      </trkpt>
      <trkpt lat="44.83887" lon="-0.52451">
        <ele>66.200004577637</ele>
        <time>2022-06-05T11:51:25Z</time>
      </trkpt>
      <trkpt lat="44.83895" lon="-0.52459">
        <ele>66.300003051758</ele>
        <time>2022-06-05T11:51:37Z</time>
      </trkpt>
      <trkpt lat="44.83904" lon="-0.52454">
        <ele>66.300003051758</ele>
        <time>2022-06-05T11:51:43Z</time>
      </trkpt>
      <trkpt lat="44.83914" lon="-0.52451">
        <ele>66.200004577637</ele>
        <time>2022-06-05T11:51:50Z</time>
      </trkpt>
      <trkpt lat="44.83925" lon="-0.52453">
        <ele>69.300003051758</ele>
        <time>2022-06-05T11:51:57Z</time>
      </trkpt>
      <trkpt lat="44.83934" lon="-0.52457">
        <ele>66.300003051758</ele>
        <time>2022-06-05T11:52:03Z</time>
      </trkpt>
      <trkpt lat="44.83944" lon="-0.52459">
        <ele>66.300003051758</ele>
        <time>2022-06-05T11:52:13Z</time>
      </trkpt>
      <trkpt lat="44.83953" lon="-0.52464">
        <ele>65.861607787119</ele>
        <time>2022-06-05T11:52:21Z</time>
      </trkpt>
      <trkpt lat="44.83962" lon="-0.52466">
        <ele>65.985751275179</ele>
        <time>2022-06-05T11:52:28Z</time>
      </trkpt>
      <trkpt lat="44.83968" lon="-0.52456">
        <ele>64.5</ele>
        <time>2022-06-05T11:52:34Z</time>
      </trkpt>
      <trkpt lat="44.83976" lon="-0.52447">
        <ele>64.787620836583</ele>
        <time>2022-06-05T11:52:40Z</time>
      </trkpt>
      <trkpt lat="44.83985" lon="-0.52443">
        <ele>64.200004577637</ele>
        <time>2022-06-05T11:52:46Z</time>
      </trkpt>
      <trkpt lat="44.83994" lon="-0.52446">
        <ele>64.200004577637</ele>
        <time>2022-06-05T11:52:53Z</time>
      </trkpt>
      <trkpt lat="44.84004" lon="-0.52441">
        <ele>64.200004577637</ele>
        <time>2022-06-05T11:53:03Z</time>
      </trkpt>
      <trkpt lat="44.84013" lon="-0.52447">
        <ele>64.200004577637</ele>
        <time>2022-06-05T11:53:08Z</time>
      </trkpt>
      <trkpt lat="44.84024" lon="-0.52435">
        <ele>64.5</ele>
        <time>2022-06-05T11:53:50Z</time>
      </trkpt>
      <trkpt lat="44.84029" lon="-0.52424">
        <ele>64.200004577637</ele>
        <time>2022-06-05T11:53:55Z</time>
      </trkpt>
      <trkpt lat="44.84032" lon="-0.52411">
        <ele>63.900001525879</ele>
        <time>2022-06-05T11:54:01Z</time>
      </trkpt>
      <trkpt lat="44.84035" lon="-0.52397">
        <ele>63.900001525879</ele>
        <time>2022-06-05T11:54:08Z</time>
      </trkpt>
      <trkpt lat="44.8404" lon="-0.52386">
        <ele>62.800003051758</ele>
        <time>2022-06-05T11:54:16Z</time>
      </trkpt>
      <trkpt lat="44.84049" lon="-0.52383">
        <ele>62.800003051758</ele>
        <time>2022-06-05T11:54:23Z</time>
      </trkpt>
      <trkpt lat="44.84059" lon="-0.52382">
        <ele>62.099998474121</ele>
        <time>2022-06-05T11:54:31Z</time>
      </trkpt>
      <trkpt lat="44.84069" lon="-0.52385">
        <ele>62.099998474121</ele>
        <time>2022-06-05T11:54:41Z</time>
      </trkpt>
      <trkpt lat="44.84077" lon="-0.52381">
        <ele>62</ele>
        <time>2022-06-05T11:54:54Z</time>
      </trkpt>
      <trkpt lat="44.84087" lon="-0.5238">
        <ele>62</ele>
        <time>2022-06-05T11:55:01Z</time>
      </trkpt>
      <trkpt lat="44.84097" lon="-0.5238">
        <ele>62</ele>
        <time>2022-06-05T11:55:08Z</time>
      </trkpt>
      <trkpt lat="44.84108" lon="-0.5238">
        <ele>58.900001525879</ele>
        <time>2022-06-05T11:55:16Z</time>
      </trkpt>
      <trkpt lat="44.84117" lon="-0.52376">
        <ele>58.599998474121</ele>
        <time>2022-06-05T11:55:23Z</time>
      </trkpt>
      <trkpt lat="44.84126" lon="-0.52375">
        <ele>58.599998474121</ele>
        <time>2022-06-05T11:55:31Z</time>
      </trkpt>
      <trkpt lat="44.84135" lon="-0.52381">
        <ele>57.800003051758</ele>
        <time>2022-06-05T11:55:39Z</time>
      </trkpt>
      <trkpt lat="44.84144" lon="-0.52387">
        <ele>57</ele>
        <time>2022-06-05T11:55:47Z</time>
      </trkpt>
      <trkpt lat="44.84153" lon="-0.52389">
        <ele>57</ele>
        <time>2022-06-05T11:55:55Z</time>
      </trkpt>
      <trkpt lat="44.84162" lon="-0.52389">
        <ele>57</ele>
        <time>2022-06-05T11:56:03Z</time>
      </trkpt>
      <trkpt lat="44.84171" lon="-0.52383">
        <ele>52.916635569502</ele>
        <time>2022-06-05T11:56:16Z</time>
      </trkpt>
      <trkpt lat="44.84177" lon="-0.52392">
        <ele>52.293182030362</ele>
        <time>2022-06-05T11:56:22Z</time>
      </trkpt>
      <trkpt lat="44.84181" lon="-0.52404">
        <ele>50.788488575846</ele>
        <time>2022-06-05T11:56:32Z</time>
      </trkpt>
      <trkpt lat="44.84188" lon="-0.52414">
        <ele>49.783231108806</ele>
        <time>2022-06-05T11:56:39Z</time>
      </trkpt>
      <trkpt lat="44.84198" lon="-0.52422">
        <ele>47.634254845508</ele>
        <time>2022-06-05T11:56:47Z</time>
      </trkpt>
      <trkpt lat="44.84203" lon="-0.52435">
        <ele>46.393063203321</ele>
        <time>2022-06-05T11:57:03Z</time>
      </trkpt>
      <trkpt lat="44.84209" lon="-0.52445">
        <ele>45.500175311017</ele>
        <time>2022-06-05T11:57:09Z</time>
      </trkpt>
      <trkpt lat="44.84213" lon="-0.52459">
        <ele>43.939980882611</ele>
        <time>2022-06-05T11:57:17Z</time>
      </trkpt>
      <trkpt lat="44.84223" lon="-0.52467">
        <ele>42.52855117851</ele>
        <time>2022-06-05T11:57:25Z</time>
      </trkpt>
      <trkpt lat="44.84235" lon="-0.52467">
        <ele>41.981858884752</ele>
        <time>2022-06-05T11:57:29Z</time>
      </trkpt>
      <trkpt lat="44.84244" lon="-0.52468">
        <ele>41.389944153766</ele>
        <time>2022-06-05T11:57:34Z</time>
      </trkpt>
      <trkpt lat="44.84253" lon="-0.52471">
        <ele>40.663561372954</ele>
        <time>2022-06-05T11:57:39Z</time>
      </trkpt>
      <trkpt lat="44.84262" lon="-0.52472">
        <ele>40.00557878736</ele>
        <time>2022-06-05T11:57:44Z</time>
      </trkpt>
      <trkpt lat="44.84273" lon="-0.52475">
        <ele>39.054761332193</ele>
        <time>2022-06-05T11:57:51Z</time>
      </trkpt>
      <trkpt lat="44.84283" lon="-0.52476">
        <ele>38.517733970085</ele>
        <time>2022-06-05T11:57:58Z</time>
      </trkpt>
      <trkpt lat="44.84292" lon="-0.5248">
        <ele>37.999269175965</ele>
        <time>2022-06-05T11:58:07Z</time>
      </trkpt>
      <trkpt lat="44.843" lon="-0.52487">
        <ele>37.703945088137</ele>
        <time>2022-06-05T11:58:18Z</time>
      </trkpt>
      <trkpt lat="44.84306" lon="-0.525">
        <ele>37.354541796894</ele>
        <time>2022-06-05T11:58:28Z</time>
      </trkpt>
      <trkpt lat="44.84316" lon="-0.5251">
        <ele>36.773935375902</ele>
        <time>2022-06-05T11:58:44Z</time>
      </trkpt>
      <trkpt lat="44.84324" lon="-0.52517">
        <ele>36.058323047723</ele>
        <time>2022-06-05T11:58:49Z</time>
      </trkpt>
      <trkpt lat="44.84334" lon="-0.5252">
        <ele>35.882259412967</ele>
        <time>2022-06-05T11:58:54Z</time>
      </trkpt>
      <trkpt lat="44.84346" lon="-0.5252">
        <ele>35.667971782069</ele>
        <time>2022-06-05T11:58:58Z</time>
      </trkpt>
      <trkpt lat="44.84355" lon="-0.52525">
        <ele>35.296447753906</ele>
        <time>2022-06-05T11:59:05Z</time>
      </trkpt>
      <trkpt lat="44.84368" lon="-0.52529">
        <ele>33.163679506287</ele>
        <time>2022-06-05T11:59:20Z</time>
      </trkpt>
      <trkpt lat="44.84377" lon="-0.52529">
        <ele>32.023691422028</ele>
        <time>2022-06-05T11:59:29Z</time>
      </trkpt>
      <trkpt lat="44.84386" lon="-0.52528">
        <ele>31.360194701948</ele>
        <time>2022-06-05T11:59:36Z</time>
      </trkpt>
      <trkpt lat="44.84396" lon="-0.52533">
        <ele>31.374267318741</ele>
        <time>2022-06-05T11:59:43Z</time>
      </trkpt>
      <trkpt lat="44.84406" lon="-0.52538">
        <ele>30.669034171826</ele>
        <time>2022-06-05T11:59:54Z</time>
      </trkpt>
      <trkpt lat="44.84412" lon="-0.52549">
        <ele>30.627107533675</ele>
        <time>2022-06-05T12:00:02Z</time>
      </trkpt>
      <trkpt lat="44.84412" lon="-0.52563">
        <ele>30.440201219175</ele>
        <time>2022-06-05T12:00:11Z</time>
      </trkpt>
      <trkpt lat="44.84411" lon="-0.52576">
        <ele>29.242295649695</ele>
        <time>2022-06-05T12:00:19Z</time>
      </trkpt>
      <trkpt lat="44.84414" lon="-0.52589">
        <ele>29.169244986417</ele>
        <time>2022-06-05T12:00:32Z</time>
      </trkpt>
      <trkpt lat="44.84422" lon="-0.52598">
        <ele>29.760022375717</ele>
        <time>2022-06-05T12:00:39Z</time>
      </trkpt>
      <trkpt lat="44.84434" lon="-0.52595">
        <ele>28.90769123902</ele>
        <time>2022-06-05T12:00:52Z</time>
      </trkpt>
      <trkpt lat="44.84443" lon="-0.52591">
        <ele>29.022558951478</ele>
        <time>2022-06-05T12:01:00Z</time>
      </trkpt>
      <trkpt lat="44.84452" lon="-0.52592">
        <ele>29.766113286683</ele>
        <time>2022-06-05T12:01:09Z</time>
      </trkpt>
      <trkpt lat="44.84461" lon="-0.52592">
        <ele>29.900001525879</ele>
        <time>2022-06-05T12:01:15Z</time>
      </trkpt>
      <trkpt lat="44.84461" lon="-0.52606">
        <ele>32.578597552984</ele>
        <time>2022-06-05T12:01:27Z</time>
      </trkpt>
      <trkpt lat="44.84469" lon="-0.52621">
        <ele>36.163097537829</ele>
        <time>2022-06-05T12:01:44Z</time>
      </trkpt>
      <trkpt lat="44.84469" lon="-0.52635">
        <ele>39.479997596683</ele>
        <time>2022-06-05T12:01:57Z</time>
      </trkpt>
      <trkpt lat="44.84462" lon="-0.52643">
        <ele>41.7832379978</ele>
        <time>2022-06-05T12:02:07Z</time>
      </trkpt>
      <trkpt lat="44.84459" lon="-0.52657">
        <ele>43.625587129755</ele>
        <time>2022-06-05T12:02:14Z</time>
      </trkpt>
      <trkpt lat="44.84453" lon="-0.52667">
        <ele>45.932126814283</ele>
        <time>2022-06-05T12:02:20Z</time>
      </trkpt>
      <trkpt lat="44.84444" lon="-0.52678">
        <ele>47.513080259112</ele>
        <time>2022-06-05T12:02:28Z</time>
      </trkpt>
      <trkpt lat="44.84439" lon="-0.5269">
        <ele>50.610777166593</ele>
        <time>2022-06-05T12:02:34Z</time>
      </trkpt>
      <trkpt lat="44.84438" lon="-0.52703">
        <ele>50.986565917729</ele>
        <time>2022-06-05T12:02:43Z</time>
      </trkpt>
      <trkpt lat="44.8444" lon="-0.52716">
        <ele>54.053826364049</ele>
        <time>2022-06-05T12:02:53Z</time>
      </trkpt>
      <trkpt lat="44.84451" lon="-0.52725">
        <ele>58.644473109667</ele>
        <time>2022-06-05T12:03:05Z</time>
      </trkpt>
      <trkpt lat="44.84457" lon="-0.52742">
        <ele>57.590602981286</ele>
        <time>2022-06-05T12:03:17Z</time>
      </trkpt>
      <trkpt lat="44.84459" lon="-0.52756">
        <ele>57.84363742238</ele>
        <time>2022-06-05T12:03:25Z</time>
      </trkpt>
      <trkpt lat="44.84465" lon="-0.52769">
        <ele>57.287123700889</ele>
        <time>2022-06-05T12:09:23Z</time>
      </trkpt>
      <trkpt lat="44.84475" lon="-0.52768">
        <ele>57.264698224668</ele>
        <time>2022-06-05T12:09:33Z</time>
      </trkpt>
      <trkpt lat="44.84481" lon="-0.5278">
        <ele>57.445025379738</ele>
        <time>2022-06-05T12:09:41Z</time>
      </trkpt>
      <trkpt lat="44.84488" lon="-0.52789">
        <ele>56.301267223883</ele>
        <time>2022-06-05T12:09:47Z</time>
      </trkpt>
      <trkpt lat="44.84497" lon="-0.52795">
        <ele>56.597525101389</ele>
        <time>2022-06-05T12:09:54Z</time>
      </trkpt>
      <trkpt lat="44.84504" lon="-0.52786">
        <ele>57.012338379721</ele>
        <time>2022-06-05T12:10:03Z</time>
      </trkpt>
      <trkpt lat="44.84513" lon="-0.52783">
        <ele>58.102729476504</ele>
        <time>2022-06-05T12:10:12Z</time>
      </trkpt>
      <trkpt lat="44.84524" lon="-0.52786">
        <ele>58.290816027193</ele>
        <time>2022-06-05T12:10:18Z</time>
      </trkpt>
      <trkpt lat="44.84534" lon="-0.52793">
        <ele>58.898999247017</ele>
        <time>2022-06-05T12:10:28Z</time>
      </trkpt>
      <trkpt lat="44.84543" lon="-0.52806">
        <ele>60.33843247418</ele>
        <time>2022-06-05T12:10:41Z</time>
      </trkpt>
      <trkpt lat="44.84542" lon="-0.5282">
        <ele>60.411897115383</ele>
        <time>2022-06-05T12:10:47Z</time>
      </trkpt>
      <trkpt lat="44.84539" lon="-0.52834">
        <ele>49.707824707031</ele>
        <time>2022-06-05T12:10:53Z</time>
      </trkpt>
      <trkpt lat="44.84533" lon="-0.52845">
        <ele>51.244201660156</ele>
        <time>2022-06-05T12:10:59Z</time>
      </trkpt>
      <trkpt lat="44.84528" lon="-0.52861">
        <ele>60.715008288608</ele>
        <time>2022-06-05T12:11:11Z</time>
      </trkpt>
      <trkpt lat="44.84517" lon="-0.52871">
        <ele>60.592107067327</ele>
        <time>2022-06-05T12:11:26Z</time>
      </trkpt>
      <trkpt lat="44.84508" lon="-0.52869">
        <ele>60.130685735124</ele>
        <time>2022-06-05T12:11:42Z</time>
      </trkpt>
      <trkpt lat="44.84499" lon="-0.52872">
        <ele>59.006988497114</ele>
        <time>2022-06-05T12:11:51Z</time>
      </trkpt>
      <trkpt lat="44.8449" lon="-0.52877">
        <ele>59.365903587691</ele>
        <time>2022-06-05T12:11:58Z</time>
      </trkpt>
      <trkpt lat="44.84482" lon="-0.52887">
        <ele>59.371244205109</ele>
        <time>2022-06-05T12:12:05Z</time>
      </trkpt>
      <trkpt lat="44.84478" lon="-0.529">
        <ele>58.993226535274</ele>
        <time>2022-06-05T12:12:14Z</time>
      </trkpt>
      <trkpt lat="44.84474" lon="-0.52915">
        <ele>59.441909038115</ele>
        <time>2022-06-05T12:12:22Z</time>
      </trkpt>
      <trkpt lat="44.84472" lon="-0.52928">
        <ele>60.140764184871</ele>
        <time>2022-06-05T12:12:29Z</time>
      </trkpt>
      <trkpt lat="44.84478" lon="-0.52946">
        <ele>60.596851609564</ele>
        <time>2022-06-05T12:12:40Z</time>
      </trkpt>
      <trkpt lat="44.84478" lon="-0.5296">
        <ele>61.089661837929</ele>
        <time>2022-06-05T12:12:46Z</time>
      </trkpt>
      <trkpt lat="44.84476" lon="-0.52973">
        <ele>61.706632195488</ele>
        <time>2022-06-05T12:12:53Z</time>
      </trkpt>
      <trkpt lat="44.8448" lon="-0.52987">
        <ele>61.968401969964</ele>
        <time>2022-06-05T12:13:01Z</time>
      </trkpt>
      <trkpt lat="44.84488" lon="-0.52996">
        <ele>62.429065016437</ele>
        <time>2022-06-05T12:13:07Z</time>
      </trkpt>
      <trkpt lat="44.84495" lon="-0.53004">
        <ele>62.615034041196</ele>
        <time>2022-06-05T12:13:14Z</time>
      </trkpt>
      <trkpt lat="44.84504" lon="-0.53009">
        <ele>63.342059261923</ele>
        <time>2022-06-05T12:13:22Z</time>
      </trkpt>
      <trkpt lat="44.84509" lon="-0.53021">
        <ele>62.906035540335</ele>
        <time>2022-06-05T12:13:34Z</time>
      </trkpt>
      <trkpt lat="44.84514" lon="-0.53033">
        <ele>56.964172363281</ele>
        <time>2022-06-05T12:13:39Z</time>
      </trkpt>
      <trkpt lat="44.84519" lon="-0.53046">
        <ele>62.526703209388</ele>
        <time>2022-06-05T12:13:46Z</time>
      </trkpt>
      <trkpt lat="44.84532" lon="-0.53053">
        <ele>62.702198690048</ele>
        <time>2022-06-05T12:13:57Z</time>
      </trkpt>
      <trkpt lat="44.84541" lon="-0.53055">
        <ele>62.723686382161</ele>
        <time>2022-06-05T12:14:04Z</time>
      </trkpt>
      <trkpt lat="44.84548" lon="-0.53064">
        <ele>62.406444846889</ele>
        <time>2022-06-05T12:14:12Z</time>
      </trkpt>
      <trkpt lat="44.84558" lon="-0.53068">
        <ele>62.093802096189</ele>
        <time>2022-06-05T12:14:18Z</time>
      </trkpt>
      <trkpt lat="44.8457" lon="-0.53069">
        <ele>62.133519863121</ele>
        <time>2022-06-05T12:14:26Z</time>
      </trkpt>
      <trkpt lat="44.84581" lon="-0.53067">
        <ele>61.146682609999</ele>
        <time>2022-06-05T12:14:32Z</time>
      </trkpt>
      <trkpt lat="44.84592" lon="-0.53065">
        <ele>55.519775390625</ele>
        <time>2022-06-05T12:14:39Z</time>
      </trkpt>
      <trkpt lat="44.84602" lon="-0.53065">
        <ele>57.227905273438</ele>
        <time>2022-06-05T12:14:47Z</time>
      </trkpt>
      <trkpt lat="44.84611" lon="-0.53064">
        <ele>56.125244140625</ele>
        <time>2022-06-05T12:14:58Z</time>
      </trkpt>
      <trkpt lat="44.8462" lon="-0.53061">
        <ele>59.755629969868</ele>
        <time>2022-06-05T12:15:06Z</time>
      </trkpt>
      <trkpt lat="44.84631" lon="-0.53061">
        <ele>58.676480276668</ele>
        <time>2022-06-05T12:15:14Z</time>
      </trkpt>
      <trkpt lat="44.84641" lon="-0.53074">
        <ele>57.187705150783</ele>
        <time>2022-06-05T12:15:27Z</time>
      </trkpt>
      <trkpt lat="44.84645" lon="-0.53086">
        <ele>56.75826764403</ele>
        <time>2022-06-05T12:15:34Z</time>
      </trkpt>
      <trkpt lat="44.8465" lon="-0.53098">
        <ele>56.410052439565</ele>
        <time>2022-06-05T12:15:41Z</time>
      </trkpt>
      <trkpt lat="44.84658" lon="-0.53103">
        <ele>55.282480812355</ele>
        <time>2022-06-05T12:15:49Z</time>
      </trkpt>
      <trkpt lat="44.84666" lon="-0.53111">
        <ele>55.695071977491</ele>
        <time>2022-06-05T12:15:56Z</time>
      </trkpt>
      <trkpt lat="44.84671" lon="-0.53124">
        <ele>55.063025673916</ele>
        <time>2022-06-05T12:16:07Z</time>
      </trkpt>
      <trkpt lat="44.84677" lon="-0.53136">
        <ele>53.966880577796</ele>
        <time>2022-06-05T12:16:16Z</time>
      </trkpt>
      <trkpt lat="44.84676" lon="-0.5315">
        <ele>54.654135128328</ele>
        <time>2022-06-05T12:16:24Z</time>
      </trkpt>
      <trkpt lat="44.84677" lon="-0.53163">
        <ele>54.413634559006</ele>
        <time>2022-06-05T12:16:31Z</time>
      </trkpt>
      <trkpt lat="44.84681" lon="-0.53177">
        <ele>53.730664447229</ele>
        <time>2022-06-05T12:16:41Z</time>
      </trkpt>
      <trkpt lat="44.84686" lon="-0.53189">
        <ele>53.92459759363</ele>
        <time>2022-06-05T12:16:49Z</time>
      </trkpt>
      <trkpt lat="44.84696" lon="-0.5319">
        <ele>54.328111387098</ele>
        <time>2022-06-05T12:16:56Z</time>
      </trkpt>
      <trkpt lat="44.84705" lon="-0.53188">
        <ele>54.088938945125</ele>
        <time>2022-06-05T12:17:01Z</time>
      </trkpt>
      <trkpt lat="44.84715" lon="-0.53189">
        <ele>49.2701105378</ele>
        <time>2022-06-05T12:17:08Z</time>
      </trkpt>
      <trkpt lat="44.84725" lon="-0.53189">
        <ele>48.421579064266</ele>
        <time>2022-06-05T12:17:18Z</time>
      </trkpt>
      <trkpt lat="44.84734" lon="-0.53194">
        <ele>50.951686234834</ele>
        <time>2022-06-05T12:17:24Z</time>
      </trkpt>
      <trkpt lat="44.84743" lon="-0.53199">
        <ele>51.436820540847</ele>
        <time>2022-06-05T12:17:35Z</time>
      </trkpt>
      <trkpt lat="44.84747" lon="-0.53186">
        <ele>47.885939838936</ele>
        <time>2022-06-05T12:17:49Z</time>
      </trkpt>
      <trkpt lat="44.84753" lon="-0.53175">
        <ele>45.101561132731</ele>
        <time>2022-06-05T12:17:55Z</time>
      </trkpt>
      <trkpt lat="44.84759" lon="-0.53165">
        <ele>43.393915843528</ele>
        <time>2022-06-05T12:18:02Z</time>
      </trkpt>
      <trkpt lat="44.84767" lon="-0.53158">
        <ele>42.682580802776</ele>
        <time>2022-06-05T12:18:09Z</time>
      </trkpt>
      <trkpt lat="44.8476" lon="-0.53166">
        <ele>41.779654361898</ele>
        <time>2022-06-05T12:18:21Z</time>
      </trkpt>
      <trkpt lat="44.84757" lon="-0.53179">
        <ele>38.143018760536</ele>
        <time>2022-06-05T12:18:40Z</time>
      </trkpt>
      <trkpt lat="44.84767" lon="-0.53183">
        <ele>35.449161469188</ele>
        <time>2022-06-05T12:19:12Z</time>
      </trkpt>
      <trkpt lat="44.84779" lon="-0.53181">
        <ele>34.950750249474</ele>
        <time>2022-06-05T12:19:18Z</time>
      </trkpt>
      <trkpt lat="44.84788" lon="-0.53181">
        <ele>34.692307933341</ele>
        <time>2022-06-05T12:19:33Z</time>
      </trkpt>
      <trkpt lat="44.84798" lon="-0.53182">
        <ele>33.323573467608</ele>
        <time>2022-06-05T12:19:41Z</time>
      </trkpt>
      <trkpt lat="44.84807" lon="-0.53183">
        <ele>32.754111694356</ele>
        <time>2022-06-05T12:19:48Z</time>
      </trkpt>
      <trkpt lat="44.84816" lon="-0.5319">
        <ele>32.078979620299</ele>
        <time>2022-06-05T12:19:56Z</time>
      </trkpt>
      <trkpt lat="44.84825" lon="-0.53192">
        <ele>31.308318108263</ele>
        <time>2022-06-05T12:20:09Z</time>
      </trkpt>
      <trkpt lat="44.84834" lon="-0.53189">
        <ele>30.982979087694</ele>
        <time>2022-06-05T12:20:17Z</time>
      </trkpt>
      <trkpt lat="44.84843" lon="-0.53193">
        <ele>30.317313282948</ele>
        <time>2022-06-05T12:20:29Z</time>
      </trkpt>
      <trkpt lat="44.84854" lon="-0.5319">
        <ele>29.628966743718</ele>
        <time>2022-06-05T12:20:41Z</time>
      </trkpt>
      <trkpt lat="44.84865" lon="-0.53192">
        <ele>28.706063343783</ele>
        <time>2022-06-05T12:20:48Z</time>
      </trkpt>
      <trkpt lat="44.84874" lon="-0.532">
        <ele>28.706463702972</ele>
        <time>2022-06-05T12:21:47Z</time>
      </trkpt>
      <trkpt lat="44.84883" lon="-0.53197">
        <ele>30.290883916479</ele>
        <time>2022-06-05T12:21:56Z</time>
      </trkpt>
      <trkpt lat="44.84893" lon="-0.53195">
        <ele>30.194826017042</ele>
        <time>2022-06-05T12:22:01Z</time>
      </trkpt>
      <trkpt lat="44.84903" lon="-0.5319">
        <ele>35.069152832031</ele>
        <time>2022-06-05T12:22:08Z</time>
      </trkpt>
      <trkpt lat="44.84912" lon="-0.53189">
        <ele>32.194935685167</ele>
        <time>2022-06-05T12:22:18Z</time>
      </trkpt>
      <trkpt lat="44.84921" lon="-0.53189">
        <ele>34.529524434973</ele>
        <time>2022-06-05T12:22:32Z</time>
      </trkpt>
      <trkpt lat="44.84931" lon="-0.53188">
        <ele>33.816674513467</ele>
        <time>2022-06-05T12:22:38Z</time>
      </trkpt>
      <trkpt lat="44.84941" lon="-0.53184">
        <ele>36.339787504122</ele>
        <time>2022-06-05T12:22:45Z</time>
      </trkpt>
      <trkpt lat="44.84952" lon="-0.53179">
        <ele>36.003583989683</ele>
        <time>2022-06-05T12:22:51Z</time>
      </trkpt>
      <trkpt lat="44.84962" lon="-0.53174">
        <ele>38.048402941192</ele>
        <time>2022-06-05T12:22:58Z</time>
      </trkpt>
      <trkpt lat="44.84971" lon="-0.53167">
        <ele>47.800003051758</ele>
        <time>2022-06-05T12:23:05Z</time>
      </trkpt>
      <trkpt lat="44.8498" lon="-0.53162">
        <ele>39.249768110211</ele>
        <time>2022-06-05T12:23:13Z</time>
      </trkpt>
      <trkpt lat="44.84989" lon="-0.53157">
        <ele>41.026499403484</ele>
        <time>2022-06-05T12:23:20Z</time>
      </trkpt>
      <trkpt lat="44.84998" lon="-0.53152">
        <ele>40.365351123598</ele>
        <time>2022-06-05T12:23:27Z</time>
      </trkpt>
      <trkpt lat="44.85005" lon="-0.53142">
        <ele>47.800003051758</ele>
        <time>2022-06-05T12:23:33Z</time>
      </trkpt>
      <trkpt lat="44.85012" lon="-0.53133">
        <ele>42.748037345375</ele>
        <time>2022-06-05T12:23:39Z</time>
      </trkpt>
      <trkpt lat="44.85018" lon="-0.53122">
        <ele>48.200004577637</ele>
        <time>2022-06-05T12:23:46Z</time>
      </trkpt>
      <trkpt lat="44.85021" lon="-0.53108">
        <ele>44.285841402495</ele>
        <time>2022-06-05T12:23:53Z</time>
      </trkpt>
      <trkpt lat="44.85019" lon="-0.53093">
        <ele>48.200004577637</ele>
        <time>2022-06-05T12:24:00Z</time>
      </trkpt>
      <trkpt lat="44.85019" lon="-0.53079">
        <ele>45.382784520564</ele>
        <time>2022-06-05T12:24:08Z</time>
      </trkpt>
      <trkpt lat="44.8502" lon="-0.53065">
        <ele>48.200004577637</ele>
        <time>2022-06-05T12:24:17Z</time>
      </trkpt>
      <trkpt lat="44.85022" lon="-0.53051">
        <ele>48.200004577637</ele>
        <time>2022-06-05T12:24:26Z</time>
      </trkpt>
      <trkpt lat="44.85025" lon="-0.53038">
        <ele>48.200004577637</ele>
        <time>2022-06-05T12:24:34Z</time>
      </trkpt>
      <trkpt lat="44.85027" lon="-0.53025">
        <ele>52.099998474121</ele>
        <time>2022-06-05T12:24:43Z</time>
      </trkpt>
      <trkpt lat="44.85029" lon="-0.53011">
        <ele>48.200004577637</ele>
        <time>2022-06-05T12:24:50Z</time>
      </trkpt>
      <trkpt lat="44.85034" lon="-0.52997">
        <ele>50.333440959169</ele>
        <time>2022-06-05T12:24:58Z</time>
      </trkpt>
      <trkpt lat="44.85039" lon="-0.52986">
        <ele>53.932641646417</ele>
        <time>2022-06-05T12:25:05Z</time>
      </trkpt>
      <trkpt lat="44.85044" lon="-0.52975">
        <ele>52.099998474121</ele>
        <time>2022-06-05T12:25:13Z</time>
      </trkpt>
      <trkpt lat="44.8505" lon="-0.52963">
        <ele>55.156477817704</ele>
        <time>2022-06-05T12:25:22Z</time>
      </trkpt>
      <trkpt lat="44.85055" lon="-0.52952">
        <ele>59.5</ele>
        <time>2022-06-05T12:25:30Z</time>
      </trkpt>
      <trkpt lat="44.85061" lon="-0.52942">
        <ele>59</ele>
        <time>2022-06-05T12:25:38Z</time>
      </trkpt>
      <trkpt lat="44.85068" lon="-0.52932">
        <ele>59</ele>
        <time>2022-06-05T12:25:46Z</time>
      </trkpt>
      <trkpt lat="44.85078" lon="-0.52934">
        <ele>62.5</ele>
        <time>2022-06-05T12:25:57Z</time>
      </trkpt>
      <trkpt lat="44.85087" lon="-0.52934">
        <ele>62.5</ele>
        <time>2022-06-05T12:26:06Z</time>
      </trkpt>
      <trkpt lat="44.85098" lon="-0.52937">
        <ele>62.5</ele>
        <time>2022-06-05T12:26:14Z</time>
      </trkpt>
      <trkpt lat="44.85107" lon="-0.5294">
        <ele>62.5</ele>
        <time>2022-06-05T12:26:22Z</time>
      </trkpt>
      <trkpt lat="44.85117" lon="-0.5294">
        <ele>62.5</ele>
        <time>2022-06-05T12:26:30Z</time>
      </trkpt>
      <trkpt lat="44.85127" lon="-0.52941">
        <ele>62.5</ele>
        <time>2022-06-05T12:26:39Z</time>
      </trkpt>
      <trkpt lat="44.85137" lon="-0.52941">
        <ele>62.5</ele>
        <time>2022-06-05T12:26:48Z</time>
      </trkpt>
      <trkpt lat="44.85144" lon="-0.52934">
        <ele>62.5</ele>
        <time>2022-06-05T12:26:59Z</time>
      </trkpt>
      <trkpt lat="44.85152" lon="-0.52924">
        <ele>62.5</ele>
        <time>2022-06-05T12:27:06Z</time>
      </trkpt>
      <trkpt lat="44.85156" lon="-0.52911">
        <ele>63.200004577637</ele>
        <time>2022-06-05T12:27:14Z</time>
      </trkpt>
      <trkpt lat="44.85158" lon="-0.52897">
        <ele>63.099998474121</ele>
        <time>2022-06-05T12:27:22Z</time>
      </trkpt>
      <trkpt lat="44.85157" lon="-0.52884">
        <ele>63.200004577637</ele>
        <time>2022-06-05T12:27:29Z</time>
      </trkpt>
      <trkpt lat="44.85155" lon="-0.5287">
        <ele>63.200004577637</ele>
        <time>2022-06-05T12:27:37Z</time>
      </trkpt>
      <trkpt lat="44.85157" lon="-0.52857">
        <ele>63.900001525879</ele>
        <time>2022-06-05T12:27:45Z</time>
      </trkpt>
      <trkpt lat="44.85161" lon="-0.52846">
        <ele>63</ele>
        <time>2022-06-05T12:27:55Z</time>
      </trkpt>
      <trkpt lat="44.85168" lon="-0.52838">
        <ele>63.200004577637</ele>
        <time>2022-06-05T12:28:03Z</time>
      </trkpt>
      <trkpt lat="44.85178" lon="-0.52836">
        <ele>61.599998474121</ele>
        <time>2022-06-05T12:28:11Z</time>
      </trkpt>
      <trkpt lat="44.85187" lon="-0.5284">
        <ele>61.599998474121</ele>
        <time>2022-06-05T12:28:16Z</time>
      </trkpt>
      <trkpt lat="44.85197" lon="-0.52842">
        <ele>60.599998474121</ele>
        <time>2022-06-05T12:28:25Z</time>
      </trkpt>
      <trkpt lat="44.85206" lon="-0.52844">
        <ele>61.400001525879</ele>
        <time>2022-06-05T12:28:32Z</time>
      </trkpt>
      <trkpt lat="44.85216" lon="-0.52847">
        <ele>60.099998474121</ele>
        <time>2022-06-05T12:28:43Z</time>
      </trkpt>
      <trkpt lat="44.85222" lon="-0.52862">
        <ele>60.400001525879</ele>
        <time>2022-06-05T12:28:55Z</time>
      </trkpt>
      <trkpt lat="44.85224" lon="-0.52875">
        <ele>60.700004577637</ele>
        <time>2022-06-05T12:29:03Z</time>
      </trkpt>
      <trkpt lat="44.85227" lon="-0.52888">
        <ele>61.283963624712</ele>
        <time>2022-06-05T12:29:13Z</time>
      </trkpt>
      <trkpt lat="44.85232" lon="-0.52899">
        <ele>61.400001525879</ele>
        <time>2022-06-05T12:29:24Z</time>
      </trkpt>
      <trkpt lat="44.8524" lon="-0.52906">
        <ele>60.099998474121</ele>
        <time>2022-06-05T12:29:33Z</time>
      </trkpt>
      <trkpt lat="44.85248" lon="-0.52914">
        <ele>60.569878868663</ele>
        <time>2022-06-05T12:29:41Z</time>
      </trkpt>
      <trkpt lat="44.85257" lon="-0.5292">
        <ele>59.085289446699</ele>
        <time>2022-06-05T12:29:49Z</time>
      </trkpt>
      <trkpt lat="44.85266" lon="-0.52925">
        <ele>61.400001525879</ele>
        <time>2022-06-05T12:29:56Z</time>
      </trkpt>
      <trkpt lat="44.85274" lon="-0.52931">
        <ele>61.400001525879</ele>
        <time>2022-06-05T12:30:04Z</time>
      </trkpt>
      <trkpt lat="44.85287" lon="-0.52939">
        <ele>59.150600529547</ele>
        <time>2022-06-05T12:30:19Z</time>
      </trkpt>
      <trkpt lat="44.85298" lon="-0.52946">
        <ele>57.200004577637</ele>
        <time>2022-06-05T12:30:36Z</time>
      </trkpt>
      <trkpt lat="44.85307" lon="-0.52951">
        <ele>55.623862798753</ele>
        <time>2022-06-05T12:30:42Z</time>
      </trkpt>
      <trkpt lat="44.85317" lon="-0.52952">
        <ele>55.44782702747</ele>
        <time>2022-06-05T12:30:52Z</time>
      </trkpt>
      <trkpt lat="44.85327" lon="-0.52951">
        <ele>54.125179892666</ele>
        <time>2022-06-05T12:31:01Z</time>
      </trkpt>
      <trkpt lat="44.85335" lon="-0.52944">
        <ele>54.5</ele>
        <time>2022-06-05T12:31:09Z</time>
      </trkpt>
      <trkpt lat="44.85337" lon="-0.5293">
        <ele>53.742276274767</ele>
        <time>2022-06-05T12:31:15Z</time>
      </trkpt>
      <trkpt lat="44.85336" lon="-0.52901">
        <ele>53.400001525879</ele>
        <time>2022-06-05T12:31:19Z</time>
      </trkpt>
      <trkpt lat="44.85348" lon="-0.52898">
        <ele>52.37748143138</ele>
        <time>2022-06-05T12:31:33Z</time>
      </trkpt>
      <trkpt lat="44.85358" lon="-0.52901">
        <ele>54.5</ele>
        <time>2022-06-05T12:31:38Z</time>
      </trkpt>
      <trkpt lat="44.85368" lon="-0.52901">
        <ele>54.5</ele>
        <time>2022-06-05T12:31:47Z</time>
      </trkpt>
      <trkpt lat="44.8537" lon="-0.52884">
        <ele>46.5</ele>
        <time>2022-06-05T12:32:23Z</time>
      </trkpt>
      <trkpt lat="44.85369" lon="-0.52863">
        <ele>46.5</ele>
        <time>2022-06-05T12:32:27Z</time>
      </trkpt>
      <trkpt lat="44.85364" lon="-0.52849">
        <ele>47.200004577637</ele>
        <time>2022-06-05T12:32:31Z</time>
      </trkpt>
      <trkpt lat="44.85356" lon="-0.5284">
        <ele>46.800003051758</ele>
        <time>2022-06-05T12:32:41Z</time>
      </trkpt>
      <trkpt lat="44.85353" lon="-0.52827">
        <ele>46.5</ele>
        <time>2022-06-05T12:32:51Z</time>
      </trkpt>
      <trkpt lat="44.8536" lon="-0.5282">
        <ele>44.700642208254</ele>
        <time>2022-06-05T12:33:02Z</time>
      </trkpt>
      <trkpt lat="44.8537" lon="-0.52817">
        <ele>42.087418106587</ele>
        <time>2022-06-05T12:33:13Z</time>
      </trkpt>
      <trkpt lat="44.85379" lon="-0.52815">
        <ele>40.386343290505</ele>
        <time>2022-06-05T12:33:23Z</time>
      </trkpt>
      <trkpt lat="44.85389" lon="-0.52815">
        <ele>37.349960286233</ele>
        <time>2022-06-05T12:33:33Z</time>
      </trkpt>
      <trkpt lat="44.854" lon="-0.52819">
        <ele>35.150745018883</ele>
        <time>2022-06-05T12:33:40Z</time>
      </trkpt>
      <trkpt lat="44.85409" lon="-0.52825">
        <ele>33.53653196196</ele>
        <time>2022-06-05T12:33:56Z</time>
      </trkpt>
      <trkpt lat="44.8542" lon="-0.52823">
        <ele>32.50673382283</ele>
        <time>2022-06-05T12:34:02Z</time>
      </trkpt>
      <trkpt lat="44.85431" lon="-0.5282">
        <ele>27.5</ele>
        <time>2022-06-05T12:34:07Z</time>
      </trkpt>
      <trkpt lat="44.8544" lon="-0.52816">
        <ele>27.400001525879</ele>
        <time>2022-06-05T12:34:13Z</time>
      </trkpt>
      <trkpt lat="44.85449" lon="-0.5282">
        <ele>25.048801439954</ele>
        <time>2022-06-05T12:34:21Z</time>
      </trkpt>
      <trkpt lat="44.85458" lon="-0.52827">
        <ele>20.976179842222</ele>
        <time>2022-06-05T12:34:28Z</time>
      </trkpt>
      <trkpt lat="44.85466" lon="-0.52835">
        <ele>19.626425368695</ele>
        <time>2022-06-05T12:34:36Z</time>
      </trkpt>
      <trkpt lat="44.85473" lon="-0.52848">
        <ele>19.348812189002</ele>
        <time>2022-06-05T12:34:42Z</time>
      </trkpt>
      <trkpt lat="44.85471" lon="-0.52866">
        <ele>16</ele>
        <time>2022-06-05T12:35:34Z</time>
      </trkpt>
      <trkpt lat="44.85477" lon="-0.52878">
        <ele>16.099686772434</ele>
        <time>2022-06-05T12:35:41Z</time>
      </trkpt>
      <trkpt lat="44.85484" lon="-0.52888">
        <ele>13.700000762939</ele>
        <time>2022-06-05T12:35:47Z</time>
      </trkpt>
      <trkpt lat="44.85493" lon="-0.52884">
        <ele>13.800003051758</ele>
        <time>2022-06-05T12:35:56Z</time>
      </trkpt>
      <trkpt lat="44.85502" lon="-0.52887">
        <ele>13.700000762939</ele>
        <time>2022-06-05T12:36:04Z</time>
      </trkpt>
      <trkpt lat="44.85512" lon="-0.52886">
        <ele>13.700000762939</ele>
        <time>2022-06-05T12:36:12Z</time>
      </trkpt>
      <trkpt lat="44.85516" lon="-0.52874">
        <ele>16</ele>
        <time>2022-06-05T12:36:21Z</time>
      </trkpt>
      <trkpt lat="44.85517" lon="-0.52861">
        <ele>16</ele>
        <time>2022-06-05T12:36:28Z</time>
      </trkpt>
      <trkpt lat="44.85523" lon="-0.52848">
        <ele>17.940200464616</ele>
        <time>2022-06-05T12:36:35Z</time>
      </trkpt>
      <trkpt lat="44.85533" lon="-0.52852">
        <ele>17.700004577637</ele>
        <time>2022-06-05T12:36:42Z</time>
      </trkpt>
      <trkpt lat="44.85542" lon="-0.5286">
        <ele>18.967791042682</ele>
        <time>2022-06-05T12:36:49Z</time>
      </trkpt>
      <trkpt lat="44.85548" lon="-0.52869">
        <ele>17.900001525879</ele>
        <time>2022-06-05T12:36:55Z</time>
      </trkpt>
      <trkpt lat="44.85557" lon="-0.52875">
        <ele>21.18206403706</ele>
        <time>2022-06-05T12:37:02Z</time>
      </trkpt>
      <trkpt lat="44.85566" lon="-0.5288">
        <ele>22.099195788969</ele>
        <time>2022-06-05T12:37:12Z</time>
      </trkpt>
      <trkpt lat="44.85573" lon="-0.52888">
        <ele>21.397807035825</ele>
        <time>2022-06-05T12:37:22Z</time>
      </trkpt>
      <trkpt lat="44.85581" lon="-0.52897">
        <ele>21.882259932081</ele>
        <time>2022-06-05T12:37:29Z</time>
      </trkpt>
      <trkpt lat="44.85589" lon="-0.52904">
        <ele>22.751719611236</ele>
        <time>2022-06-05T12:37:36Z</time>
      </trkpt>
      <trkpt lat="44.85596" lon="-0.52915">
        <ele>23.021509055307</ele>
        <time>2022-06-05T12:37:43Z</time>
      </trkpt>
      <trkpt lat="44.856" lon="-0.52927">
        <ele>23.887036402138</ele>
        <time>2022-06-05T12:37:50Z</time>
      </trkpt>
      <trkpt lat="44.85605" lon="-0.5294">
        <ele>25.05536828333</ele>
        <time>2022-06-05T12:37:59Z</time>
      </trkpt>
      <trkpt lat="44.85614" lon="-0.52948">
        <ele>24.878731260742</ele>
        <time>2022-06-05T12:38:06Z</time>
      </trkpt>
      <trkpt lat="44.85624" lon="-0.52948">
        <ele>24.468191175659</ele>
        <time>2022-06-05T12:38:14Z</time>
      </trkpt>
      <trkpt lat="44.85634" lon="-0.52948">
        <ele>23.818118973778</ele>
        <time>2022-06-05T12:38:21Z</time>
      </trkpt>
      <trkpt lat="44.85644" lon="-0.52949">
        <ele>24.552865548925</ele>
        <time>2022-06-05T12:38:28Z</time>
      </trkpt>
      <trkpt lat="44.85654" lon="-0.52957">
        <ele>24.109286600647</ele>
        <time>2022-06-05T12:38:38Z</time>
      </trkpt>
      <trkpt lat="44.85663" lon="-0.52961">
        <ele>23.28057242577</ele>
        <time>2022-06-05T12:38:46Z</time>
      </trkpt>
      <trkpt lat="44.85674" lon="-0.52958">
        <ele>21.999241782531</ele>
        <time>2022-06-05T12:38:53Z</time>
      </trkpt>
      <trkpt lat="44.85683" lon="-0.52957">
        <ele>22.032874775516</ele>
        <time>2022-06-05T12:39:01Z</time>
      </trkpt>
      <trkpt lat="44.85691" lon="-0.5295">
        <ele>20.52570865658</ele>
        <time>2022-06-05T12:39:20Z</time>
      </trkpt>
      <trkpt lat="44.85701" lon="-0.52952">
        <ele>20.254956699198</ele>
        <time>2022-06-05T12:39:28Z</time>
      </trkpt>
      <trkpt lat="44.85711" lon="-0.52953">
        <ele>19.994962725687</ele>
        <time>2022-06-05T12:39:35Z</time>
      </trkpt>
      <trkpt lat="44.85719" lon="-0.52958">
        <ele>18.524973033224</ele>
        <time>2022-06-05T12:39:49Z</time>
      </trkpt>
      <trkpt lat="44.85728" lon="-0.52952">
        <ele>18.394444241548</ele>
        <time>2022-06-05T12:40:00Z</time>
      </trkpt>
      <trkpt lat="44.85737" lon="-0.5295">
        <ele>17.264826296617</ele>
        <time>2022-06-05T12:40:11Z</time>
      </trkpt>
      <trkpt lat="44.85746" lon="-0.52949">
        <ele>16.355105678296</ele>
        <time>2022-06-05T12:40:17Z</time>
      </trkpt>
      <trkpt lat="44.85755" lon="-0.52949">
        <ele>16.081644717722</ele>
        <time>2022-06-05T12:40:28Z</time>
      </trkpt>
      <trkpt lat="44.85765" lon="-0.5295">
        <ele>15.26275732222</ele>
        <time>2022-06-05T12:40:34Z</time>
      </trkpt>
      <trkpt lat="44.85775" lon="-0.52947">
        <ele>14.253197135887</ele>
        <time>2022-06-05T12:40:41Z</time>
      </trkpt>
      <trkpt lat="44.85782" lon="-0.52933">
        <ele>13.491910015908</ele>
        <time>2022-06-05T12:40:54Z</time>
      </trkpt>
      <trkpt lat="44.85785" lon="-0.52921">
        <ele>16.752442871998</ele>
        <time>2022-06-05T12:41:04Z</time>
      </trkpt>
      <trkpt lat="44.85785" lon="-0.52907">
        <ele>19.729075076264</ele>
        <time>2022-06-05T12:41:11Z</time>
      </trkpt>
      <trkpt lat="44.85788" lon="-0.52894">
        <ele>24.989466583937</ele>
        <time>2022-06-05T12:41:25Z</time>
      </trkpt>
      <trkpt lat="44.85784" lon="-0.52878">
        <ele>29.367658656714</ele>
        <time>2022-06-05T12:41:42Z</time>
      </trkpt>
      <trkpt lat="44.8578" lon="-0.52865">
        <ele>31.385071738471</ele>
        <time>2022-06-05T12:42:26Z</time>
      </trkpt>
      <trkpt lat="44.85782" lon="-0.52852">
        <ele>33.787257870218</ele>
        <time>2022-06-05T12:42:36Z</time>
      </trkpt>
      <trkpt lat="44.85779" lon="-0.52839">
        <ele>34.793494840765</ele>
        <time>2022-06-05T12:42:43Z</time>
      </trkpt>
      <trkpt lat="44.85776" lon="-0.52824">
        <ele>36.962504863018</ele>
        <time>2022-06-05T12:42:49Z</time>
      </trkpt>
      <trkpt lat="44.85768" lon="-0.52814">
        <ele>38.574837277603</ele>
        <time>2022-06-05T12:43:01Z</time>
      </trkpt>
      <trkpt lat="44.85768" lon="-0.52801">
        <ele>41.089000276068</ele>
        <time>2022-06-05T12:43:11Z</time>
      </trkpt>
      <trkpt lat="44.85768" lon="-0.52787">
        <ele>42.236334981264</ele>
        <time>2022-06-05T12:43:19Z</time>
      </trkpt>
      <trkpt lat="44.85775" lon="-0.52776">
        <ele>42.897578037727</ele>
        <time>2022-06-05T12:43:25Z</time>
      </trkpt>
      <trkpt lat="44.85778" lon="-0.52762">
        <ele>43.50341796875</ele>
        <time>2022-06-05T12:43:33Z</time>
      </trkpt>
      <trkpt lat="44.85782" lon="-0.5275">
        <ele>45.060498465259</ele>
        <time>2022-06-05T12:43:41Z</time>
      </trkpt>
      <trkpt lat="44.85785" lon="-0.52737">
        <ele>45.694168182549</ele>
        <time>2022-06-05T12:43:49Z</time>
      </trkpt>
      <trkpt lat="44.8579" lon="-0.52726">
        <ele>47.110487895761</ele>
        <time>2022-06-05T12:43:58Z</time>
      </trkpt>
      <trkpt lat="44.858" lon="-0.52724">
        <ele>49.087717818946</ele>
        <time>2022-06-05T12:44:07Z</time>
      </trkpt>
      <trkpt lat="44.85809" lon="-0.5272">
        <ele>51.056299502315</ele>
        <time>2022-06-05T12:44:16Z</time>
      </trkpt>
      <trkpt lat="44.85816" lon="-0.52711">
        <ele>55.228550663722</ele>
        <time>2022-06-05T12:44:25Z</time>
      </trkpt>
      <trkpt lat="44.85824" lon="-0.52702">
        <ele>58.532655322515</ele>
        <time>2022-06-05T12:44:39Z</time>
      </trkpt>
      <trkpt lat="44.85836" lon="-0.52714">
        <ele>58.693255008811</ele>
        <time>2022-06-05T12:47:22Z</time>
      </trkpt>
      <trkpt lat="44.85843" lon="-0.52724">
        <ele>58.267584985493</ele>
        <time>2022-06-05T12:47:30Z</time>
      </trkpt>
      <trkpt lat="44.8585" lon="-0.52734">
        <ele>59.10876816307</ele>
        <time>2022-06-05T12:47:38Z</time>
      </trkpt>
      <trkpt lat="44.85857" lon="-0.52744">
        <ele>57.652759749848</ele>
        <time>2022-06-05T12:47:45Z</time>
      </trkpt>
      <trkpt lat="44.85864" lon="-0.52754">
        <ele>58.564322188998</ele>
        <time>2022-06-05T12:47:53Z</time>
      </trkpt>
      <trkpt lat="44.85871" lon="-0.52765">
        <ele>53.200256347656</ele>
        <time>2022-06-05T12:48:10Z</time>
      </trkpt>
      <trkpt lat="44.85879" lon="-0.52771">
        <ele>57.27157038579</ele>
        <time>2022-06-05T12:48:17Z</time>
      </trkpt>
      <trkpt lat="44.85886" lon="-0.52781">
        <ele>58.071440325254</ele>
        <time>2022-06-05T12:48:26Z</time>
      </trkpt>
      <trkpt lat="44.85892" lon="-0.52791">
        <ele>58.607568388451</ele>
        <time>2022-06-05T12:48:34Z</time>
      </trkpt>
      <trkpt lat="44.859" lon="-0.52799">
        <ele>57.327432771691</ele>
        <time>2022-06-05T12:48:43Z</time>
      </trkpt>
      <trkpt lat="44.85908" lon="-0.52806">
        <ele>57.418943931873</ele>
        <time>2022-06-05T12:48:51Z</time>
      </trkpt>
      <trkpt lat="44.85919" lon="-0.52805">
        <ele>57.378351288476</ele>
        <time>2022-06-05T12:49:00Z</time>
      </trkpt>
      <trkpt lat="44.85928" lon="-0.52806">
        <ele>57.127338486634</ele>
        <time>2022-06-05T12:49:18Z</time>
      </trkpt>
      <trkpt lat="44.85938" lon="-0.52803">
        <ele>57.793312393007</ele>
        <time>2022-06-05T12:49:25Z</time>
      </trkpt>
      <trkpt lat="44.85947" lon="-0.52797">
        <ele>58.725799884022</ele>
        <time>2022-06-05T12:49:32Z</time>
      </trkpt>
      <trkpt lat="44.85955" lon="-0.5279">
        <ele>59.376166635381</ele>
        <time>2022-06-05T12:49:38Z</time>
      </trkpt>
      <trkpt lat="44.85964" lon="-0.52783">
        <ele>58.456473331527</ele>
        <time>2022-06-05T12:49:45Z</time>
      </trkpt>
      <trkpt lat="44.85973" lon="-0.5278">
        <ele>59.249991736457</ele>
        <time>2022-06-05T12:49:52Z</time>
      </trkpt>
      <trkpt lat="44.85982" lon="-0.52775">
        <ele>60.239121634358</ele>
        <time>2022-06-05T12:50:02Z</time>
      </trkpt>
      <trkpt lat="44.85993" lon="-0.52775">
        <ele>58.691197091484</ele>
        <time>2022-06-05T12:50:09Z</time>
      </trkpt>
      <trkpt lat="44.86005" lon="-0.52775">
        <ele>55.99817600328</ele>
        <time>2022-06-05T12:50:15Z</time>
      </trkpt>
      <trkpt lat="44.86015" lon="-0.52771">
        <ele>56.29382329282</ele>
        <time>2022-06-05T12:50:20Z</time>
      </trkpt>
      <trkpt lat="44.86024" lon="-0.52766">
        <ele>55.045074355168</ele>
        <time>2022-06-05T12:50:29Z</time>
      </trkpt>
      <trkpt lat="44.86034" lon="-0.52765">
        <ele>54.215846727386</ele>
        <time>2022-06-05T12:50:37Z</time>
      </trkpt>
      <trkpt lat="44.86043" lon="-0.52761">
        <ele>58.300003051758</ele>
        <time>2022-06-05T12:51:06Z</time>
      </trkpt>
      <trkpt lat="44.86052" lon="-0.52755">
        <ele>54.19975042749</ele>
        <time>2022-06-05T12:51:15Z</time>
      </trkpt>
      <trkpt lat="44.86061" lon="-0.52749">
        <ele>53.203715806861</ele>
        <time>2022-06-05T12:51:23Z</time>
      </trkpt>
      <trkpt lat="44.86072" lon="-0.52743">
        <ele>54.228551746337</ele>
        <time>2022-06-05T12:51:31Z</time>
      </trkpt>
      <trkpt lat="44.86081" lon="-0.52739">
        <ele>51.08547256128</ele>
        <time>2022-06-05T12:51:37Z</time>
      </trkpt>
      <trkpt lat="44.86084" lon="-0.52726">
        <ele>51.245660749937</ele>
        <time>2022-06-05T12:51:46Z</time>
      </trkpt>
      <trkpt lat="44.86086" lon="-0.52713">
        <ele>51.696259296944</ele>
        <time>2022-06-05T12:51:53Z</time>
      </trkpt>
      <trkpt lat="44.86087" lon="-0.52699">
        <ele>53.572655248861</ele>
        <time>2022-06-05T12:52:02Z</time>
      </trkpt>
      <trkpt lat="44.8609" lon="-0.52686">
        <ele>52.737289046938</ele>
        <time>2022-06-05T12:52:09Z</time>
      </trkpt>
      <trkpt lat="44.86093" lon="-0.52672">
        <ele>51.2379643228</ele>
        <time>2022-06-05T12:52:17Z</time>
      </trkpt>
      <trkpt lat="44.86098" lon="-0.52661">
        <ele>53.385860214396</ele>
        <time>2022-06-05T12:52:24Z</time>
      </trkpt>
      <trkpt lat="44.86105" lon="-0.5265">
        <ele>50.48663343423</ele>
        <time>2022-06-05T12:52:31Z</time>
      </trkpt>
      <trkpt lat="44.86112" lon="-0.52639">
        <ele>53.052999254536</ele>
        <time>2022-06-05T12:52:38Z</time>
      </trkpt>
      <trkpt lat="44.86119" lon="-0.52631">
        <ele>51.654434363021</ele>
        <time>2022-06-05T12:52:45Z</time>
      </trkpt>
      <trkpt lat="44.86127" lon="-0.52623">
        <ele>54.232625952128</ele>
        <time>2022-06-05T12:52:52Z</time>
      </trkpt>
      <trkpt lat="44.86136" lon="-0.52614">
        <ele>53.771670186647</ele>
        <time>2022-06-05T12:53:01Z</time>
      </trkpt>
      <trkpt lat="44.86145" lon="-0.52614">
        <ele>53.291003252078</ele>
        <time>2022-06-05T12:53:09Z</time>
      </trkpt>
      <trkpt lat="44.86155" lon="-0.52612">
        <ele>54.922330601783</ele>
        <time>2022-06-05T12:53:17Z</time>
      </trkpt>
      <trkpt lat="44.86165" lon="-0.52616">
        <ele>52.761096125656</ele>
        <time>2022-06-05T12:53:27Z</time>
      </trkpt>
      <trkpt lat="44.86174" lon="-0.52619">
        <ele>52.484037897122</ele>
        <time>2022-06-05T12:53:35Z</time>
      </trkpt>
      <trkpt lat="44.86181" lon="-0.5263">
        <ele>53.15685838085</ele>
        <time>2022-06-05T12:53:43Z</time>
      </trkpt>
      <trkpt lat="44.86187" lon="-0.52641">
        <ele>52.096298816124</ele>
        <time>2022-06-05T12:53:51Z</time>
      </trkpt>
      <trkpt lat="44.86193" lon="-0.52652">
        <ele>55.187917055928</ele>
        <time>2022-06-05T12:53:58Z</time>
      </trkpt>
      <trkpt lat="44.86198" lon="-0.52663">
        <ele>52.508486130695</ele>
        <time>2022-06-05T12:54:04Z</time>
      </trkpt>
      <trkpt lat="44.86203" lon="-0.52675">
        <ele>51.713285167326</ele>
        <time>2022-06-05T12:54:16Z</time>
      </trkpt>
      <trkpt lat="44.86204" lon="-0.52689">
        <ele>52.750992472165</ele>
        <time>2022-06-05T12:54:23Z</time>
      </trkpt>
      <trkpt lat="44.86204" lon="-0.52704">
        <ele>50.512113256558</ele>
        <time>2022-06-05T12:54:29Z</time>
      </trkpt>
      <trkpt lat="44.86206" lon="-0.52717">
        <ele>50.880155261391</ele>
        <time>2022-06-05T12:54:36Z</time>
      </trkpt>
      <trkpt lat="44.86211" lon="-0.52729">
        <ele>48.771850236749</ele>
        <time>2022-06-05T12:54:45Z</time>
      </trkpt>
      <trkpt lat="44.86215" lon="-0.52741">
        <ele>48.974792562282</ele>
        <time>2022-06-05T12:54:51Z</time>
      </trkpt>
      <trkpt lat="44.86223" lon="-0.52752">
        <ele>49.365767447318</ele>
        <time>2022-06-05T12:55:00Z</time>
      </trkpt>
      <trkpt lat="44.86229" lon="-0.52764">
        <ele>50.756280170487</ele>
        <time>2022-06-05T12:55:10Z</time>
      </trkpt>
      <trkpt lat="44.86234" lon="-0.52776">
        <ele>54.357093995299</ele>
        <time>2022-06-05T12:55:18Z</time>
      </trkpt>
      <trkpt lat="44.8624" lon="-0.52786">
        <ele>51.412459797003</ele>
        <time>2022-06-05T12:55:25Z</time>
      </trkpt>
      <trkpt lat="44.86243" lon="-0.528">
        <ele>51.57871966489</ele>
        <time>2022-06-05T12:55:40Z</time>
      </trkpt>
      <trkpt lat="44.8625" lon="-0.52811">
        <ele>55.342137667538</ele>
        <time>2022-06-05T12:55:48Z</time>
      </trkpt>
      <trkpt lat="44.86256" lon="-0.52821">
        <ele>52.653139626162</ele>
        <time>2022-06-05T12:55:54Z</time>
      </trkpt>
      <trkpt lat="44.86261" lon="-0.52834">
        <ele>54.076632309583</ele>
        <time>2022-06-05T12:56:03Z</time>
      </trkpt>
      <trkpt lat="44.86265" lon="-0.52846">
        <ele>52.924482443579</ele>
        <time>2022-06-05T12:56:12Z</time>
      </trkpt>
      <trkpt lat="44.86271" lon="-0.52856">
        <ele>53.75747746747</ele>
        <time>2022-06-05T12:56:19Z</time>
      </trkpt>
      <trkpt lat="44.8628" lon="-0.52861">
        <ele>59.099998474121</ele>
        <time>2022-06-05T12:56:26Z</time>
      </trkpt>
      <trkpt lat="44.86288" lon="-0.5287">
        <ele>59.099998474121</ele>
        <time>2022-06-05T12:56:33Z</time>
      </trkpt>
      <trkpt lat="44.86297" lon="-0.52872">
        <ele>54.126662569016</ele>
        <time>2022-06-05T12:56:43Z</time>
      </trkpt>
      <trkpt lat="44.86306" lon="-0.52867">
        <ele>54.151773251747</ele>
        <time>2022-06-05T12:56:51Z</time>
      </trkpt>
      <trkpt lat="44.86315" lon="-0.52863">
        <ele>55.14125441267</ele>
        <time>2022-06-05T12:56:58Z</time>
      </trkpt>
      <trkpt lat="44.86323" lon="-0.52854">
        <ele>59.099998474121</ele>
        <time>2022-06-05T12:57:06Z</time>
      </trkpt>
      <trkpt lat="44.86325" lon="-0.52838">
        <ele>54.241944251393</ele>
        <time>2022-06-05T12:57:14Z</time>
      </trkpt>
      <trkpt lat="44.86327" lon="-0.52826">
        <ele>55.098093819328</ele>
        <time>2022-06-05T12:57:22Z</time>
      </trkpt>
      <trkpt lat="44.86331" lon="-0.52814">
        <ele>56.846600115834</ele>
        <time>2022-06-05T12:57:28Z</time>
      </trkpt>
      <trkpt lat="44.8633" lon="-0.52801">
        <ele>54.095077683954</ele>
        <time>2022-06-05T12:57:36Z</time>
      </trkpt>
      <trkpt lat="44.86331" lon="-0.52788">
        <ele>54.034641594429</ele>
        <time>2022-06-05T12:57:43Z</time>
      </trkpt>
      <trkpt lat="44.86331" lon="-0.52774">
        <ele>55.11934935336</ele>
        <time>2022-06-05T12:57:51Z</time>
      </trkpt>
      <trkpt lat="44.86329" lon="-0.5276">
        <ele>58.900001525879</ele>
        <time>2022-06-05T12:57:59Z</time>
      </trkpt>
      <trkpt lat="44.86327" lon="-0.52745">
        <ele>56.475486762721</ele>
        <time>2022-06-05T12:58:06Z</time>
      </trkpt>
      <trkpt lat="44.86325" lon="-0.52732">
        <ele>57.137399599336</ele>
        <time>2022-06-05T12:58:14Z</time>
      </trkpt>
      <trkpt lat="44.86322" lon="-0.52718">
        <ele>56.66627051104</ele>
        <time>2022-06-05T12:58:21Z</time>
      </trkpt>
      <trkpt lat="44.86324" lon="-0.52704">
        <ele>56.290065548333</ele>
        <time>2022-06-05T12:58:29Z</time>
      </trkpt>
      <trkpt lat="44.86323" lon="-0.52691">
        <ele>52.700004577637</ele>
        <time>2022-06-05T12:58:36Z</time>
      </trkpt>
      <trkpt lat="44.86318" lon="-0.52679">
        <ele>56.723778327349</ele>
        <time>2022-06-05T12:58:43Z</time>
      </trkpt>
      <trkpt lat="44.86317" lon="-0.52665">
        <ele>52.700004577637</ele>
        <time>2022-06-05T12:58:51Z</time>
      </trkpt>
      <trkpt lat="44.86319" lon="-0.52653">
        <ele>52.700004577637</ele>
        <time>2022-06-05T12:58:59Z</time>
      </trkpt>
      <trkpt lat="44.86317" lon="-0.52639">
        <ele>57.184600335766</ele>
        <time>2022-06-05T12:59:07Z</time>
      </trkpt>
      <trkpt lat="44.86314" lon="-0.52625">
        <ele>52.700004577637</ele>
        <time>2022-06-05T12:59:16Z</time>
      </trkpt>
      <trkpt lat="44.86311" lon="-0.52612">
        <ele>52.700004577637</ele>
        <time>2022-06-05T12:59:23Z</time>
      </trkpt>
      <trkpt lat="44.86307" lon="-0.526">
        <ele>52.700004577637</ele>
        <time>2022-06-05T12:59:31Z</time>
      </trkpt>
      <trkpt lat="44.86303" lon="-0.52588">
        <ele>52.700004577637</ele>
        <time>2022-06-05T12:59:38Z</time>
      </trkpt>
      <trkpt lat="44.86302" lon="-0.52574">
        <ele>58.508333879774</ele>
        <time>2022-06-05T12:59:46Z</time>
      </trkpt>
      <trkpt lat="44.863" lon="-0.5256">
        <ele>52.700004577637</ele>
        <time>2022-06-05T12:59:56Z</time>
      </trkpt>
      <trkpt lat="44.86298" lon="-0.52547">
        <ele>57.497354549505</ele>
        <time>2022-06-05T13:00:02Z</time>
      </trkpt>
      <trkpt lat="44.86297" lon="-0.52534">
        <ele>52.700004577637</ele>
        <time>2022-06-05T13:00:10Z</time>
      </trkpt>
      <trkpt lat="44.86305" lon="-0.52527">
        <ele>59.099998474121</ele>
        <time>2022-06-05T13:00:16Z</time>
      </trkpt>
      <trkpt lat="44.86314" lon="-0.5252">
        <ele>57.800003051758</ele>
        <time>2022-06-05T13:00:25Z</time>
      </trkpt>
      <trkpt lat="44.86316" lon="-0.52507">
        <ele>52.700004577637</ele>
        <time>2022-06-05T13:00:35Z</time>
      </trkpt>
      <trkpt lat="44.86313" lon="-0.52494">
        <ele>58.200004577637</ele>
        <time>2022-06-05T13:00:42Z</time>
      </trkpt>
      <trkpt lat="44.86313" lon="-0.5248">
        <ele>52.700004577637</ele>
        <time>2022-06-05T13:00:49Z</time>
      </trkpt>
      <trkpt lat="44.86314" lon="-0.52466">
        <ele>52.700004577637</ele>
        <time>2022-06-05T13:00:52Z</time>
      </trkpt>
      <trkpt lat="44.86314" lon="-0.52451">
        <ele>57.800003051758</ele>
        <time>2022-06-05T13:00:56Z</time>
      </trkpt>
      <trkpt lat="44.86318" lon="-0.52433">
        <ele>41.364562988281</ele>
        <time>2022-06-05T13:01:10Z</time>
      </trkpt>
      <trkpt lat="44.86319" lon="-0.52414">
        <ele>58.200004577637</ele>
        <time>2022-06-05T13:01:26Z</time>
      </trkpt>
      <trkpt lat="44.86322" lon="-0.524">
        <ele>58.200004577637</ele>
        <time>2022-06-05T13:01:36Z</time>
      </trkpt>
      <trkpt lat="44.86322" lon="-0.52387">
        <ele>58.099998474121</ele>
        <time>2022-06-05T13:01:44Z</time>
      </trkpt>
      <trkpt lat="44.86323" lon="-0.52373">
        <ele>58.200004577637</ele>
        <time>2022-06-05T13:01:52Z</time>
      </trkpt>
      <trkpt lat="44.8632" lon="-0.5236">
        <ele>58.099998474121</ele>
        <time>2022-06-05T13:01:59Z</time>
      </trkpt>
      <trkpt lat="44.86314" lon="-0.52349">
        <ele>60.195494964709</ele>
        <time>2022-06-05T13:02:07Z</time>
      </trkpt>
      <trkpt lat="44.86307" lon="-0.52339">
        <ele>54.576122749022</ele>
        <time>2022-06-05T13:02:14Z</time>
      </trkpt>
      <trkpt lat="44.863" lon="-0.52329">
        <ele>59.099998474121</ele>
        <time>2022-06-05T13:02:27Z</time>
      </trkpt>
      <trkpt lat="44.86311" lon="-0.52326">
        <ele>57.900001525879</ele>
        <time>2022-06-05T13:02:42Z</time>
      </trkpt>
      <trkpt lat="44.86318" lon="-0.52335">
        <ele>58.099998474121</ele>
        <time>2022-06-05T13:02:50Z</time>
      </trkpt>
      <trkpt lat="44.86332" lon="-0.52332">
        <ele>58.200004577637</ele>
        <time>2022-06-05T13:02:59Z</time>
      </trkpt>
      <trkpt lat="44.86342" lon="-0.52329">
        <ele>57.900001525879</ele>
        <time>2022-06-05T13:03:06Z</time>
      </trkpt>
      <trkpt lat="44.8635" lon="-0.52321">
        <ele>59.305539595412</ele>
        <time>2022-06-05T13:03:15Z</time>
      </trkpt>
      <trkpt lat="44.86356" lon="-0.52311">
        <ele>59.099998474121</ele>
        <time>2022-06-05T13:03:21Z</time>
      </trkpt>
      <trkpt lat="44.86366" lon="-0.52314">
        <ele>52.372741699219</ele>
        <time>2022-06-05T13:03:27Z</time>
      </trkpt>
      <trkpt lat="44.86376" lon="-0.52314">
        <ele>58.584194584174</ele>
        <time>2022-06-05T13:03:34Z</time>
      </trkpt>
      <trkpt lat="44.86385" lon="-0.52311">
        <ele>58.099998474121</ele>
        <time>2022-06-05T13:03:42Z</time>
      </trkpt>
      <trkpt lat="44.86395" lon="-0.52306">
        <ele>54.891662597656</ele>
        <time>2022-06-05T13:03:49Z</time>
      </trkpt>
      <trkpt lat="44.86407" lon="-0.5231">
        <ele>57.597973035714</ele>
        <time>2022-06-05T13:04:01Z</time>
      </trkpt>
      <trkpt lat="44.86415" lon="-0.52315">
        <ele>58.099998474121</ele>
        <time>2022-06-05T13:04:09Z</time>
      </trkpt>
      <trkpt lat="44.86424" lon="-0.52311">
        <ele>57.638454293607</ele>
        <time>2022-06-05T13:04:14Z</time>
      </trkpt>
      <trkpt lat="44.86434" lon="-0.52314">
        <ele>58.592882531073</ele>
        <time>2022-06-05T13:04:21Z</time>
      </trkpt>
      <trkpt lat="44.86444" lon="-0.52313">
        <ele>58.144313566258</ele>
        <time>2022-06-05T13:04:26Z</time>
      </trkpt>
      <trkpt lat="44.86454" lon="-0.52318">
        <ele>58.876093903905</ele>
        <time>2022-06-05T13:04:32Z</time>
      </trkpt>
      <trkpt lat="44.86464" lon="-0.5232">
        <ele>81</ele>
        <time>2022-06-05T13:04:40Z</time>
      </trkpt>
      <trkpt lat="44.86474" lon="-0.52321">
        <ele>57.139267216103</ele>
        <time>2022-06-05T13:04:48Z</time>
      </trkpt>
      <trkpt lat="44.86481" lon="-0.52329">
        <ele>58.311455020501</ele>
        <time>2022-06-05T13:04:53Z</time>
      </trkpt>
      <trkpt lat="44.86491" lon="-0.52335">
        <ele>57.027208862386</ele>
        <time>2022-06-05T13:05:01Z</time>
      </trkpt>
      <trkpt lat="44.86499" lon="-0.52339">
        <ele>57.663836286405</ele>
        <time>2022-06-05T13:05:08Z</time>
      </trkpt>
      <trkpt lat="44.86507" lon="-0.5235">
        <ele>55.676522302333</ele>
        <time>2022-06-05T13:05:17Z</time>
      </trkpt>
      <trkpt lat="44.86508" lon="-0.52362">
        <ele>56.435039961189</ele>
        <time>2022-06-05T13:05:22Z</time>
      </trkpt>
      <trkpt lat="44.86511" lon="-0.52375">
        <ele>55.741987907309</ele>
        <time>2022-06-05T13:05:30Z</time>
      </trkpt>
      <trkpt lat="44.86515" lon="-0.52387">
        <ele>56.500938653775</ele>
        <time>2022-06-05T13:05:37Z</time>
      </trkpt>
      <trkpt lat="44.86523" lon="-0.52394">
        <ele>55.951014952338</ele>
        <time>2022-06-05T13:05:44Z</time>
      </trkpt>
      <trkpt lat="44.86532" lon="-0.52398">
        <ele>57.595837760352</ele>
        <time>2022-06-05T13:05:53Z</time>
      </trkpt>
      <trkpt lat="44.86541" lon="-0.52405">
        <ele>53.792236328125</ele>
        <time>2022-06-05T13:06:00Z</time>
      </trkpt>
      <trkpt lat="44.86542" lon="-0.52418">
        <ele>56.156769782299</ele>
        <time>2022-06-05T13:06:06Z</time>
      </trkpt>
      <trkpt lat="44.86538" lon="-0.5243">
        <ele>56.907527366512</ele>
        <time>2022-06-05T13:06:13Z</time>
      </trkpt>
      <trkpt lat="44.86535" lon="-0.52442">
        <ele>56.036485405343</ele>
        <time>2022-06-05T13:06:20Z</time>
      </trkpt>
      <trkpt lat="44.86533" lon="-0.52456">
        <ele>55.046862370748</ele>
        <time>2022-06-05T13:06:28Z</time>
      </trkpt>
      <trkpt lat="44.86529" lon="-0.5247">
        <ele>54.646643615112</ele>
        <time>2022-06-05T13:06:37Z</time>
      </trkpt>
      <trkpt lat="44.86527" lon="-0.52483">
        <ele>52.694194115701</ele>
        <time>2022-06-05T13:06:45Z</time>
      </trkpt>
      <trkpt lat="44.86524" lon="-0.52496">
        <ele>53.339039925246</ele>
        <time>2022-06-05T13:06:51Z</time>
      </trkpt>
      <trkpt lat="44.8653" lon="-0.52507">
        <ele>50.087016255405</ele>
        <time>2022-06-05T13:06:59Z</time>
      </trkpt>
      <trkpt lat="44.86538" lon="-0.52514">
        <ele>53.014088563435</ele>
        <time>2022-06-05T13:07:08Z</time>
      </trkpt>
      <trkpt lat="44.86545" lon="-0.52523">
        <ele>53.122905618133</ele>
        <time>2022-06-05T13:07:17Z</time>
      </trkpt>
      <trkpt lat="44.86552" lon="-0.52534">
        <ele>51.029082702203</ele>
        <time>2022-06-05T13:07:26Z</time>
      </trkpt>
      <trkpt lat="44.8656" lon="-0.52542">
        <ele>50.1104818821</ele>
        <time>2022-06-05T13:07:32Z</time>
      </trkpt>
      <trkpt lat="44.8657" lon="-0.52548">
        <ele>48.044453479261</ele>
        <time>2022-06-05T13:07:40Z</time>
      </trkpt>
      <trkpt lat="44.8658" lon="-0.52554">
        <ele>70.800003051758</ele>
        <time>2022-06-05T13:07:50Z</time>
      </trkpt>
      <trkpt lat="44.86589" lon="-0.52557">
        <ele>39.932262926905</ele>
        <time>2022-06-05T13:07:59Z</time>
      </trkpt>
      <trkpt lat="44.86597" lon="-0.52564">
        <ele>42.668946425288</ele>
        <time>2022-06-05T13:08:07Z</time>
      </trkpt>
      <trkpt lat="44.86599" lon="-0.52577">
        <ele>43.857727688591</ele>
        <time>2022-06-05T13:08:14Z</time>
      </trkpt>
      <trkpt lat="44.86599" lon="-0.5259">
        <ele>41.246940661832</ele>
        <time>2022-06-05T13:08:20Z</time>
      </trkpt>
      <trkpt lat="44.86604" lon="-0.52604">
        <ele>42.144296025032</ele>
        <time>2022-06-05T13:08:29Z</time>
      </trkpt>
      <trkpt lat="44.86604" lon="-0.52619">
        <ele>41.863297398588</ele>
        <time>2022-06-05T13:08:38Z</time>
      </trkpt>
      <trkpt lat="44.86602" lon="-0.52632">
        <ele>41.833126191346</ele>
        <time>2022-06-05T13:08:44Z</time>
      </trkpt>
      <trkpt lat="44.86598" lon="-0.52645">
        <ele>40.998462997937</ele>
        <time>2022-06-05T13:08:51Z</time>
      </trkpt>
      <trkpt lat="44.86598" lon="-0.52659">
        <ele>37.154191304731</ele>
        <time>2022-06-05T13:08:59Z</time>
      </trkpt>
      <trkpt lat="44.86607" lon="-0.52667">
        <ele>37.793473480451</ele>
        <time>2022-06-05T13:09:08Z</time>
      </trkpt>
      <trkpt lat="44.86616" lon="-0.5267">
        <ele>42.930762765799</ele>
        <time>2022-06-05T13:09:14Z</time>
      </trkpt>
      <trkpt lat="44.86625" lon="-0.52667">
        <ele>42.349073572461</ele>
        <time>2022-06-05T13:09:22Z</time>
      </trkpt>
      <trkpt lat="44.8663" lon="-0.52679">
        <ele>43.637100863139</ele>
        <time>2022-06-05T13:09:29Z</time>
      </trkpt>
      <trkpt lat="44.86637" lon="-0.5269">
        <ele>29.429931640625</ele>
        <time>2022-06-05T13:09:36Z</time>
      </trkpt>
      <trkpt lat="44.86641" lon="-0.52702">
        <ele>47.932584145935</ele>
        <time>2022-06-05T13:09:43Z</time>
      </trkpt>
      <trkpt lat="44.8664" lon="-0.52716">
        <ele>46.688046327089</ele>
        <time>2022-06-05T13:09:52Z</time>
      </trkpt>
      <trkpt lat="44.8664" lon="-0.5273">
        <ele>45.592650799892</ele>
        <time>2022-06-05T13:10:00Z</time>
      </trkpt>
      <trkpt lat="44.86649" lon="-0.52737">
        <ele>48.049821876839</ele>
        <time>2022-06-05T13:10:08Z</time>
      </trkpt>
      <trkpt lat="44.86658" lon="-0.52731">
        <ele>35.927368164062</ele>
        <time>2022-06-05T13:10:13Z</time>
      </trkpt>
      <trkpt lat="44.86667" lon="-0.52728">
        <ele>52.357459700729</ele>
        <time>2022-06-05T13:10:20Z</time>
      </trkpt>
      <trkpt lat="44.86676" lon="-0.52724">
        <ele>51.391053570159</ele>
        <time>2022-06-05T13:10:29Z</time>
      </trkpt>
      <trkpt lat="44.86685" lon="-0.5272">
        <ele>50.62353275666</ele>
        <time>2022-06-05T13:10:37Z</time>
      </trkpt>
      <trkpt lat="44.86695" lon="-0.52716">
        <ele>52.043996344442</ele>
        <time>2022-06-05T13:10:45Z</time>
      </trkpt>
      <trkpt lat="44.86698" lon="-0.52729">
        <ele>53.104893240369</ele>
        <time>2022-06-05T13:10:53Z</time>
      </trkpt>
      <trkpt lat="44.867" lon="-0.52742">
        <ele>52.555853151225</ele>
        <time>2022-06-05T13:11:00Z</time>
      </trkpt>
      <trkpt lat="44.86703" lon="-0.52755">
        <ele>52.362308193341</ele>
        <time>2022-06-05T13:11:07Z</time>
      </trkpt>
      <trkpt lat="44.86706" lon="-0.52769">
        <ele>52.873182946236</ele>
        <time>2022-06-05T13:11:15Z</time>
      </trkpt>
      <trkpt lat="44.86708" lon="-0.52783">
        <ele>53.797621522039</ele>
        <time>2022-06-05T13:11:23Z</time>
      </trkpt>
      <trkpt lat="44.86705" lon="-0.52795">
        <ele>52.247693151966</ele>
        <time>2022-06-05T13:11:30Z</time>
      </trkpt>
      <trkpt lat="44.86702" lon="-0.52808">
        <ele>52.076572743068</ele>
        <time>2022-06-05T13:11:38Z</time>
      </trkpt>
      <trkpt lat="44.86703" lon="-0.52822">
        <ele>53.599998474121</ele>
        <time>2022-06-05T13:12:23Z</time>
      </trkpt>
      <trkpt lat="44.867" lon="-0.52836">
        <ele>53.599998474121</ele>
        <time>2022-06-05T13:12:30Z</time>
      </trkpt>
      <trkpt lat="44.86702" lon="-0.52854">
        <ele>53.599998474121</ele>
        <time>2022-06-05T13:12:44Z</time>
      </trkpt>
      <trkpt lat="44.86699" lon="-0.52868">
        <ele>54.700004577637</ele>
        <time>2022-06-05T13:12:48Z</time>
      </trkpt>
      <trkpt lat="44.86703" lon="-0.52881">
        <ele>53.599998474121</ele>
        <time>2022-06-05T13:12:55Z</time>
      </trkpt>
      <trkpt lat="44.86712" lon="-0.52894">
        <ele>54.700004577637</ele>
        <time>2022-06-05T13:13:05Z</time>
      </trkpt>
      <trkpt lat="44.86712" lon="-0.52907">
        <ele>54.700004577637</ele>
        <time>2022-06-05T13:13:14Z</time>
      </trkpt>
      <trkpt lat="44.86711" lon="-0.52894">
        <ele>54.700004577637</ele>
        <time>2022-06-05T13:15:10Z</time>
      </trkpt>
      <trkpt lat="44.86706" lon="-0.52882">
        <ele>54.700004577637</ele>
        <time>2022-06-05T13:15:15Z</time>
      </trkpt>
      <trkpt lat="44.86699" lon="-0.52874">
        <ele>53.599998474121</ele>
        <time>2022-06-05T13:15:23Z</time>
      </trkpt>
      <trkpt lat="44.86698" lon="-0.52858">
        <ele>54.700004577637</ele>
        <time>2022-06-05T13:15:29Z</time>
      </trkpt>
      <trkpt lat="44.86699" lon="-0.52845">
        <ele>54.700004577637</ele>
        <time>2022-06-05T13:15:34Z</time>
      </trkpt>
      <trkpt lat="44.86702" lon="-0.52833">
        <ele>54.700004577637</ele>
        <time>2022-06-05T13:15:40Z</time>
      </trkpt>
      <trkpt lat="44.8671" lon="-0.52825">
        <ele>54.700004577637</ele>
        <time>2022-06-05T13:15:47Z</time>
      </trkpt>
      <trkpt lat="44.86719" lon="-0.52819">
        <ele>55.200004577637</ele>
        <time>2022-06-05T13:15:56Z</time>
      </trkpt>
      <trkpt lat="44.86728" lon="-0.52813">
        <ele>55.200004577637</ele>
        <time>2022-06-05T13:16:05Z</time>
      </trkpt>
      <trkpt lat="44.86739" lon="-0.52813">
        <ele>55.200004577637</ele>
        <time>2022-06-05T13:16:11Z</time>
      </trkpt>
      <trkpt lat="44.86748" lon="-0.52813">
        <ele>55.200004577637</ele>
        <time>2022-06-05T13:16:15Z</time>
      </trkpt>
      <trkpt lat="44.86757" lon="-0.52818">
        <ele>55.200004577637</ele>
        <time>2022-06-05T13:16:23Z</time>
      </trkpt>
      <trkpt lat="44.86766" lon="-0.52821">
        <ele>55.200004577637</ele>
        <time>2022-06-05T13:16:40Z</time>
      </trkpt>
      <trkpt lat="44.86772" lon="-0.52833">
        <ele>55.200004577637</ele>
        <time>2022-06-05T13:16:44Z</time>
      </trkpt>
      <trkpt lat="44.86771" lon="-0.52848">
        <ele>55.200004577637</ele>
        <time>2022-06-05T13:16:49Z</time>
      </trkpt>
      <trkpt lat="44.86768" lon="-0.52861">
        <ele>55.200004577637</ele>
        <time>2022-06-05T13:16:52Z</time>
      </trkpt>
      <trkpt lat="44.86773" lon="-0.52871">
        <ele>55.200004577637</ele>
        <time>2022-06-05T13:16:58Z</time>
      </trkpt>
      <trkpt lat="44.8678" lon="-0.52882">
        <ele>55.200004577637</ele>
        <time>2022-06-05T13:17:06Z</time>
      </trkpt>
      <trkpt lat="44.86786" lon="-0.52893">
        <ele>55.099998474121</ele>
        <time>2022-06-05T13:17:12Z</time>
      </trkpt>
      <trkpt lat="44.8679" lon="-0.52906">
        <ele>55.099998474121</ele>
        <time>2022-06-05T13:17:22Z</time>
      </trkpt>
      <trkpt lat="44.86795" lon="-0.52918">
        <ele>55.099998474121</ele>
        <time>2022-06-05T13:17:32Z</time>
      </trkpt>
      <trkpt lat="44.86802" lon="-0.52927">
        <ele>55.099998474121</ele>
        <time>2022-06-05T13:17:41Z</time>
      </trkpt>
      <trkpt lat="44.86807" lon="-0.5294">
        <ele>55.099998474121</ele>
        <time>2022-06-05T13:17:48Z</time>
      </trkpt>
      <trkpt lat="44.86795" lon="-0.52948">
        <ele>55.099998474121</ele>
        <time>2022-06-05T13:18:06Z</time>
      </trkpt>
      <trkpt lat="44.86789" lon="-0.52958">
        <ele>55.099998474121</ele>
        <time>2022-06-05T13:18:11Z</time>
      </trkpt>
      <trkpt lat="44.8678" lon="-0.52967">
        <ele>55.099998474121</ele>
        <time>2022-06-05T13:18:19Z</time>
      </trkpt>
      <trkpt lat="44.86778" lon="-0.52985">
        <ele>55.099998474121</ele>
        <time>2022-06-05T13:18:31Z</time>
      </trkpt>
      <trkpt lat="44.86768" lon="-0.52988">
        <ele>57.900001525879</ele>
        <time>2022-06-05T13:18:39Z</time>
      </trkpt>
      <trkpt lat="44.86758" lon="-0.5299">
        <ele>54.234012544234</ele>
        <time>2022-06-05T13:18:49Z</time>
      </trkpt>
      <trkpt lat="44.86751" lon="-0.52997">
        <ele>55.404788418541</ele>
        <time>2022-06-05T13:18:53Z</time>
      </trkpt>
      <trkpt lat="44.86746" lon="-0.53009">
        <ele>55.099998474121</ele>
        <time>2022-06-05T13:18:59Z</time>
      </trkpt>
      <trkpt lat="44.86751" lon="-0.53023">
        <ele>57.599998474121</ele>
        <time>2022-06-05T13:19:08Z</time>
      </trkpt>
      <trkpt lat="44.86751" lon="-0.53038">
        <ele>56.599998474121</ele>
        <time>2022-06-05T13:19:12Z</time>
      </trkpt>
      <trkpt lat="44.86748" lon="-0.53051">
        <ele>55.301820312359</ele>
        <time>2022-06-05T13:19:18Z</time>
      </trkpt>
      <trkpt lat="44.86741" lon="-0.5306">
        <ele>56.599998474121</ele>
        <time>2022-06-05T13:19:35Z</time>
      </trkpt>
      <trkpt lat="44.86737" lon="-0.53073">
        <ele>56.599998474121</ele>
        <time>2022-06-05T13:19:42Z</time>
      </trkpt>
      <trkpt lat="44.86735" lon="-0.53086">
        <ele>57.900001525879</ele>
        <time>2022-06-05T13:19:50Z</time>
      </trkpt>
      <trkpt lat="44.86732" lon="-0.53099">
        <ele>56.700004577637</ele>
        <time>2022-06-05T13:19:57Z</time>
      </trkpt>
      <trkpt lat="44.86732" lon="-0.53113">
        <ele>57.599998474121</ele>
        <time>2022-06-05T13:20:08Z</time>
      </trkpt>
      <trkpt lat="44.86726" lon="-0.53124">
        <ele>57.599998474121</ele>
        <time>2022-06-05T13:20:16Z</time>
      </trkpt>
      <trkpt lat="44.86724" lon="-0.53139">
        <ele>57.599998474121</ele>
        <time>2022-06-05T13:20:24Z</time>
      </trkpt>
      <trkpt lat="44.86719" lon="-0.53149">
        <ele>57.599998474121</ele>
        <time>2022-06-05T13:20:31Z</time>
      </trkpt>
      <trkpt lat="44.86714" lon="-0.53162">
        <ele>57.599998474121</ele>
        <time>2022-06-05T13:20:39Z</time>
      </trkpt>
      <trkpt lat="44.86712" lon="-0.53176">
        <ele>57.599998474121</ele>
        <time>2022-06-05T13:20:47Z</time>
      </trkpt>
      <trkpt lat="44.8671" lon="-0.53191">
        <ele>57.599998474121</ele>
        <time>2022-06-05T13:20:54Z</time>
      </trkpt>
      <trkpt lat="44.86711" lon="-0.53206">
        <ele>57.599998474121</ele>
        <time>2022-06-05T13:21:04Z</time>
      </trkpt>
      <trkpt lat="44.86713" lon="-0.53219">
        <ele>57.599998474121</ele>
        <time>2022-06-05T13:21:13Z</time>
      </trkpt>
      <trkpt lat="44.86719" lon="-0.53237">
        <ele>57.599998474121</ele>
        <time>2022-06-05T13:21:24Z</time>
      </trkpt>
      <trkpt lat="44.86721" lon="-0.53249">
        <ele>48.049377441406</ele>
        <time>2022-06-05T13:21:32Z</time>
      </trkpt>
      <trkpt lat="44.86725" lon="-0.53261">
        <ele>55.221400734654</ele>
        <time>2022-06-05T13:21:39Z</time>
      </trkpt>
      <trkpt lat="44.86729" lon="-0.53274">
        <ele>54.155573349448</ele>
        <time>2022-06-05T13:21:46Z</time>
      </trkpt>
      <trkpt lat="44.86737" lon="-0.53288">
        <ele>53.660543274781</ele>
        <time>2022-06-05T13:22:05Z</time>
      </trkpt>
      <trkpt lat="44.86749" lon="-0.53296">
        <ele>53.346732153076</ele>
        <time>2022-06-05T13:22:14Z</time>
      </trkpt>
      <trkpt lat="44.86757" lon="-0.53304">
        <ele>54.683350130609</ele>
        <time>2022-06-05T13:22:24Z</time>
      </trkpt>
      <trkpt lat="44.86765" lon="-0.53312">
        <ele>54.330829155024</ele>
        <time>2022-06-05T13:22:33Z</time>
      </trkpt>
      <trkpt lat="44.86774" lon="-0.5332">
        <ele>54.557648081083</ele>
        <time>2022-06-05T13:22:39Z</time>
      </trkpt>
      <trkpt lat="44.86784" lon="-0.53328">
        <ele>55.306980592069</ele>
        <time>2022-06-05T13:22:49Z</time>
      </trkpt>
      <trkpt lat="44.86794" lon="-0.53328">
        <ele>57.599998474121</ele>
        <time>2022-06-05T13:22:59Z</time>
      </trkpt>
      <trkpt lat="44.86803" lon="-0.53332">
        <ele>57.599998474121</ele>
        <time>2022-06-05T13:23:53Z</time>
      </trkpt>
      <trkpt lat="44.86812" lon="-0.53339">
        <ele>57.599998474121</ele>
        <time>2022-06-05T13:26:36Z</time>
      </trkpt>
      <trkpt lat="44.86828" lon="-0.5335">
        <ele>57.599998474121</ele>
        <time>2022-06-05T13:26:41Z</time>
      </trkpt>
      <trkpt lat="44.86837" lon="-0.53353">
        <ele>59.712511592415</ele>
        <time>2022-06-05T13:26:48Z</time>
      </trkpt>
      <trkpt lat="44.86847" lon="-0.53353">
        <ele>60.387700682335</ele>
        <time>2022-06-05T13:26:55Z</time>
      </trkpt>
      <trkpt lat="44.86856" lon="-0.53349">
        <ele>60.901847758872</ele>
        <time>2022-06-05T13:27:01Z</time>
      </trkpt>
      <trkpt lat="44.86866" lon="-0.53345">
        <ele>62.175845224005</ele>
        <time>2022-06-05T13:27:10Z</time>
      </trkpt>
      <trkpt lat="44.86875" lon="-0.53341">
        <ele>64.241707369902</ele>
        <time>2022-06-05T13:27:20Z</time>
      </trkpt>
      <trkpt lat="44.86884" lon="-0.53343">
        <ele>65.977537616008</ele>
        <time>2022-06-05T13:27:30Z</time>
      </trkpt>
      <trkpt lat="44.86895" lon="-0.53346">
        <ele>66.775977169911</ele>
        <time>2022-06-05T13:27:41Z</time>
      </trkpt>
      <trkpt lat="44.86905" lon="-0.53346">
        <ele>67.016762546565</ele>
        <time>2022-06-05T13:27:52Z</time>
      </trkpt>
      <trkpt lat="44.86915" lon="-0.53342">
        <ele>58.650390625</ele>
        <time>2022-06-05T13:27:59Z</time>
      </trkpt>
      <trkpt lat="44.86924" lon="-0.53339">
        <ele>66.796666124354</ele>
        <time>2022-06-05T13:28:06Z</time>
      </trkpt>
      <trkpt lat="44.86935" lon="-0.53335">
        <ele>67.130566371003</ele>
        <time>2022-06-05T13:28:16Z</time>
      </trkpt>
      <trkpt lat="44.86945" lon="-0.53333">
        <ele>66.610696262507</ele>
        <time>2022-06-05T13:28:22Z</time>
      </trkpt>
      <trkpt lat="44.86955" lon="-0.53333">
        <ele>66.466103152514</ele>
        <time>2022-06-05T13:28:34Z</time>
      </trkpt>
      <trkpt lat="44.86965" lon="-0.53333">
        <ele>66.025372630352</ele>
        <time>2022-06-05T13:29:05Z</time>
      </trkpt>
      <trkpt lat="44.86975" lon="-0.53335">
        <ele>66.680188984989</ele>
        <time>2022-06-05T13:29:10Z</time>
      </trkpt>
      <trkpt lat="44.86983" lon="-0.53341">
        <ele>66.687788750036</ele>
        <time>2022-06-05T13:29:15Z</time>
      </trkpt>
      <trkpt lat="44.86981" lon="-0.53357">
        <ele>66.641716907475</ele>
        <time>2022-06-05T13:29:26Z</time>
      </trkpt>
      <trkpt lat="44.86976" lon="-0.53369">
        <ele>66.316871517273</ele>
        <time>2022-06-05T13:29:34Z</time>
      </trkpt>
      <trkpt lat="44.8698" lon="-0.53356">
        <ele>66.132531708698</ele>
        <time>2022-06-05T13:31:32Z</time>
      </trkpt>
      <trkpt lat="44.86984" lon="-0.53344">
        <ele>65.998572901175</ele>
        <time>2022-06-05T13:31:43Z</time>
      </trkpt>
      <trkpt lat="44.86989" lon="-0.5333">
        <ele>65.646307830711</ele>
        <time>2022-06-05T13:31:51Z</time>
      </trkpt>
      <trkpt lat="44.86995" lon="-0.53317">
        <ele>65.896986501279</ele>
        <time>2022-06-05T13:31:58Z</time>
      </trkpt>
      <trkpt lat="44.87002" lon="-0.53308">
        <ele>65.237828081701</ele>
        <time>2022-06-05T13:32:06Z</time>
      </trkpt>
      <trkpt lat="44.87009" lon="-0.53299">
        <ele>65.802844355466</ele>
        <time>2022-06-05T13:32:13Z</time>
      </trkpt>
      <trkpt lat="44.87017" lon="-0.53293">
        <ele>65.238264986329</ele>
        <time>2022-06-05T13:32:23Z</time>
      </trkpt>
      <trkpt lat="44.87026" lon="-0.53288">
        <ele>65.364629495866</ele>
        <time>2022-06-05T13:32:38Z</time>
      </trkpt>
      <trkpt lat="44.87035" lon="-0.53295">
        <ele>65.315243335965</ele>
        <time>2022-06-05T13:32:44Z</time>
      </trkpt>
      <trkpt lat="44.87043" lon="-0.53303">
        <ele>64.968967498269</ele>
        <time>2022-06-05T13:32:53Z</time>
      </trkpt>
      <trkpt lat="44.87047" lon="-0.53315">
        <ele>63.856490130366</ele>
        <time>2022-06-05T13:33:13Z</time>
      </trkpt>
      <trkpt lat="44.87052" lon="-0.53326">
        <ele>63.526045688889</ele>
        <time>2022-06-05T13:33:21Z</time>
      </trkpt>
      <trkpt lat="44.87064" lon="-0.53337">
        <ele>60.599998474121</ele>
        <time>2022-06-05T13:33:42Z</time>
      </trkpt>
      <trkpt lat="44.87073" lon="-0.53344">
        <ele>60.599998474121</ele>
        <time>2022-06-05T13:33:49Z</time>
      </trkpt>
      <trkpt lat="44.87081" lon="-0.53352">
        <ele>60.599998474121</ele>
        <time>2022-06-05T13:33:55Z</time>
      </trkpt>
      <trkpt lat="44.8709" lon="-0.53355">
        <ele>60.599998474121</ele>
        <time>2022-06-05T13:34:08Z</time>
      </trkpt>
      <trkpt lat="44.87099" lon="-0.53351">
        <ele>60.599998474121</ele>
        <time>2022-06-05T13:34:21Z</time>
      </trkpt>
      <trkpt lat="44.87109" lon="-0.53347">
        <ele>60.599998474121</ele>
        <time>2022-06-05T13:34:27Z</time>
      </trkpt>
      <trkpt lat="44.87119" lon="-0.53344">
        <ele>60.599998474121</ele>
        <time>2022-06-05T13:34:33Z</time>
      </trkpt>
      <trkpt lat="44.87129" lon="-0.53341">
        <ele>60.599998474121</ele>
        <time>2022-06-05T13:34:44Z</time>
      </trkpt>
      <trkpt lat="44.87138" lon="-0.53337">
        <ele>60.599998474121</ele>
        <time>2022-06-05T13:34:50Z</time>
      </trkpt>
      <trkpt lat="44.87147" lon="-0.5334">
        <ele>56.771804981042</ele>
        <time>2022-06-05T13:34:58Z</time>
      </trkpt>
      <trkpt lat="44.87157" lon="-0.53343">
        <ele>56.289764122322</ele>
        <time>2022-06-05T13:35:04Z</time>
      </trkpt>
      <trkpt lat="44.87169" lon="-0.53334">
        <ele>54.210071096675</ele>
        <time>2022-06-05T13:35:20Z</time>
      </trkpt>
      <trkpt lat="44.87178" lon="-0.53334">
        <ele>49.7976155882</ele>
        <time>2022-06-05T13:35:43Z</time>
      </trkpt>
      <trkpt lat="44.87189" lon="-0.53334">
        <ele>47.351349590701</ele>
        <time>2022-06-05T13:35:49Z</time>
      </trkpt>
      <trkpt lat="44.872" lon="-0.53336">
        <ele>42.823181152344</ele>
        <time>2022-06-05T13:35:53Z</time>
      </trkpt>
      <trkpt lat="44.87209" lon="-0.53338">
        <ele>45.719474868198</ele>
        <time>2022-06-05T13:36:00Z</time>
      </trkpt>
      <trkpt lat="44.87218" lon="-0.53341">
        <ele>42.690707803715</ele>
        <time>2022-06-05T13:36:13Z</time>
      </trkpt>
      <trkpt lat="44.87228" lon="-0.53339">
        <ele>42.566710028344</ele>
        <time>2022-06-05T13:36:20Z</time>
      </trkpt>
      <trkpt lat="44.87236" lon="-0.53332">
        <ele>42.363614712796</ele>
        <time>2022-06-05T13:36:26Z</time>
      </trkpt>
      <trkpt lat="44.87244" lon="-0.53323">
        <ele>42.440354296703</ele>
        <time>2022-06-05T13:36:34Z</time>
      </trkpt>
      <trkpt lat="44.87253" lon="-0.53319">
        <ele>41.846211544991</ele>
        <time>2022-06-05T13:36:42Z</time>
      </trkpt>
      <trkpt lat="44.8726" lon="-0.53328">
        <ele>37.264554514654</ele>
        <time>2022-06-05T13:36:57Z</time>
      </trkpt>
      <trkpt lat="44.87269" lon="-0.53333">
        <ele>37.638809754472</ele>
        <time>2022-06-05T13:37:11Z</time>
      </trkpt>
      <trkpt lat="44.87276" lon="-0.53343">
        <ele>30.804167021798</ele>
        <time>2022-06-05T13:37:24Z</time>
      </trkpt>
      <trkpt lat="44.87285" lon="-0.53347">
        <ele>32.54454549217</ele>
        <time>2022-06-05T13:37:31Z</time>
      </trkpt>
      <trkpt lat="44.87295" lon="-0.53351">
        <ele>31.198285567733</ele>
        <time>2022-06-05T13:37:41Z</time>
      </trkpt>
      <trkpt lat="44.87302" lon="-0.53361">
        <ele>27.796675425357</ele>
        <time>2022-06-05T13:37:52Z</time>
      </trkpt>
      <trkpt lat="44.87308" lon="-0.53372">
        <ele>24.800003051758</ele>
        <time>2022-06-05T13:38:00Z</time>
      </trkpt>
      <trkpt lat="44.87316" lon="-0.53364">
        <ele>24.800003051758</ele>
        <time>2022-06-05T13:39:13Z</time>
      </trkpt>
      <trkpt lat="44.87326" lon="-0.53365">
        <ele>24.800003051758</ele>
        <time>2022-06-05T13:39:22Z</time>
      </trkpt>
      <trkpt lat="44.87335" lon="-0.53369">
        <ele>24.800003051758</ele>
        <time>2022-06-05T13:39:31Z</time>
      </trkpt>
      <trkpt lat="44.87343" lon="-0.53375">
        <ele>24.800003051758</ele>
        <time>2022-06-05T13:39:39Z</time>
      </trkpt>
      <trkpt lat="44.87352" lon="-0.53383">
        <ele>24.800003051758</ele>
        <time>2022-06-05T13:39:46Z</time>
      </trkpt>
      <trkpt lat="44.87354" lon="-0.53366">
        <ele>26.959934297148</ele>
        <time>2022-06-05T13:40:24Z</time>
      </trkpt>
      <trkpt lat="44.8736" lon="-0.53357">
        <ele>28.54946623264</ele>
        <time>2022-06-05T13:40:32Z</time>
      </trkpt>
      <trkpt lat="44.87365" lon="-0.53345">
        <ele>30.009137594182</ele>
        <time>2022-06-05T13:40:40Z</time>
      </trkpt>
      <trkpt lat="44.87367" lon="-0.53332">
        <ele>24.800003051758</ele>
        <time>2022-06-05T13:40:53Z</time>
      </trkpt>
      <trkpt lat="44.87377" lon="-0.53328">
        <ele>33.726885048748</ele>
        <time>2022-06-05T13:41:01Z</time>
      </trkpt>
      <trkpt lat="44.87386" lon="-0.53324">
        <ele>33.601271683214</ele>
        <time>2022-06-05T13:41:14Z</time>
      </trkpt>
      <trkpt lat="44.87395" lon="-0.53322">
        <ele>33.462550506802</ele>
        <time>2022-06-05T13:41:30Z</time>
      </trkpt>
      <trkpt lat="44.87404" lon="-0.53319">
        <ele>32.226376287083</ele>
        <time>2022-06-05T13:41:42Z</time>
      </trkpt>
      <trkpt lat="44.87413" lon="-0.5331">
        <ele>34.173300037777</ele>
        <time>2022-06-05T13:41:47Z</time>
      </trkpt>
      <trkpt lat="44.87424" lon="-0.53294">
        <ele>36.35931607768</ele>
        <time>2022-06-05T13:41:52Z</time>
      </trkpt>
      <trkpt lat="44.8744" lon="-0.5327">
        <ele>37.520849880658</ele>
        <time>2022-06-05T13:42:03Z</time>
      </trkpt>
      <trkpt lat="44.87439" lon="-0.53255">
        <ele>38.08066646668</ele>
        <time>2022-06-05T13:42:21Z</time>
      </trkpt>
      <trkpt lat="44.87433" lon="-0.53246">
        <ele>37.308220743611</ele>
        <time>2022-06-05T13:42:28Z</time>
      </trkpt>
      <trkpt lat="44.87425" lon="-0.53237">
        <ele>38.087453759464</ele>
        <time>2022-06-05T13:42:36Z</time>
      </trkpt>
      <trkpt lat="44.87415" lon="-0.5323">
        <ele>40.995643023752</ele>
        <time>2022-06-05T13:42:42Z</time>
      </trkpt>
      <trkpt lat="44.87403" lon="-0.53218">
        <ele>42.925976395651</ele>
        <time>2022-06-05T13:43:04Z</time>
      </trkpt>
      <trkpt lat="44.87394" lon="-0.53207">
        <ele>47.12809863847</ele>
        <time>2022-06-05T13:43:16Z</time>
      </trkpt>
      <trkpt lat="44.87386" lon="-0.53199">
        <ele>48.493527133227</ele>
        <time>2022-06-05T13:43:22Z</time>
      </trkpt>
      <trkpt lat="44.87378" lon="-0.53193">
        <ele>52.503302309435</ele>
        <time>2022-06-05T13:43:51Z</time>
      </trkpt>
      <trkpt lat="44.87376" lon="-0.53176">
        <ele>54.5</ele>
        <time>2022-06-05T13:44:24Z</time>
      </trkpt>
      <trkpt lat="44.87375" lon="-0.5316">
        <ele>54.400001525879</ele>
        <time>2022-06-05T13:44:31Z</time>
      </trkpt>
      <trkpt lat="44.87375" lon="-0.53147">
        <ele>54.400001525879</ele>
        <time>2022-06-05T13:44:40Z</time>
      </trkpt>
      <trkpt lat="44.87378" lon="-0.53133">
        <ele>54.400001525879</ele>
        <time>2022-06-05T13:44:50Z</time>
      </trkpt>
      <trkpt lat="44.87385" lon="-0.53126">
        <ele>51.208530611585</ele>
        <time>2022-06-05T13:45:05Z</time>
      </trkpt>
      <trkpt lat="44.87393" lon="-0.53118">
        <ele>50.805607611345</ele>
        <time>2022-06-05T13:45:14Z</time>
      </trkpt>
      <trkpt lat="44.87402" lon="-0.5312">
        <ele>48.553138227256</ele>
        <time>2022-06-05T13:45:23Z</time>
      </trkpt>
      <trkpt lat="44.87412" lon="-0.53121">
        <ele>46.744678627791</ele>
        <time>2022-06-05T13:45:34Z</time>
      </trkpt>
      <trkpt lat="44.8742" lon="-0.53114">
        <ele>47.228644050322</ele>
        <time>2022-06-05T13:45:43Z</time>
      </trkpt>
      <trkpt lat="44.8743" lon="-0.53112">
        <ele>45.086400705868</ele>
        <time>2022-06-05T13:45:51Z</time>
      </trkpt>
      <trkpt lat="44.87439" lon="-0.53115">
        <ele>43.94798866248</ele>
        <time>2022-06-05T13:46:00Z</time>
      </trkpt>
      <trkpt lat="44.87449" lon="-0.5312">
        <ele>42.541207816531</ele>
        <time>2022-06-05T13:46:09Z</time>
      </trkpt>
      <trkpt lat="44.87457" lon="-0.53125">
        <ele>43.160057944226</ele>
        <time>2022-06-05T13:46:15Z</time>
      </trkpt>
      <trkpt lat="44.87467" lon="-0.53127">
        <ele>41.590550247942</ele>
        <time>2022-06-05T13:46:22Z</time>
      </trkpt>
      <trkpt lat="44.87476" lon="-0.53125">
        <ele>40.639858627789</ele>
        <time>2022-06-05T13:46:30Z</time>
      </trkpt>
      <trkpt lat="44.87486" lon="-0.53126">
        <ele>39.53278225393</ele>
        <time>2022-06-05T13:46:39Z</time>
      </trkpt>
      <trkpt lat="44.87496" lon="-0.53129">
        <ele>40.150511492555</ele>
        <time>2022-06-05T13:46:46Z</time>
      </trkpt>
      <trkpt lat="44.87505" lon="-0.53132">
        <ele>38.128701119943</ele>
        <time>2022-06-05T13:46:55Z</time>
      </trkpt>
      <trkpt lat="44.87514" lon="-0.53132">
        <ele>36.983997493923</ele>
        <time>2022-06-05T13:47:05Z</time>
      </trkpt>
      <trkpt lat="44.87523" lon="-0.5314">
        <ele>37.482306076813</ele>
        <time>2022-06-05T13:47:12Z</time>
      </trkpt>
      <trkpt lat="44.87533" lon="-0.53143">
        <ele>36.376953550064</ele>
        <time>2022-06-05T13:47:18Z</time>
      </trkpt>
      <trkpt lat="44.87542" lon="-0.53145">
        <ele>34.66415125913</ele>
        <time>2022-06-05T13:47:26Z</time>
      </trkpt>
      <trkpt lat="44.87551" lon="-0.5315">
        <ele>34.084588325183</ele>
        <time>2022-06-05T13:47:34Z</time>
      </trkpt>
      <trkpt lat="44.8756" lon="-0.53157">
        <ele>33.954188875547</ele>
        <time>2022-06-05T13:47:41Z</time>
      </trkpt>
      <trkpt lat="44.87567" lon="-0.53165">
        <ele>32.146565616218</ele>
        <time>2022-06-05T13:47:49Z</time>
      </trkpt>
      <trkpt lat="44.87575" lon="-0.53175">
        <ele>30.776155757874</ele>
        <time>2022-06-05T13:47:56Z</time>
      </trkpt>
      <trkpt lat="44.87583" lon="-0.53181">
        <ele>29.8817040138</ele>
        <time>2022-06-05T13:48:03Z</time>
      </trkpt>
      <trkpt lat="44.87592" lon="-0.53184">
        <ele>29.853606685494</ele>
        <time>2022-06-05T13:48:12Z</time>
      </trkpt>
      <trkpt lat="44.87597" lon="-0.53195">
        <ele>26.627814900597</ele>
        <time>2022-06-05T13:48:25Z</time>
      </trkpt>
      <trkpt lat="44.87604" lon="-0.53204">
        <ele>25.736995281853</ele>
        <time>2022-06-05T13:48:31Z</time>
      </trkpt>
      <trkpt lat="44.87608" lon="-0.53215">
        <ele>24.905382983544</ele>
        <time>2022-06-05T13:48:46Z</time>
      </trkpt>
      <trkpt lat="44.8761" lon="-0.53234">
        <ele>22.258247124755</ele>
        <time>2022-06-05T13:49:01Z</time>
      </trkpt>
      <trkpt lat="44.87607" lon="-0.53248">
        <ele>24.493690423046</ele>
        <time>2022-06-05T13:49:08Z</time>
      </trkpt>
      <trkpt lat="44.87614" lon="-0.53262">
        <ele>19.300003051758</ele>
        <time>2022-06-05T13:49:25Z</time>
      </trkpt>
      <trkpt lat="44.87624" lon="-0.53265">
        <ele>18</ele>
        <time>2022-06-05T13:49:32Z</time>
      </trkpt>
      <trkpt lat="44.87634" lon="-0.53264">
        <ele>16.936740619199</ele>
        <time>2022-06-05T13:49:39Z</time>
      </trkpt>
      <trkpt lat="44.87644" lon="-0.53261">
        <ele>16.099998474121</ele>
        <time>2022-06-05T13:49:47Z</time>
      </trkpt>
      <trkpt lat="44.87658" lon="-0.53262">
        <ele>14.900001525879</ele>
        <time>2022-06-05T13:50:01Z</time>
      </trkpt>
      <trkpt lat="44.87665" lon="-0.5327">
        <ele>14.61696975097</ele>
        <time>2022-06-05T13:50:10Z</time>
      </trkpt>
      <trkpt lat="44.8767" lon="-0.53283">
        <ele>12.700000762939</ele>
        <time>2022-06-05T13:50:20Z</time>
      </trkpt>
      <trkpt lat="44.87672" lon="-0.53296">
        <ele>12.600002288818</ele>
        <time>2022-06-05T13:50:27Z</time>
      </trkpt>
      <trkpt lat="44.87674" lon="-0.53312">
        <ele>11.200000762939</ele>
        <time>2022-06-05T13:50:34Z</time>
      </trkpt>
      <trkpt lat="44.87685" lon="-0.53318">
        <ele>10.700000762939</ele>
        <time>2022-06-05T13:50:45Z</time>
      </trkpt>
      <trkpt lat="44.87694" lon="-0.53312">
        <ele>10.700000762939</ele>
        <time>2022-06-05T13:50:55Z</time>
      </trkpt>
      <trkpt lat="44.87699" lon="-0.533">
        <ele>10.400001525879</ele>
        <time>2022-06-05T13:51:21Z</time>
      </trkpt>
      <trkpt lat="44.8769" lon="-0.53317">
        <ele>10.700000762939</ele>
        <time>2022-06-05T13:51:29Z</time>
      </trkpt>
      <trkpt lat="44.87703" lon="-0.53298">
        <ele>10.200000762939</ele>
        <time>2022-06-05T13:52:30Z</time>
      </trkpt>
      <trkpt lat="44.87713" lon="-0.53298">
        <ele>8.6000022888184</ele>
        <time>2022-06-05T13:52:43Z</time>
      </trkpt>
      <trkpt lat="44.87721" lon="-0.53293">
        <ele>8.6000022888184</ele>
        <time>2022-06-05T13:52:49Z</time>
      </trkpt>
      <trkpt lat="44.87731" lon="-0.53287">
        <ele>7.4000015258789</ele>
        <time>2022-06-05T13:52:57Z</time>
      </trkpt>
    </trkseg>
  </trk>
</gpx>